Wetterdaten: Sonntag, 01.09.2019
Datum Zeit Temp. A. Feuchte A. Luftdruck Regen Wind Richtung Richtung Sonnenschein ET UV Solar Taupunkt Windchill Windböen
01.09.2019 00:00 18,2 °C 68 % 1010,6 hPa 0,0 mm 0,0 km/h (0 Bft) N-NW 346 ° 0 min 0,000 mm 0,0 UV-I 0 W/m² 12,2 °C 18,2 °C 0,0 km/h (0 Bft)
01.09.2019 00:01 18,2 °C 68 % 1010,6 hPa 0,0 mm 0,0 km/h (0 Bft) N-NW 346 ° 0 min 0,000 mm 0,0 UV-I 0 W/m² 12,2 °C 18,2 °C 0,0 km/h (0 Bft)
01.09.2019 00:02 18,2 °C 68 % 1010,6 hPa 0,0 mm 0,0 km/h (0 Bft) N-NW 346 ° 0 min 0,000 mm 0,0 UV-I 0 W/m² 12,2 °C 18,2 °C 0,0 km/h (0 Bft)
01.09.2019 00:03 18,2 °C 68 % 1010,6 hPa 0,0 mm 0,2 km/h (0 Bft) N-NW 343 ° 0 min 0,000 mm 0,0 UV-I 0 W/m² 12,2 °C 18,2 °C 1,6 km/h (1 Bft)
01.09.2019 00:04 18,1 °C 68 % 1010,6 hPa 0,0 mm 0,0 km/h (0 Bft) O 96 ° 0 min 0,000 mm 0,0 UV-I 0 W/m² 12,1 °C 18,1 °C 0,0 km/h (0 Bft)
01.09.2019 00:05 18,1 °C 68 % 1010,6 hPa 0,0 mm 0,0 km/h (0 Bft) O 96 ° 0 min 0,000 mm 0,0 UV-I 0 W/m² 12,1 °C 18,1 °C 0,0 km/h (0 Bft)
01.09.2019 00:06 18,1 °C 68 % 1010,6 hPa 0,0 mm 0,0 km/h (0 Bft) O 96 ° 0 min 0,000 mm 0,0 UV-I 0 W/m² 12,1 °C 18,1 °C 0,0 km/h (0 Bft)
01.09.2019 00:07 18,1 °C 68 % 1010,5 hPa 0,0 mm 0,0 km/h (0 Bft) O 96 ° 0 min 0,000 mm 0,0 UV-I 0 W/m² 12,1 °C 18,1 °C 0,0 km/h (0 Bft)
01.09.2019 00:08 18,1 °C 67 % 1010,6 hPa 0,0 mm 0,0 km/h (0 Bft) O 96 ° 0 min 0,000 mm 0,0 UV-I 0 W/m² 11,9 °C 18,1 °C 0,0 km/h (0 Bft)
01.09.2019 00:09 18,1 °C 68 % 1010,6 hPa 0,0 mm 0,0 km/h (0 Bft) O 96 ° 0 min 0,000 mm 0,0 UV-I 0 W/m² 12,1 °C 18,1 °C 0,0 km/h (0 Bft)
01.09.2019 00:10 18,1 °C 67 % 1010,5 hPa 0,0 mm 0,0 km/h (0 Bft) O 96 ° 0 min 0,000 mm 0,0 UV-I 0 W/m² 11,9 °C 18,1 °C 0,0 km/h (0 Bft)
01.09.2019 00:11 18,1 °C 69 % 1010,5 hPa 0,0 mm 0,0 km/h (0 Bft) O 96 ° 0 min 0,000 mm 0,0 UV-I 0 W/m² 12,3 °C 18,1 °C 0,0 km/h (0 Bft)
01.09.2019 00:12 17,9 °C 69 % 1010,5 hPa 0,0 mm 0,0 km/h (0 Bft) O 96 ° 0 min 0,000 mm 0,0 UV-I 0 W/m² 12,1 °C 17,9 °C 0,0 km/h (0 Bft)
01.09.2019 00:13 17,9 °C 68 % 1010,5 hPa 0,0 mm 0,1 km/h (0 Bft) O 96 ° 0 min 0,000 mm 0,0 UV-I 0 W/m² 11,9 °C 17,9 °C 1,6 km/h (1 Bft)
01.09.2019 00:14 17,9 °C 68 % 1010,5 hPa 0,0 mm 0,0 km/h (0 Bft) O 96 ° 0 min 0,000 mm 0,0 UV-I 0 W/m² 11,9 °C 17,9 °C 0,0 km/h (0 Bft)
01.09.2019 00:15 17,9 °C 69 % 1010,5 hPa 0,0 mm 0,0 km/h (0 Bft) O 96 ° 0 min 0,000 mm 0,0 UV-I 0 W/m² 12,1 °C 17,9 °C 0,0 km/h (0 Bft)
01.09.2019 00:16 17,9 °C 69 % 1010,6 hPa 0,0 mm 0,3 km/h (0 Bft) N 355 ° 0 min 0,000 mm 0,0 UV-I 0 W/m² 12,1 °C 17,9 °C 1,6 km/h (1 Bft)
01.09.2019 00:17 17,9 °C 69 % 1010,6 hPa 0,0 mm 0,0 km/h (0 Bft) N 355 ° 0 min 0,000 mm 0,0 UV-I 0 W/m² 12,1 °C 17,9 °C 0,0 km/h (0 Bft)
01.09.2019 00:18 17,9 °C 68 % 1010,6 hPa 0,0 mm 0,0 km/h (0 Bft) N 355 ° 0 min 0,000 mm 0,0 UV-I 0 W/m² 11,9 °C 17,9 °C 0,0 km/h (0 Bft)
01.09.2019 00:19 18,0 °C 68 % 1010,6 hPa 0,0 mm 0,0 km/h (0 Bft) N 355 ° 0 min 0,000 mm 0,0 UV-I 0 W/m² 12,0 °C 18,0 °C 0,0 km/h (0 Bft)
01.09.2019 00:20 18,1 °C 67 % 1010,6 hPa 0,0 mm 0,0 km/h (0 Bft) N 355 ° 0 min 0,000 mm 0,0 UV-I 0 W/m² 11,9 °C 18,1 °C 0,0 km/h (0 Bft)
01.09.2019 00:21 18,1 °C 67 % 1010,5 hPa 0,0 mm 0,0 km/h (0 Bft) N 355 ° 0 min 0,000 mm 0,0 UV-I 0 W/m² 11,9 °C 18,1 °C 0,0 km/h (0 Bft)
01.09.2019 00:22 18,2 °C 66 % 1010,5 hPa 0,0 mm 0,0 km/h (0 Bft) O 99 ° 0 min 0,000 mm 0,0 UV-I 0 W/m² 11,7 °C 18,2 °C 0,0 km/h (0 Bft)
01.09.2019 00:23 18,4 °C 65 % 1010,6 hPa 0,0 mm 0,0 km/h (0 Bft) O 99 ° 0 min 0,000 mm 0,0 UV-I 0 W/m² 11,7 °C 18,4 °C 0,0 km/h (0 Bft)
01.09.2019 00:24 18,4 °C 66 % 1010,5 hPa 0,0 mm 0,0 km/h (0 Bft) O 99 ° 0 min 0,000 mm 0,0 UV-I 0 W/m² 11,9 °C 18,4 °C 0,0 km/h (0 Bft)
01.09.2019 00:25 18,4 °C 65 % 1010,5 hPa 0,0 mm 0,0 km/h (0 Bft) O 93 ° 0 min 0,000 mm 0,0 UV-I 0 W/m² 11,7 °C 18,4 °C 0,0 km/h (0 Bft)
01.09.2019 00:26 18,6 °C 64 % 1010,6 hPa 0,0 mm 0,0 km/h (0 Bft) O 93 ° 0 min 0,000 mm 0,0 UV-I 0 W/m² 11,7 °C 18,6 °C 0,0 km/h (0 Bft)
01.09.2019 00:27 18,6 °C 64 % 1010,6 hPa 0,0 mm 0,0 km/h (0 Bft) O 93 ° 0 min 0,000 mm 0,0 UV-I 0 W/m² 11,7 °C 18,6 °C 0,0 km/h (0 Bft)
01.09.2019 00:28 18,7 °C 65 % 1010,6 hPa 0,0 mm 0,0 km/h (0 Bft) O 93 ° 0 min 0,000 mm 0,0 UV-I 0 W/m² 12,0 °C 18,7 °C 0,0 km/h (0 Bft)
01.09.2019 00:29 18,7 °C 64 % 1010,6 hPa 0,0 mm 0,0 km/h (0 Bft) O 93 ° 0 min 0,000 mm 0,0 UV-I 0 W/m² 11,7 °C 18,7 °C 0,0 km/h (0 Bft)
01.09.2019 00:30 18,7 °C 65 % 1010,6 hPa 0,0 mm 0,0 km/h (0 Bft) O 93 ° 0 min 0,000 mm 0,0 UV-I 0 W/m² 12,0 °C 18,7 °C 0,0 km/h (0 Bft)
01.09.2019 00:31 18,6 °C 65 % 1010,6 hPa 0,0 mm 0,0 km/h (0 Bft) O 93 ° 0 min 0,000 mm 0,0 UV-I 0 W/m² 11,9 °C 18,6 °C 0,0 km/h (0 Bft)
01.09.2019 00:32 18,5 °C 66 % 1010,5 hPa 0,0 mm 0,0 km/h (0 Bft) O 93 ° 0 min 0,000 mm 0,0 UV-I 0 W/m² 12,0 °C 18,5 °C 0,0 km/h (0 Bft)
01.09.2019 00:33 18,4 °C 66 % 1010,5 hPa 0,0 mm 0,0 km/h (0 Bft) O 93 ° 0 min 0,000 mm 0,0 UV-I 0 W/m² 11,9 °C 18,4 °C 0,0 km/h (0 Bft)
01.09.2019 00:34 18,3 °C 67 % 1010,4 hPa 0,0 mm 0,0 km/h (0 Bft) O 93 ° 0 min 0,000 mm 0,0 UV-I 0 W/m² 12,1 °C 18,3 °C 0,0 km/h (0 Bft)
01.09.2019 00:35 18,2 °C 67 % 1010,5 hPa 0,0 mm 0,0 km/h (0 Bft) O 93 ° 0 min 0,000 mm 0,0 UV-I 0 W/m² 12,0 °C 18,2 °C 0,0 km/h (0 Bft)
01.09.2019 00:36 18,1 °C 68 % 1010,4 hPa 0,0 mm 0,0 km/h (0 Bft) O 93 ° 0 min 0,000 mm 0,0 UV-I 0 W/m² 12,1 °C 18,1 °C 0,0 km/h (0 Bft)
01.09.2019 00:37 18,1 °C 67 % 1010,4 hPa 0,0 mm 0,0 km/h (0 Bft) O 93 ° 0 min 0,000 mm 0,0 UV-I 0 W/m² 11,9 °C 18,1 °C 0,0 km/h (0 Bft)
01.09.2019 00:38 18,0 °C 68 % 1010,5 hPa 0,0 mm 0,0 km/h (0 Bft) O 93 ° 0 min 0,000 mm 0,0 UV-I 0 W/m² 12,0 °C 18,0 °C 0,0 km/h (0 Bft)
01.09.2019 00:39 17,9 °C 69 % 1010,4 hPa 0,0 mm 0,0 km/h (0 Bft) O 93 ° 0 min 0,000 mm 0,0 UV-I 0 W/m² 12,1 °C 17,9 °C 0,0 km/h (0 Bft)
01.09.2019 00:40 17,9 °C 69 % 1010,4 hPa 0,0 mm 0,1 km/h (0 Bft) W-SW 254 ° 0 min 0,000 mm 0,0 UV-I 0 W/m² 12,1 °C 17,9 °C 1,6 km/h (1 Bft)
01.09.2019 00:41 17,8 °C 69 % 1010,3 hPa 0,0 mm 0,0 km/h (0 Bft) W-SW 254 ° 0 min 0,000 mm 0,0 UV-I 0 W/m² 12,0 °C 17,8 °C 0,0 km/h (0 Bft)
01.09.2019 00:42 17,8 °C 70 % 1010,3 hPa 0,0 mm 0,1 km/h (0 Bft) W-SW 254 ° 0 min 0,000 mm 0,0 UV-I 0 W/m² 12,3 °C 17,8 °C 1,6 km/h (1 Bft)
01.09.2019 00:43 17,7 °C 71 % 1010,4 hPa 0,0 mm 0,0 km/h (0 Bft) W-SW 254 ° 0 min 0,000 mm 0,0 UV-I 0 W/m² 12,4 °C 17,7 °C 0,0 km/h (0 Bft)
01.09.2019 00:44 17,6 °C 70 % 1010,3 hPa 0,0 mm 0,0 km/h (0 Bft) W-SW 254 ° 0 min 0,000 mm 0,0 UV-I 0 W/m² 12,1 °C 17,6 °C 0,0 km/h (0 Bft)
01.09.2019 00:45 17,5 °C 72 % 1010,3 hPa 0,0 mm 0,0 km/h (0 Bft) W-SW 254 ° 0 min 0,000 mm 0,0 UV-I 0 W/m² 12,4 °C 17,5 °C 0,0 km/h (0 Bft)
01.09.2019 00:46 17,5 °C 71 % 1010,3 hPa 0,0 mm 0,0 km/h (0 Bft) W-SW 254 ° 0 min 0,000 mm 0,0 UV-I 0 W/m² 12,2 °C 17,5 °C 0,0 km/h (0 Bft)
01.09.2019 00:47 17,4 °C 72 % 1010,3 hPa 0,0 mm 0,0 km/h (0 Bft) W-SW 254 ° 0 min 0,000 mm 0,0 UV-I 0 W/m² 12,3 °C 17,4 °C 0,0 km/h (0 Bft)
01.09.2019 00:48 17,3 °C 73 % 1010,3 hPa 0,0 mm 0,0 km/h (0 Bft) W-SW 254 ° 0 min 0,000 mm 0,0 UV-I 0 W/m² 12,4 °C 17,3 °C 0,0 km/h (0 Bft)
01.09.2019 00:49 17,3 °C 73 % 1010,3 hPa 0,0 mm 0,0 km/h (0 Bft) W-SW 254 ° 0 min 0,000 mm 0,0 UV-I 0 W/m² 12,4 °C 17,3 °C 0,0 km/h (0 Bft)
01.09.2019 00:50 17,3 °C 73 % 1010,3 hPa 0,0 mm 0,0 km/h (0 Bft) W-SW 254 ° 0 min 0,000 mm 0,0 UV-I 0 W/m² 12,4 °C 17,3 °C 0,0 km/h (0 Bft)
01.09.2019 00:51 17,2 °C 72 % 1010,3 hPa 0,0 mm 0,0 km/h (0 Bft) W-SW 254 ° 0 min 0,000 mm 0,0 UV-I 0 W/m² 12,1 °C 17,2 °C 0,0 km/h (0 Bft)
01.09.2019 00:52 17,3 °C 72 % 1010,3 hPa 0,0 mm 0,0 km/h (0 Bft) W-SW 254 ° 0 min 0,000 mm 0,0 UV-I 0 W/m² 12,2 °C 17,3 °C 0,0 km/h (0 Bft)
01.09.2019 00:53 17,3 °C 73 % 1010,3 hPa 0,0 mm 0,0 km/h (0 Bft) W-SW 254 ° 0 min 0,000 mm 0,0 UV-I 0 W/m² 12,4 °C 17,3 °C 0,0 km/h (0 Bft)
01.09.2019 00:54 17,3 °C 72 % 1010,3 hPa 0,0 mm 0,0 km/h (0 Bft) W-SW 254 ° 0 min 0,000 mm 0,0 UV-I 0 W/m² 12,2 °C 17,3 °C 0,0 km/h (0 Bft)
01.09.2019 00:55 17,3 °C 73 % 1010,3 hPa 0,0 mm 0,0 km/h (0 Bft) W-SW 254 ° 0 min 0,000 mm 0,0 UV-I 0 W/m² 12,4 °C 17,3 °C 0,0 km/h (0 Bft)
01.09.2019 00:56 17,2 °C 72 % 1010,3 hPa 0,0 mm 0,0 km/h (0 Bft) W-SW 254 ° 0 min 0,000 mm 0,0 UV-I 0 W/m² 12,1 °C 17,2 °C 0,0 km/h (0 Bft)
01.09.2019 00:57 17,2 °C 72 % 1010,3 hPa 0,0 mm 0,0 km/h (0 Bft) W-SW 254 ° 0 min 0,000 mm 0,0 UV-I 0 W/m² 12,1 °C 17,2 °C 0,0 km/h (0 Bft)
01.09.2019 00:58 17,2 °C 71 % 1010,3 hPa 0,0 mm 0,0 km/h (0 Bft) W-SW 254 ° 0 min 0,000 mm 0,0 UV-I 0 W/m² 11,9 °C 17,2 °C 0,0 km/h (0 Bft)
01.09.2019 00:59 17,3 °C 72 % 1010,3 hPa 0,0 mm 0,0 km/h (0 Bft) W-SW 254 ° 0 min 0,000 mm 0,0 UV-I 0 W/m² 12,2 °C 17,3 °C 0,0 km/h (0 Bft)
01.09.2019 01:00 17,2 °C 74 % 1010,3 hPa 0,0 mm 0,0 km/h (0 Bft) W-SW 254 ° 0 min 0,000 mm 0,0 UV-I 0 W/m² 12,5 °C 17,2 °C 0,0 km/h (0 Bft)
01.09.2019 01:01 17,2 °C 73 % 1010,3 hPa 0,0 mm 0,0 km/h (0 Bft) W-SW 254 ° 0 min 0,025 mm 0,0 UV-I 0 W/m² 12,3 °C 17,2 °C 0,0 km/h (0 Bft)
01.09.2019 01:02 17,2 °C 73 % 1010,3 hPa 0,0 mm 0,0 km/h (0 Bft) W-SW 254 ° 0 min 0,000 mm 0,0 UV-I 0 W/m² 12,3 °C 17,2 °C 0,0 km/h (0 Bft)
01.09.2019 01:03 17,2 °C 72 % 1010,3 hPa 0,0 mm 0,0 km/h (0 Bft) W-SW 254 ° 0 min 0,000 mm 0,0 UV-I 0 W/m² 12,1 °C 17,2 °C 0,0 km/h (0 Bft)
01.09.2019 01:04 17,3 °C 72 % 1010,3 hPa 0,0 mm 0,0 km/h (0 Bft) W-SW 254 ° 0 min 0,000 mm 0,0 UV-I 0 W/m² 12,2 °C 17,3 °C 0,0 km/h (0 Bft)
01.09.2019 01:05 17,3 °C 73 % 1010,3 hPa 0,0 mm 0,0 km/h (0 Bft) W-SW 254 ° 0 min 0,000 mm 0,0 UV-I 0 W/m² 12,4 °C 17,3 °C 0,0 km/h (0 Bft)
01.09.2019 01:06 17,3 °C 72 % 1010,3 hPa 0,0 mm 0,0 km/h (0 Bft) W-SW 254 ° 0 min 0,000 mm 0,0 UV-I 0 W/m² 12,2 °C 17,3 °C 0,0 km/h (0 Bft)
01.09.2019 01:07 17,3 °C 71 % 1010,3 hPa 0,0 mm 0,0 km/h (0 Bft) W-SW 254 ° 0 min 0,000 mm 0,0 UV-I 0 W/m² 12,0 °C 17,3 °C 0,0 km/h (0 Bft)
01.09.2019 01:08 17,4 °C 71 % 1010,3 hPa 0,0 mm 0,0 km/h (0 Bft) W-SW 254 ° 0 min 0,000 mm 0,0 UV-I 0 W/m² 12,1 °C 17,4 °C 0,0 km/h (0 Bft)
01.09.2019 01:09 17,4 °C 70 % 1010,3 hPa 0,0 mm 0,0 km/h (0 Bft) W-SW 254 ° 0 min 0,000 mm 0,0 UV-I 0 W/m² 11,9 °C 17,4 °C 0,0 km/h (0 Bft)
01.09.2019 01:10 17,5 °C 70 % 1010,3 hPa 0,0 mm 0,0 km/h (0 Bft) W-SW 254 ° 0 min 0,000 mm 0,0 UV-I 0 W/m² 12,0 °C 17,5 °C 0,0 km/h (0 Bft)
01.09.2019 01:11 17,5 °C 70 % 1010,3 hPa 0,0 mm 0,0 km/h (0 Bft) W-SW 254 ° 0 min 0,000 mm 0,0 UV-I 0 W/m² 12,0 °C 17,5 °C 0,0 km/h (0 Bft)
01.09.2019 01:12 17,6 °C 69 % 1010,3 hPa 0,0 mm 0,0 km/h (0 Bft) W-SW 254 ° 0 min 0,000 mm 0,0 UV-I 0 W/m² 11,8 °C 17,6 °C 0,0 km/h (0 Bft)
01.09.2019 01:13 17,7 °C 70 % 1010,3 hPa 0,0 mm 0,0 km/h (0 Bft) W-SW 254 ° 0 min 0,000 mm 0,0 UV-I 0 W/m² 12,2 °C 17,7 °C 0,0 km/h (0 Bft)
01.09.2019 01:14 17,7 °C 69 % 1010,3 hPa 0,0 mm 0,0 km/h (0 Bft) W-SW 257 ° 0 min 0,000 mm 0,0 UV-I 0 W/m² 11,9 °C 17,7 °C 0,0 km/h (0 Bft)
01.09.2019 01:15 17,7 °C 71 % 1010,3 hPa 0,0 mm 0,0 km/h (0 Bft) W-SW 257 ° 0 min 0,000 mm 0,0 UV-I 0 W/m² 12,4 °C 17,7 °C 0,0 km/h (0 Bft)
01.09.2019 01:16 17,7 °C 69 % 1010,3 hPa 0,0 mm 0,0 km/h (0 Bft) W-SW 257 ° 0 min 0,000 mm 0,0 UV-I 0 W/m² 11,9 °C 17,7 °C 0,0 km/h (0 Bft)
01.09.2019 01:17 17,7 °C 69 % 1010,3 hPa 0,0 mm 0,0 km/h (0 Bft) W-SW 257 ° 0 min 0,000 mm 0,0 UV-I 0 W/m² 11,9 °C 17,7 °C 0,0 km/h (0 Bft)
01.09.2019 01:18 17,8 °C 70 % 1010,3 hPa 0,0 mm 0,0 km/h (0 Bft) W-SW 257 ° 0 min 0,000 mm 0,0 UV-I 0 W/m² 12,3 °C 17,8 °C 0,0 km/h (0 Bft)
01.09.2019 01:19 17,7 °C 69 % 1010,4 hPa 0,0 mm 0,0 km/h (0 Bft) W-SW 257 ° 0 min 0,000 mm 0,0 UV-I 0 W/m² 11,9 °C 17,7 °C 0,0 km/h (0 Bft)
01.09.2019 01:20 17,7 °C 69 % 1010,3 hPa 0,0 mm 0,0 km/h (0 Bft) W-SW 257 ° 0 min 0,000 mm 0,0 UV-I 0 W/m² 11,9 °C 17,7 °C 0,0 km/h (0 Bft)
01.09.2019 01:21 17,7 °C 69 % 1010,3 hPa 0,0 mm 0,0 km/h (0 Bft) W-SW 257 ° 0 min 0,000 mm 0,0 UV-I 0 W/m² 11,9 °C 17,7 °C 0,0 km/h (0 Bft)
01.09.2019 01:22 17,7 °C 71 % 1010,4 hPa 0,0 mm 0,0 km/h (0 Bft) W-SW 257 ° 0 min 0,000 mm 0,0 UV-I 0 W/m² 12,4 °C 17,7 °C 0,0 km/h (0 Bft)
01.09.2019 01:23 17,6 °C 70 % 1010,4 hPa 0,0 mm 0,0 km/h (0 Bft) W-SW 257 ° 0 min 0,000 mm 0,0 UV-I 0 W/m² 12,1 °C 17,6 °C 0,0 km/h (0 Bft)
01.09.2019 01:24 17,6 °C 70 % 1010,4 hPa 0,0 mm 0,0 km/h (0 Bft) W-SW 257 ° 0 min 0,000 mm 0,0 UV-I 0 W/m² 12,1 °C 17,6 °C 0,0 km/h (0 Bft)
01.09.2019 01:25 17,6 °C 69 % 1010,3 hPa 0,0 mm 0,0 km/h (0 Bft) W-SW 257 ° 0 min 0,000 mm 0,0 UV-I 0 W/m² 11,8 °C 17,6 °C 0,0 km/h (0 Bft)
01.09.2019 01:26 17,6 °C 69 % 1010,3 hPa 0,0 mm 0,0 km/h (0 Bft) W-SW 257 ° 0 min 0,000 mm 0,0 UV-I 0 W/m² 11,8 °C 17,6 °C 0,0 km/h (0 Bft)
01.09.2019 01:27 17,6 °C 70 % 1010,3 hPa 0,0 mm 0,0 km/h (0 Bft) W-SW 257 ° 0 min 0,000 mm 0,0 UV-I 0 W/m² 12,1 °C 17,6 °C 0,0 km/h (0 Bft)
01.09.2019 01:28 17,6 °C 70 % 1010,3 hPa 0,0 mm 0,0 km/h (0 Bft) W-SW 257 ° 0 min 0,000 mm 0,0 UV-I 0 W/m² 12,1 °C 17,6 °C 0,0 km/h (0 Bft)
01.09.2019 01:29 17,6 °C 69 % 1010,3 hPa 0,0 mm 0,0 km/h (0 Bft) W-SW 257 ° 0 min 0,000 mm 0,0 UV-I 0 W/m² 11,8 °C 17,6 °C 0,0 km/h (0 Bft)
01.09.2019 01:30 17,6 °C 69 % 1010,3 hPa 0,0 mm 0,0 km/h (0 Bft) W-SW 257 ° 0 min 0,000 mm 0,0 UV-I 0 W/m² 11,8 °C 17,6 °C 0,0 km/h (0 Bft)
01.09.2019 01:31 17,6 °C 69 % 1010,3 hPa 0,0 mm 0,0 km/h (0 Bft) W-SW 257 ° 0 min 0,000 mm 0,0 UV-I 0 W/m² 11,8 °C 17,6 °C 0,0 km/h (0 Bft)
01.09.2019 01:32 17,6 °C 69 % 1010,3 hPa 0,0 mm 0,0 km/h (0 Bft) W-SW 257 ° 0 min 0,000 mm 0,0 UV-I 0 W/m² 11,8 °C 17,6 °C 0,0 km/h (0 Bft)
01.09.2019 01:33 17,6 °C 71 % 1010,3 hPa 0,0 mm 0,0 km/h (0 Bft) W-SW 257 ° 0 min 0,000 mm 0,0 UV-I 0 W/m² 12,3 °C 17,6 °C 0,0 km/h (0 Bft)
01.09.2019 01:34 17,6 °C 71 % 1010,3 hPa 0,0 mm 0,4 km/h (0 Bft) N 360 ° 0 min 0,000 mm 0,0 UV-I 0 W/m² 12,3 °C 17,6 °C 1,6 km/h (1 Bft)
01.09.2019 01:35 17,6 °C 70 % 1010,3 hPa 0,0 mm 0,1 km/h (0 Bft) N 360 ° 0 min 0,000 mm 0,0 UV-I 0 W/m² 12,1 °C 17,6 °C 1,6 km/h (1 Bft)
01.09.2019 01:36 17,6 °C 70 % 1010,3 hPa 0,0 mm 0,0 km/h (0 Bft) N 360 ° 0 min 0,000 mm 0,0 UV-I 0 W/m² 12,1 °C 17,6 °C 0,0 km/h (0 Bft)
01.09.2019 01:37 17,6 °C 70 % 1010,3 hPa 0,0 mm 0,0 km/h (0 Bft) N 360 ° 0 min 0,000 mm 0,0 UV-I 0 W/m² 12,1 °C 17,6 °C 0,0 km/h (0 Bft)
01.09.2019 01:38 17,6 °C 70 % 1010,3 hPa 0,0 mm 0,0 km/h (0 Bft) N 360 ° 0 min 0,000 mm 0,0 UV-I 0 W/m² 12,1 °C 17,6 °C 0,0 km/h (0 Bft)
01.09.2019 01:39 17,6 °C 70 % 1010,2 hPa 0,0 mm 0,0 km/h (0 Bft) N 360 ° 0 min 0,000 mm 0,0 UV-I 0 W/m² 12,1 °C 17,6 °C 0,0 km/h (0 Bft)
01.09.2019 01:40 17,6 °C 69 % 1010,2 hPa 0,0 mm 0,0 km/h (0 Bft) N 360 ° 0 min 0,000 mm 0,0 UV-I 0 W/m² 11,8 °C 17,6 °C 0,0 km/h (0 Bft)
01.09.2019 01:41 17,6 °C 70 % 1010,2 hPa 0,0 mm 0,6 km/h (0 Bft) N 360 ° 0 min 0,000 mm 0,0 UV-I 0 W/m² 12,1 °C 17,6 °C 1,6 km/h (1 Bft)
01.09.2019 01:42 17,6 °C 69 % 1010,2 hPa 0,0 mm 0,0 km/h (0 Bft) N 360 ° 0 min 0,000 mm 0,0 UV-I 0 W/m² 11,8 °C 17,6 °C 0,0 km/h (0 Bft)
01.09.2019 01:43 17,6 °C 70 % 1010,2 hPa 0,0 mm 0,0 km/h (0 Bft) N 360 ° 0 min 0,000 mm 0,0 UV-I 0 W/m² 12,1 °C 17,6 °C 0,0 km/h (0 Bft)
01.09.2019 01:44 17,6 °C 70 % 1010,3 hPa 0,0 mm 0,4 km/h (0 Bft) N 360 ° 0 min 0,000 mm 0,0 UV-I 0 W/m² 12,1 °C 17,6 °C 3,2 km/h (1 Bft)
01.09.2019 01:45 17,6 °C 70 % 1010,3 hPa 0,0 mm 1,2 km/h (1 Bft) N 360 ° 0 min 0,000 mm 0,0 UV-I 0 W/m² 12,1 °C 17,6 °C 3,2 km/h (1 Bft)
01.09.2019 01:46 17,6 °C 69 % 1010,3 hPa 0,0 mm 0,0 km/h (0 Bft) N 360 ° 0 min 0,000 mm 0,0 UV-I 0 W/m² 11,8 °C 17,6 °C 0,0 km/h (0 Bft)
01.09.2019 01:47 17,7 °C 69 % 1010,3 hPa 0,0 mm 0,0 km/h (0 Bft) N 360 ° 0 min 0,000 mm 0,0 UV-I 0 W/m² 11,9 °C 17,7 °C 0,0 km/h (0 Bft)
01.09.2019 01:48 17,7 °C 69 % 1010,3 hPa 0,0 mm 0,0 km/h (0 Bft) N 360 ° 0 min 0,000 mm 0,0 UV-I 0 W/m² 11,9 °C 17,7 °C 0,0 km/h (0 Bft)
01.09.2019 01:49 17,7 °C 69 % 1010,3 hPa 0,0 mm 0,4 km/h (0 Bft) N 360 ° 0 min 0,000 mm 0,0 UV-I 0 W/m² 11,9 °C 17,7 °C 4,8 km/h (1 Bft)
01.09.2019 01:50 17,7 °C 70 % 1010,3 hPa 0,0 mm 0,2 km/h (0 Bft) N 360 ° 0 min 0,000 mm 0,0 UV-I 0 W/m² 12,2 °C 17,7 °C 3,2 km/h (1 Bft)
01.09.2019 01:51 17,7 °C 69 % 1010,3 hPa 0,0 mm 0,0 km/h (0 Bft) N 360 ° 0 min 0,000 mm 0,0 UV-I 0 W/m² 11,9 °C 17,7 °C 0,0 km/h (0 Bft)
01.09.2019 01:52 17,7 °C 69 % 1010,3 hPa 0,0 mm 0,0 km/h (0 Bft) N 360 ° 0 min 0,000 mm 0,0 UV-I 0 W/m² 11,9 °C 17,7 °C 0,0 km/h (0 Bft)
01.09.2019 01:53 17,7 °C 69 % 1010,3 hPa 0,0 mm 0,0 km/h (0 Bft) N 360 ° 0 min 0,000 mm 0,0 UV-I 0 W/m² 11,9 °C 17,7 °C 0,0 km/h (0 Bft)
01.09.2019 01:54 17,7 °C 69 % 1010,2 hPa 0,0 mm 0,0 km/h (0 Bft) N 360 ° 0 min 0,000 mm 0,0 UV-I 0 W/m² 11,9 °C 17,7 °C 0,0 km/h (0 Bft)
01.09.2019 01:55 17,7 °C 68 % 1010,3 hPa 0,0 mm 0,0 km/h (0 Bft) N 360 ° 0 min 0,000 mm 0,0 UV-I 0 W/m² 11,7 °C 17,7 °C 0,0 km/h (0 Bft)
01.09.2019 01:56 17,8 °C 69 % 1010,3 hPa 0,0 mm 0,0 km/h (0 Bft) N 360 ° 0 min 0,000 mm 0,0 UV-I 0 W/m² 12,0 °C 17,8 °C 0,0 km/h (0 Bft)
01.09.2019 01:57 17,8 °C 69 % 1010,3 hPa 0,0 mm 0,0 km/h (0 Bft) N 360 ° 0 min 0,000 mm 0,0 UV-I 0 W/m² 12,0 °C 17,8 °C 0,0 km/h (0 Bft)
01.09.2019 01:58 17,8 °C 69 % 1010,3 hPa 0,0 mm 0,0 km/h (0 Bft) N 360 ° 0 min 0,000 mm 0,0 UV-I 0 W/m² 12,0 °C 17,8 °C 0,0 km/h (0 Bft)
01.09.2019 01:59 17,8 °C 68 % 1010,3 hPa 0,0 mm 0,0 km/h (0 Bft) N 360 ° 0 min 0,000 mm 0,0 UV-I 0 W/m² 11,8 °C 17,8 °C 0,0 km/h (0 Bft)
01.09.2019 02:00 17,8 °C 69 % 1010,3 hPa 0,0 mm 0,0 km/h (0 Bft) N 360 ° 0 min 0,000 mm 0,0 UV-I 0 W/m² 12,0 °C 17,8 °C 0,0 km/h (0 Bft)
01.09.2019 02:01 17,7 °C 69 % 1010,3 hPa 0,0 mm 0,0 km/h (0 Bft) N 360 ° 0 min 0,026 mm 0,0 UV-I 0 W/m² 11,9 °C 17,7 °C 0,0 km/h (0 Bft)
01.09.2019 02:02 17,8 °C 69 % 1010,4 hPa 0,0 mm 0,0 km/h (0 Bft) N 360 ° 0 min 0,000 mm 0,0 UV-I 0 W/m² 12,0 °C 17,8 °C 0,0 km/h (0 Bft)
01.09.2019 02:03 17,8 °C 71 % 1010,4 hPa 0,0 mm 0,0 km/h (0 Bft) N 360 ° 0 min 0,000 mm 0,0 UV-I 0 W/m² 12,5 °C 17,8 °C 0,0 km/h (0 Bft)
01.09.2019 02:04 17,7 °C 70 % 1010,4 hPa 0,0 mm 0,0 km/h (0 Bft) N 360 ° 0 min 0,000 mm 0,0 UV-I 0 W/m² 12,2 °C 17,7 °C 0,0 km/h (0 Bft)
01.09.2019 02:05 17,7 °C 70 % 1010,4 hPa 0,0 mm 0,0 km/h (0 Bft) N 360 ° 0 min 0,000 mm 0,0 UV-I 0 W/m² 12,2 °C 17,7 °C 0,0 km/h (0 Bft)
01.09.2019 02:06 17,6 °C 71 % 1010,5 hPa 0,0 mm 0,0 km/h (0 Bft) N 360 ° 0 min 0,000 mm 0,0 UV-I 0 W/m² 12,3 °C 17,6 °C 0,0 km/h (0 Bft)
01.09.2019 02:07 17,6 °C 70 % 1010,5 hPa 0,0 mm 0,0 km/h (0 Bft) N 360 ° 0 min 0,000 mm 0,0 UV-I 0 W/m² 12,1 °C 17,6 °C 0,0 km/h (0 Bft)
01.09.2019 02:08 17,6 °C 72 % 1010,5 hPa 0,0 mm 0,1 km/h (0 Bft) N 360 ° 0 min 0,000 mm 0,0 UV-I 0 W/m² 12,5 °C 17,6 °C 1,6 km/h (1 Bft)
01.09.2019 02:09 17,5 °C 72 % 1010,5 hPa 0,0 mm 0,0 km/h (0 Bft) N 360 ° 0 min 0,000 mm 0,0 UV-I 0 W/m² 12,4 °C 17,5 °C 0,0 km/h (0 Bft)
01.09.2019 02:10 17,4 °C 71 % 1010,5 hPa 0,0 mm 0,0 km/h (0 Bft) N 360 ° 0 min 0,000 mm 0,0 UV-I 0 W/m² 12,1 °C 17,4 °C 0,0 km/h (0 Bft)
01.09.2019 02:11 17,4 °C 71 % 1010,5 hPa 0,0 mm 0,0 km/h (0 Bft) N 360 ° 0 min 0,000 mm 0,0 UV-I 0 W/m² 12,1 °C 17,4 °C 0,0 km/h (0 Bft)
01.09.2019 02:12 17,4 °C 72 % 1010,5 hPa 0,0 mm 0,0 km/h (0 Bft) N 360 ° 0 min 0,000 mm 0,0 UV-I 0 W/m² 12,3 °C 17,4 °C 0,0 km/h (0 Bft)
01.09.2019 02:13 17,4 °C 71 % 1010,5 hPa 0,0 mm 0,0 km/h (0 Bft) N 360 ° 0 min 0,000 mm 0,0 UV-I 0 W/m² 12,1 °C 17,4 °C 0,0 km/h (0 Bft)
01.09.2019 02:14 17,3 °C 71 % 1010,5 hPa 0,0 mm 0,0 km/h (0 Bft) N 360 ° 0 min 0,000 mm 0,0 UV-I 0 W/m² 12,0 °C 17,3 °C 0,0 km/h (0 Bft)
01.09.2019 02:15 17,3 °C 72 % 1010,5 hPa 0,0 mm 0,0 km/h (0 Bft) N 360 ° 0 min 0,000 mm 0,0 UV-I 0 W/m² 12,2 °C 17,3 °C 0,0 km/h (0 Bft)
01.09.2019 02:16 17,2 °C 73 % 1010,5 hPa 0,0 mm 0,0 km/h (0 Bft) N 360 ° 0 min 0,000 mm 0,0 UV-I 0 W/m² 12,3 °C 17,2 °C 0,0 km/h (0 Bft)
01.09.2019 02:17 17,2 °C 74 % 1010,4 hPa 0,0 mm 0,0 km/h (0 Bft) N 360 ° 0 min 0,000 mm 0,0 UV-I 0 W/m² 12,5 °C 17,2 °C 0,0 km/h (0 Bft)
01.09.2019 02:18 17,1 °C 76 % 1010,4 hPa 0,0 mm 0,0 km/h (0 Bft) N 360 ° 0 min 0,000 mm 0,0 UV-I 0 W/m² 12,8 °C 17,1 °C 0,0 km/h (0 Bft)
01.09.2019 02:19 17,1 °C 74 % 1010,4 hPa 0,0 mm 0,0 km/h (0 Bft) N 360 ° 0 min 0,000 mm 0,0 UV-I 0 W/m² 12,4 °C 17,1 °C 0,0 km/h (0 Bft)
01.09.2019 02:20 17,0 °C 74 % 1010,4 hPa 0,0 mm 0,0 km/h (0 Bft) N 360 ° 0 min 0,000 mm 0,0 UV-I 0 W/m² 12,3 °C 17,0 °C 0,0 km/h (0 Bft)
01.09.2019 02:21 17,0 °C 75 % 1010,4 hPa 0,0 mm 0,0 km/h (0 Bft) N 360 ° 0 min 0,000 mm 0,0 UV-I 0 W/m² 12,5 °C 17,0 °C 0,0 km/h (0 Bft)
01.09.2019 02:22 16,9 °C 75 % 1010,4 hPa 0,0 mm 0,0 km/h (0 Bft) N 360 ° 0 min 0,000 mm 0,0 UV-I 0 W/m² 12,4 °C 16,9 °C 0,0 km/h (0 Bft)
01.09.2019 02:23 16,9 °C 75 % 1010,4 hPa 0,0 mm 0,0 km/h (0 Bft) N 360 ° 0 min 0,000 mm 0,0 UV-I 0 W/m² 12,4 °C 16,9 °C 0,0 km/h (0 Bft)
01.09.2019 02:24 16,8 °C 74 % 1010,4 hPa 0,0 mm 0,0 km/h (0 Bft) N 360 ° 0 min 0,000 mm 0,0 UV-I 0 W/m² 12,1 °C 16,8 °C 0,0 km/h (0 Bft)
01.09.2019 02:25 16,8 °C 75 % 1010,5 hPa 0,0 mm 0,0 km/h (0 Bft) N 360 ° 0 min 0,000 mm 0,0 UV-I 0 W/m² 12,3 °C 16,8 °C 0,0 km/h (0 Bft)
01.09.2019 02:26 16,7 °C 76 % 1010,4 hPa 0,0 mm 0,0 km/h (0 Bft) N 360 ° 0 min 0,000 mm 0,0 UV-I 0 W/m² 12,4 °C 16,7 °C 0,0 km/h (0 Bft)
01.09.2019 02:27 16,7 °C 76 % 1010,5 hPa 0,0 mm 0,0 km/h (0 Bft) N 360 ° 0 min 0,000 mm 0,0 UV-I 0 W/m² 12,4 °C 16,7 °C 0,0 km/h (0 Bft)
01.09.2019 02:28 16,7 °C 75 % 1010,4 hPa 0,0 mm 0,0 km/h (0 Bft) N 360 ° 0 min 0,000 mm 0,0 UV-I 0 W/m² 12,2 °C 16,7 °C 0,0 km/h (0 Bft)
01.09.2019 02:29 16,8 °C 75 % 1010,4 hPa 0,0 mm 0,0 km/h (0 Bft) N 360 ° 0 min 0,000 mm 0,0 UV-I 0 W/m² 12,3 °C 16,8 °C 0,0 km/h (0 Bft)
01.09.2019 02:30 16,8 °C 74 % 1010,4 hPa 0,0 mm 0,0 km/h (0 Bft) N 360 ° 0 min 0,000 mm 0,0 UV-I 0 W/m² 12,1 °C 16,8 °C 0,0 km/h (0 Bft)
01.09.2019 02:31 16,9 °C 74 % 1010,4 hPa 0,0 mm 0,0 km/h (0 Bft) N 360 ° 0 min 0,000 mm 0,0 UV-I 0 W/m² 12,2 °C 16,9 °C 0,0 km/h (0 Bft)
01.09.2019 02:32 17,0 °C 73 % 1010,4 hPa 0,0 mm 0,0 km/h (0 Bft) N 360 ° 0 min 0,000 mm 0,0 UV-I 0 W/m² 12,1 °C 17,0 °C 0,0 km/h (0 Bft)
01.09.2019 02:33 17,1 °C 73 % 1010,4 hPa 0,0 mm 0,0 km/h (0 Bft) N 360 ° 0 min 0,000 mm 0,0 UV-I 0 W/m² 12,2 °C 17,1 °C 0,0 km/h (0 Bft)
01.09.2019 02:34 17,0 °C 74 % 1010,4 hPa 0,0 mm 0,0 km/h (0 Bft) N 360 ° 0 min 0,000 mm 0,0 UV-I 0 W/m² 12,3 °C 17,0 °C 0,0 km/h (0 Bft)
01.09.2019 02:35 16,9 °C 74 % 1010,4 hPa 0,0 mm 0,0 km/h (0 Bft) N 360 ° 0 min 0,000 mm 0,0 UV-I 0 W/m² 12,2 °C 16,9 °C 0,0 km/h (0 Bft)
01.09.2019 02:36 16,9 °C 74 % 1010,4 hPa 0,0 mm 0,0 km/h (0 Bft) N 360 ° 0 min 0,000 mm 0,0 UV-I 0 W/m² 12,2 °C 16,9 °C 0,0 km/h (0 Bft)
01.09.2019 02:37 16,9 °C 73 % 1010,3 hPa 0,0 mm 0,0 km/h (0 Bft) N 360 ° 0 min 0,000 mm 0,0 UV-I 0 W/m² 12,0 °C 16,9 °C 0,0 km/h (0 Bft)
01.09.2019 02:38 16,9 °C 73 % 1010,3 hPa 0,0 mm 0,0 km/h (0 Bft) N 360 ° 0 min 0,000 mm 0,0 UV-I 0 W/m² 12,0 °C 16,9 °C 0,0 km/h (0 Bft)
01.09.2019 02:39 16,9 °C 73 % 1010,3 hPa 0,0 mm 0,0 km/h (0 Bft) N 360 ° 0 min 0,000 mm 0,0 UV-I 0 W/m² 12,0 °C 16,9 °C 0,0 km/h (0 Bft)
01.09.2019 02:40 17,0 °C 73 % 1010,3 hPa 0,0 mm 0,0 km/h (0 Bft) N 360 ° 0 min 0,000 mm 0,0 UV-I 0 W/m² 12,1 °C 17,0 °C 0,0 km/h (0 Bft)
01.09.2019 02:41 17,0 °C 72 % 1010,4 hPa 0,0 mm 0,0 km/h (0 Bft) N 360 ° 0 min 0,000 mm 0,0 UV-I 0 W/m² 11,9 °C 17,0 °C 0,0 km/h (0 Bft)
01.09.2019 02:42 17,0 °C 72 % 1010,4 hPa 0,0 mm 0,0 km/h (0 Bft) N 360 ° 0 min 0,000 mm 0,0 UV-I 0 W/m² 11,9 °C 17,0 °C 0,0 km/h (0 Bft)
01.09.2019 02:43 17,0 °C 72 % 1010,4 hPa 0,0 mm 0,0 km/h (0 Bft) N 360 ° 0 min 0,000 mm 0,0 UV-I 0 W/m² 11,9 °C 17,0 °C 0,0 km/h (0 Bft)
01.09.2019 02:44 16,9 °C 73 % 1010,4 hPa 0,0 mm 0,0 km/h (0 Bft) N 360 ° 0 min 0,000 mm 0,0 UV-I 0 W/m² 12,0 °C 16,9 °C 0,0 km/h (0 Bft)
01.09.2019 02:45 16,9 °C 74 % 1010,3 hPa 0,0 mm 0,0 km/h (0 Bft) N 360 ° 0 min 0,000 mm 0,0 UV-I 0 W/m² 12,2 °C 16,9 °C 0,0 km/h (0 Bft)
01.09.2019 02:46 16,8 °C 73 % 1010,4 hPa 0,0 mm 0,0 km/h (0 Bft) N 360 ° 0 min 0,000 mm 0,0 UV-I 0 W/m² 11,9 °C 16,8 °C 0,0 km/h (0 Bft)
01.09.2019 02:47 16,8 °C 73 % 1010,4 hPa 0,0 mm 0,0 km/h (0 Bft) N 360 ° 0 min 0,000 mm 0,0 UV-I 0 W/m² 11,9 °C 16,8 °C 0,0 km/h (0 Bft)
01.09.2019 02:48 16,8 °C 74 % 1010,4 hPa 0,0 mm 0,0 km/h (0 Bft) N 360 ° 0 min 0,000 mm 0,0 UV-I 0 W/m² 12,1 °C 16,8 °C 0,0 km/h (0 Bft)
01.09.2019 02:49 16,8 °C 74 % 1010,4 hPa 0,0 mm 0,0 km/h (0 Bft) N 360 ° 0 min 0,000 mm 0,0 UV-I 0 W/m² 12,1 °C 16,8 °C 0,0 km/h (0 Bft)
01.09.2019 02:50 16,7 °C 73 % 1010,4 hPa 0,0 mm 0,0 km/h (0 Bft) N 360 ° 0 min 0,000 mm 0,0 UV-I 0 W/m² 11,8 °C 16,7 °C 0,0 km/h (0 Bft)
01.09.2019 02:51 16,7 °C 74 % 1010,4 hPa 0,0 mm 0,0 km/h (0 Bft) N 360 ° 0 min 0,000 mm 0,0 UV-I 0 W/m² 12,0 °C 16,7 °C 0,0 km/h (0 Bft)
01.09.2019 02:52 16,7 °C 76 % 1010,5 hPa 0,0 mm 0,0 km/h (0 Bft) N 360 ° 0 min 0,000 mm 0,0 UV-I 0 W/m² 12,4 °C 16,7 °C 0,0 km/h (0 Bft)
01.09.2019 02:53 16,6 °C 76 % 1010,4 hPa 0,0 mm 0,0 km/h (0 Bft) N 360 ° 0 min 0,000 mm 0,0 UV-I 0 W/m² 12,3 °C 16,6 °C 0,0 km/h (0 Bft)
01.09.2019 02:54 16,5 °C 75 % 1010,5 hPa 0,0 mm 0,0 km/h (0 Bft) N 360 ° 0 min 0,000 mm 0,0 UV-I 0 W/m² 12,1 °C 16,5 °C 0,0 km/h (0 Bft)
01.09.2019 02:55 16,4 °C 75 % 1010,5 hPa 0,0 mm 0,0 km/h (0 Bft) N 360 ° 0 min 0,000 mm 0,0 UV-I 0 W/m² 12,0 °C 16,4 °C 0,0 km/h (0 Bft)
01.09.2019 02:56 16,4 °C 75 % 1010,4 hPa 0,0 mm 0,0 km/h (0 Bft) N 360 ° 0 min 0,000 mm 0,0 UV-I 0 W/m² 12,0 °C 16,4 °C 0,0 km/h (0 Bft)
01.09.2019 02:57 16,3 °C 75 % 1010,4 hPa 0,0 mm 0,0 km/h (0 Bft) N 360 ° 0 min 0,000 mm 0,0 UV-I 0 W/m² 11,9 °C 16,3 °C 0,0 km/h (0 Bft)
01.09.2019 02:58 16,4 °C 75 % 1010,4 hPa 0,0 mm 0,0 km/h (0 Bft) N 360 ° 0 min 0,000 mm 0,0 UV-I 0 W/m² 12,0 °C 16,4 °C 0,0 km/h (0 Bft)
01.09.2019 02:59 16,3 °C 75 % 1010,4 hPa 0,0 mm 0,0 km/h (0 Bft) N 360 ° 0 min 0,000 mm 0,0 UV-I 0 W/m² 11,9 °C 16,3 °C 0,0 km/h (0 Bft)
01.09.2019 03:00 16,4 °C 75 % 1010,4 hPa 0,0 mm 0,0 km/h (0 Bft) N 360 ° 0 min 0,000 mm 0,0 UV-I 0 W/m² 12,0 °C 16,4 °C 0,0 km/h (0 Bft)
01.09.2019 03:01 16,3 °C 76 % 1010,4 hPa 0,0 mm 0,0 km/h (0 Bft) N 360 ° 0 min 0,025 mm 0,0 UV-I 0 W/m² 12,1 °C 16,3 °C 0,0 km/h (0 Bft)
01.09.2019 03:02 16,3 °C 77 % 1010,4 hPa 0,0 mm 0,0 km/h (0 Bft) N 360 ° 0 min 0,000 mm 0,0 UV-I 0 W/m² 12,3 °C 16,3 °C 0,0 km/h (0 Bft)
01.09.2019 03:03 16,3 °C 76 % 1010,4 hPa 0,0 mm 0,8 km/h (0 Bft) NW 318 ° 0 min 0,000 mm 0,0 UV-I 0 W/m² 12,1 °C 16,3 °C 3,2 km/h (1 Bft)
01.09.2019 03:04 16,3 °C 75 % 1010,4 hPa 0,0 mm 0,1 km/h (0 Bft) NW 318 ° 0 min 0,000 mm 0,0 UV-I 0 W/m² 11,9 °C 16,3 °C 1,6 km/h (1 Bft)
01.09.2019 03:05 16,3 °C 75 % 1010,4 hPa 0,0 mm 0,0 km/h (0 Bft) NW 318 ° 0 min 0,000 mm 0,0 UV-I 0 W/m² 11,9 °C 16,3 °C 0,0 km/h (0 Bft)
01.09.2019 03:06 16,3 °C 75 % 1010,5 hPa 0,0 mm 0,0 km/h (0 Bft) NW 318 ° 0 min 0,000 mm 0,0 UV-I 0 W/m² 11,9 °C 16,3 °C 0,0 km/h (0 Bft)
01.09.2019 03:07 16,3 °C 75 % 1010,4 hPa 0,0 mm 0,0 km/h (0 Bft) NW 318 ° 0 min 0,000 mm 0,0 UV-I 0 W/m² 11,9 °C 16,3 °C 0,0 km/h (0 Bft)
01.09.2019 03:08 16,3 °C 75 % 1010,4 hPa 0,0 mm 0,0 km/h (0 Bft) NW 318 ° 0 min 0,000 mm 0,0 UV-I 0 W/m² 11,9 °C 16,3 °C 0,0 km/h (0 Bft)
01.09.2019 03:09 16,3 °C 75 % 1010,4 hPa 0,0 mm 0,0 km/h (0 Bft) NW 319 ° 0 min 0,000 mm 0,0 UV-I 0 W/m² 11,9 °C 16,3 °C 0,0 km/h (0 Bft)
01.09.2019 03:10 16,3 °C 75 % 1010,4 hPa 0,0 mm 0,0 km/h (0 Bft) NW 319 ° 0 min 0,000 mm 0,0 UV-I 0 W/m² 11,9 °C 16,3 °C 0,0 km/h (0 Bft)
01.09.2019 03:11 16,3 °C 76 % 1010,4 hPa 0,0 mm 0,0 km/h (0 Bft) NW 319 ° 0 min 0,000 mm 0,0 UV-I 0 W/m² 12,1 °C 16,3 °C 0,0 km/h (0 Bft)
01.09.2019 03:12 16,2 °C 76 % 1010,5 hPa 0,0 mm 0,0 km/h (0 Bft) NW 319 ° 0 min 0,000 mm 0,0 UV-I 0 W/m² 12,0 °C 16,2 °C 0,0 km/h (0 Bft)
01.09.2019 03:13 16,1 °C 76 % 1010,5 hPa 0,0 mm 0,0 km/h (0 Bft) NW 319 ° 0 min 0,000 mm 0,0 UV-I 0 W/m² 11,9 °C 16,1 °C 0,0 km/h (0 Bft)
01.09.2019 03:14 16,1 °C 77 % 1010,5 hPa 0,0 mm 0,0 km/h (0 Bft) NW 319 ° 0 min 0,000 mm 0,0 UV-I 0 W/m² 12,1 °C 16,1 °C 0,0 km/h (0 Bft)
01.09.2019 03:15 16,1 °C 76 % 1010,5 hPa 0,0 mm 0,0 km/h (0 Bft) NW 319 ° 0 min 0,000 mm 0,0 UV-I 0 W/m² 11,9 °C 16,1 °C 0,0 km/h (0 Bft)
01.09.2019 03:16 16,0 °C 76 % 1010,5 hPa 0,0 mm 0,0 km/h (0 Bft) NW 319 ° 0 min 0,000 mm 0,0 UV-I 0 W/m² 11,8 °C 16,0 °C 0,0 km/h (0 Bft)
01.09.2019 03:17 16,0 °C 76 % 1010,5 hPa 0,0 mm 0,0 km/h (0 Bft) NW 319 ° 0 min 0,000 mm 0,0 UV-I 0 W/m² 11,8 °C 16,0 °C 0,0 km/h (0 Bft)
01.09.2019 03:18 16,0 °C 76 % 1010,5 hPa 0,0 mm 0,0 km/h (0 Bft) NW 319 ° 0 min 0,000 mm 0,0 UV-I 0 W/m² 11,8 °C 16,0 °C 0,0 km/h (0 Bft)
01.09.2019 03:19 16,0 °C 76 % 1010,5 hPa 0,0 mm 0,0 km/h (0 Bft) NW 319 ° 0 min 0,000 mm 0,0 UV-I 0 W/m² 11,8 °C 16,0 °C 0,0 km/h (0 Bft)
01.09.2019 03:20 16,0 °C 77 % 1010,5 hPa 0,0 mm 0,0 km/h (0 Bft) NW 319 ° 0 min 0,000 mm 0,0 UV-I 0 W/m² 12,0 °C 16,0 °C 0,0 km/h (0 Bft)
01.09.2019 03:21 16,1 °C 76 % 1010,5 hPa 0,0 mm 0,0 km/h (0 Bft) NW 319 ° 0 min 0,000 mm 0,0 UV-I 0 W/m² 11,9 °C 16,1 °C 0,0 km/h (0 Bft)
01.09.2019 03:22 16,1 °C 76 % 1010,4 hPa 0,0 mm 0,0 km/h (0 Bft) NW 319 ° 0 min 0,000 mm 0,0 UV-I 0 W/m² 11,9 °C 16,1 °C 0,0 km/h (0 Bft)
01.09.2019 03:23 16,1 °C 77 % 1010,4 hPa 0,0 mm 0,0 km/h (0 Bft) N 5 ° 0 min 0,000 mm 0,0 UV-I 0 W/m² 12,1 °C 16,1 °C 0,0 km/h (0 Bft)
01.09.2019 03:24 16,0 °C 78 % 1010,4 hPa 0,0 mm 0,0 km/h (0 Bft) N 5 ° 0 min 0,000 mm 0,0 UV-I 0 W/m² 12,2 °C 16,0 °C 0,0 km/h (0 Bft)
01.09.2019 03:25 15,9 °C 78 % 1010,4 hPa 0,0 mm 0,0 km/h (0 Bft) N 5 ° 0 min 0,000 mm 0,0 UV-I 0 W/m² 12,1 °C 15,9 °C 0,0 km/h (0 Bft)
01.09.2019 03:26 15,9 °C 78 % 1010,4 hPa 0,0 mm 0,0 km/h (0 Bft) N 5 ° 0 min 0,000 mm 0,0 UV-I 0 W/m² 12,1 °C 15,9 °C 0,0 km/h (0 Bft)
01.09.2019 03:27 15,8 °C 78 % 1010,4 hPa 0,0 mm 0,0 km/h (0 Bft) N 5 ° 0 min 0,000 mm 0,0 UV-I 0 W/m² 12,0 °C 15,8 °C 0,0 km/h (0 Bft)
01.09.2019 03:28 15,8 °C 78 % 1010,4 hPa 0,0 mm 0,0 km/h (0 Bft) N 5 ° 0 min 0,000 mm 0,0 UV-I 0 W/m² 12,0 °C 15,8 °C 0,0 km/h (0 Bft)
01.09.2019 03:29 15,8 °C 77 % 1010,4 hPa 0,0 mm 0,0 km/h (0 Bft) N 5 ° 0 min 0,000 mm 0,0 UV-I 0 W/m² 11,8 °C 15,8 °C 0,0 km/h (0 Bft)
01.09.2019 03:30 15,8 °C 77 % 1010,4 hPa 0,0 mm 0,0 km/h (0 Bft) N 5 ° 0 min 0,000 mm 0,0 UV-I 0 W/m² 11,8 °C 15,8 °C 0,0 km/h (0 Bft)
01.09.2019 03:31 15,7 °C 78 % 1010,3 hPa 0,0 mm 0,0 km/h (0 Bft) N 5 ° 0 min 0,000 mm 0,0 UV-I 0 W/m² 11,9 °C 15,7 °C 0,0 km/h (0 Bft)
01.09.2019 03:32 15,7 °C 78 % 1010,4 hPa 0,0 mm 0,0 km/h (0 Bft) N 5 ° 0 min 0,000 mm 0,0 UV-I 0 W/m² 11,9 °C 15,7 °C 0,0 km/h (0 Bft)
01.09.2019 03:33 15,7 °C 78 % 1010,5 hPa 0,0 mm 0,0 km/h (0 Bft) N 5 ° 0 min 0,000 mm 0,0 UV-I 0 W/m² 11,9 °C 15,7 °C 0,0 km/h (0 Bft)
01.09.2019 03:34 15,6 °C 78 % 1010,5 hPa 0,0 mm 0,0 km/h (0 Bft) N 5 ° 0 min 0,000 mm 0,0 UV-I 0 W/m² 11,8 °C 15,6 °C 0,0 km/h (0 Bft)
01.09.2019 03:35 15,7 °C 78 % 1010,5 hPa 0,0 mm 0,0 km/h (0 Bft) N 5 ° 0 min 0,000 mm 0,0 UV-I 0 W/m² 11,9 °C 15,7 °C 0,0 km/h (0 Bft)
01.09.2019 03:36 15,6 °C 78 % 1010,4 hPa 0,0 mm 0,0 km/h (0 Bft) N 5 ° 0 min 0,000 mm 0,0 UV-I 0 W/m² 11,8 °C 15,6 °C 0,0 km/h (0 Bft)
01.09.2019 03:37 15,6 °C 78 % 1010,5 hPa 0,0 mm 0,0 km/h (0 Bft) N 5 ° 0 min 0,000 mm 0,0 UV-I 0 W/m² 11,8 °C 15,6 °C 0,0 km/h (0 Bft)
01.09.2019 03:38 15,4 °C 79 % 1010,5 hPa 0,0 mm 0,0 km/h (0 Bft) N 5 ° 0 min 0,000 mm 0,0 UV-I 0 W/m² 11,8 °C 15,4 °C 0,0 km/h (0 Bft)
01.09.2019 03:39 15,4 °C 79 % 1010,5 hPa 0,0 mm 0,0 km/h (0 Bft) N 5 ° 0 min 0,000 mm 0,0 UV-I 0 W/m² 11,8 °C 15,4 °C 0,0 km/h (0 Bft)
01.09.2019 03:40 15,4 °C 78 % 1010,5 hPa 0,0 mm 0,0 km/h (0 Bft) N 5 ° 0 min 0,000 mm 0,0 UV-I 0 W/m² 11,6 °C 15,4 °C 0,0 km/h (0 Bft)
01.09.2019 03:41 15,4 °C 78 % 1010,5 hPa 0,0 mm 0,0 km/h (0 Bft) N 5 ° 0 min 0,000 mm 0,0 UV-I 0 W/m² 11,6 °C 15,4 °C 0,0 km/h (0 Bft)
01.09.2019 03:42 15,4 °C 79 % 1010,5 hPa 0,0 mm 0,0 km/h (0 Bft) N 5 ° 0 min 0,000 mm 0,0 UV-I 0 W/m² 11,8 °C 15,4 °C 0,0 km/h (0 Bft)
01.09.2019 03:43 15,4 °C 79 % 1010,5 hPa 0,0 mm 0,0 km/h (0 Bft) N 5 ° 0 min 0,000 mm 0,0 UV-I 0 W/m² 11,8 °C 15,4 °C 0,0 km/h (0 Bft)
01.09.2019 03:44 15,3 °C 79 % 1010,5 hPa 0,0 mm 0,0 km/h (0 Bft) N 5 ° 0 min 0,000 mm 0,0 UV-I 0 W/m² 11,7 °C 15,3 °C 0,0 km/h (0 Bft)
01.09.2019 03:45 15,3 °C 79 % 1010,6 hPa 0,0 mm 0,0 km/h (0 Bft) N 5 ° 0 min 0,000 mm 0,0 UV-I 0 W/m² 11,7 °C 15,3 °C 0,0 km/h (0 Bft)
01.09.2019 03:46 15,3 °C 79 % 1010,6 hPa 0,0 mm 0,0 km/h (0 Bft) N 5 ° 0 min 0,000 mm 0,0 UV-I 0 W/m² 11,7 °C 15,3 °C 0,0 km/h (0 Bft)
01.09.2019 03:47 15,3 °C 79 % 1010,6 hPa 0,0 mm 0,0 km/h (0 Bft) O 92 ° 0 min 0,000 mm 0,0 UV-I 0 W/m² 11,7 °C 15,3 °C 0,0 km/h (0 Bft)
01.09.2019 03:48 15,3 °C 80 % 1010,6 hPa 0,0 mm 0,0 km/h (0 Bft) O 92 ° 0 min 0,000 mm 0,0 UV-I 0 W/m² 11,9 °C 15,3 °C 0,0 km/h (0 Bft)
01.09.2019 03:49 15,3 °C 79 % 1010,5 hPa 0,0 mm 0,0 km/h (0 Bft) O 92 ° 0 min 0,000 mm 0,0 UV-I 0 W/m² 11,7 °C 15,3 °C 0,0 km/h (0 Bft)
01.09.2019 03:50 15,4 °C 79 % 1010,5 hPa 0,0 mm 0,0 km/h (0 Bft) O 92 ° 0 min 0,000 mm 0,0 UV-I 0 W/m² 11,8 °C 15,4 °C 0,0 km/h (0 Bft)
01.09.2019 03:51 15,4 °C 79 % 1010,5 hPa 0,0 mm 0,0 km/h (0 Bft) O 92 ° 0 min 0,000 mm 0,0 UV-I 0 W/m² 11,8 °C 15,4 °C 0,0 km/h (0 Bft)
01.09.2019 03:52 15,4 °C 79 % 1010,5 hPa 0,0 mm 0,0 km/h (0 Bft) O 92 ° 0 min 0,000 mm 0,0 UV-I 0 W/m² 11,8 °C 15,4 °C 0,0 km/h (0 Bft)
01.09.2019 03:53 15,3 °C 79 % 1010,5 hPa 0,0 mm 0,0 km/h (0 Bft) O 92 ° 0 min 0,000 mm 0,0 UV-I 0 W/m² 11,7 °C 15,3 °C 0,0 km/h (0 Bft)
01.09.2019 03:54 15,2 °C 80 % 1010,4 hPa 0,0 mm 0,0 km/h (0 Bft) O 92 ° 0 min 0,000 mm 0,0 UV-I 0 W/m² 11,8 °C 15,2 °C 0,0 km/h (0 Bft)
01.09.2019 03:55 15,2 °C 79 % 1010,4 hPa 0,0 mm 0,0 km/h (0 Bft) O 92 ° 0 min 0,000 mm 0,0 UV-I 0 W/m² 11,6 °C 15,2 °C 0,0 km/h (0 Bft)
01.09.2019 03:56 15,2 °C 79 % 1010,5 hPa 0,0 mm 0,0 km/h (0 Bft) O 92 ° 0 min 0,000 mm 0,0 UV-I 0 W/m² 11,6 °C 15,2 °C 0,0 km/h (0 Bft)
01.09.2019 03:57 15,2 °C 79 % 1010,4 hPa 0,0 mm 0,0 km/h (0 Bft) O 92 ° 0 min 0,000 mm 0,0 UV-I 0 W/m² 11,6 °C 15,2 °C 0,0 km/h (0 Bft)
01.09.2019 03:58 15,2 °C 79 % 1010,4 hPa 0,0 mm 0,0 km/h (0 Bft) O 92 ° 0 min 0,000 mm 0,0 UV-I 0 W/m² 11,6 °C 15,2 °C 0,0 km/h (0 Bft)
01.09.2019 03:59 15,2 °C 79 % 1010,5 hPa 0,0 mm 0,0 km/h (0 Bft) O 92 ° 0 min 0,000 mm 0,0 UV-I 0 W/m² 11,6 °C 15,2 °C 0,0 km/h (0 Bft)
01.09.2019 04:00 15,2 °C 79 % 1010,4 hPa 0,0 mm 0,0 km/h (0 Bft) O 92 ° 0 min 0,026 mm 0,0 UV-I 0 W/m² 11,6 °C 15,2 °C 0,0 km/h (0 Bft)
01.09.2019 04:01 15,2 °C 79 % 1010,4 hPa 0,0 mm 0,0 km/h (0 Bft) O 92 ° 0 min 0,000 mm 0,0 UV-I 0 W/m² 11,6 °C 15,2 °C 0,0 km/h (0 Bft)
01.09.2019 04:02 15,1 °C 79 % 1010,5 hPa 0,0 mm 0,0 km/h (0 Bft) O 92 ° 0 min 0,000 mm 0,0 UV-I 0 W/m² 11,5 °C 15,1 °C 0,0 km/h (0 Bft)
01.09.2019 04:03 15,1 °C 79 % 1010,5 hPa 0,0 mm 0,0 km/h (0 Bft) O 92 ° 0 min 0,000 mm 0,0 UV-I 0 W/m² 11,5 °C 15,1 °C 0,0 km/h (0 Bft)
01.09.2019 04:04 15,1 °C 79 % 1010,4 hPa 0,0 mm 0,0 km/h (0 Bft) O 92 ° 0 min 0,000 mm 0,0 UV-I 0 W/m² 11,5 °C 15,1 °C 0,0 km/h (0 Bft)
01.09.2019 04:05 15,1 °C 79 % 1010,4 hPa 0,0 mm 0,0 km/h (0 Bft) O 92 ° 0 min 0,000 mm 0,0 UV-I 0 W/m² 11,5 °C 15,1 °C 0,0 km/h (0 Bft)
01.09.2019 04:06 15,1 °C 79 % 1010,4 hPa 0,0 mm 0,0 km/h (0 Bft) O 92 ° 0 min 0,000 mm 0,0 UV-I 0 W/m² 11,5 °C 15,1 °C 0,0 km/h (0 Bft)
01.09.2019 04:07 15,0 °C 79 % 1010,4 hPa 0,0 mm 0,0 km/h (0 Bft) O 92 ° 0 min 0,000 mm 0,0 UV-I 0 W/m² 11,4 °C 15,0 °C 0,0 km/h (0 Bft)
01.09.2019 04:08 15,0 °C 79 % 1010,4 hPa 0,0 mm 0,0 km/h (0 Bft) O 92 ° 0 min 0,000 mm 0,0 UV-I 0 W/m² 11,4 °C 15,0 °C 0,0 km/h (0 Bft)
01.09.2019 04:09 14,9 °C 79 % 1010,4 hPa 0,0 mm 0,0 km/h (0 Bft) O 92 ° 0 min 0,000 mm 0,0 UV-I 0 W/m² 11,3 °C 14,9 °C 0,0 km/h (0 Bft)
01.09.2019 04:10 15,0 °C 79 % 1010,4 hPa 0,0 mm 0,0 km/h (0 Bft) O 92 ° 0 min 0,000 mm 0,0 UV-I 0 W/m² 11,4 °C 15,0 °C 0,0 km/h (0 Bft)
01.09.2019 04:11 15,0 °C 79 % 1010,4 hPa 0,0 mm 0,0 km/h (0 Bft) O 92 ° 0 min 0,000 mm 0,0 UV-I 0 W/m² 11,4 °C 15,0 °C 0,0 km/h (0 Bft)
01.09.2019 04:12 14,9 °C 79 % 1010,3 hPa 0,0 mm 0,0 km/h (0 Bft) O 92 ° 0 min 0,000 mm 0,0 UV-I 0 W/m² 11,3 °C 14,9 °C 0,0 km/h (0 Bft)
01.09.2019 04:13 14,9 °C 79 % 1010,3 hPa 0,0 mm 0,0 km/h (0 Bft) O 92 ° 0 min 0,000 mm 0,0 UV-I 0 W/m² 11,3 °C 14,9 °C 0,0 km/h (0 Bft)
01.09.2019 04:14 14,9 °C 79 % 1010,4 hPa 0,0 mm 0,0 km/h (0 Bft) O 92 ° 0 min 0,000 mm 0,0 UV-I 0 W/m² 11,3 °C 14,9 °C 0,0 km/h (0 Bft)
01.09.2019 04:15 14,8 °C 79 % 1010,4 hPa 0,0 mm 0,0 km/h (0 Bft) O 92 ° 0 min 0,000 mm 0,0 UV-I 0 W/m² 11,2 °C 14,8 °C 0,0 km/h (0 Bft)
01.09.2019 04:16 14,8 °C 79 % 1010,4 hPa 0,0 mm 0,0 km/h (0 Bft) O 92 ° 0 min 0,000 mm 0,0 UV-I 0 W/m² 11,2 °C 14,8 °C 0,0 km/h (0 Bft)
01.09.2019 04:17 14,8 °C 79 % 1010,4 hPa 0,0 mm 0,0 km/h (0 Bft) O 92 ° 0 min 0,000 mm 0,0 UV-I 0 W/m² 11,2 °C 14,8 °C 0,0 km/h (0 Bft)
01.09.2019 04:18 14,8 °C 80 % 1010,3 hPa 0,0 mm 0,0 km/h (0 Bft) O 92 ° 0 min 0,000 mm 0,0 UV-I 0 W/m² 11,4 °C 14,8 °C 0,0 km/h (0 Bft)
01.09.2019 04:19 14,8 °C 80 % 1010,4 hPa 0,0 mm 0,0 km/h (0 Bft) O 92 ° 0 min 0,000 mm 0,0 UV-I 0 W/m² 11,4 °C 14,8 °C 0,0 km/h (0 Bft)
01.09.2019 04:20 14,7 °C 80 % 1010,4 hPa 0,0 mm 0,0 km/h (0 Bft) O 92 ° 0 min 0,000 mm 0,0 UV-I 0 W/m² 11,3 °C 14,7 °C 0,0 km/h (0 Bft)
01.09.2019 04:21 14,7 °C 80 % 1010,3 hPa 0,0 mm 0,0 km/h (0 Bft) O 92 ° 0 min 0,000 mm 0,0 UV-I 0 W/m² 11,3 °C 14,7 °C 0,0 km/h (0 Bft)
01.09.2019 04:22 14,7 °C 80 % 1010,3 hPa 0,0 mm 0,0 km/h (0 Bft) O 92 ° 0 min 0,000 mm 0,0 UV-I 0 W/m² 11,3 °C 14,7 °C 0,0 km/h (0 Bft)
01.09.2019 04:23 14,7 °C 80 % 1010,3 hPa 0,0 mm 0,0 km/h (0 Bft) O 92 ° 0 min 0,000 mm 0,0 UV-I 0 W/m² 11,3 °C 14,7 °C 0,0 km/h (0 Bft)
01.09.2019 04:24 14,6 °C 80 % 1010,3 hPa 0,0 mm 0,0 km/h (0 Bft) O 92 ° 0 min 0,000 mm 0,0 UV-I 0 W/m² 11,2 °C 14,6 °C 0,0 km/h (0 Bft)
01.09.2019 04:25 14,5 °C 80 % 1010,3 hPa 0,0 mm 0,0 km/h (0 Bft) O 92 ° 0 min 0,000 mm 0,0 UV-I 0 W/m² 11,1 °C 14,5 °C 0,0 km/h (0 Bft)
01.09.2019 04:26 14,5 °C 80 % 1010,3 hPa 0,0 mm 0,0 km/h (0 Bft) O 92 ° 0 min 0,000 mm 0,0 UV-I 0 W/m² 11,1 °C 14,5 °C 0,0 km/h (0 Bft)
01.09.2019 04:27 14,6 °C 80 % 1010,3 hPa 0,0 mm 0,0 km/h (0 Bft) O 92 ° 0 min 0,000 mm 0,0 UV-I 0 W/m² 11,2 °C 14,6 °C 0,0 km/h (0 Bft)
01.09.2019 04:28 14,7 °C 80 % 1010,2 hPa 0,0 mm 0,0 km/h (0 Bft) O 92 ° 0 min 0,000 mm 0,0 UV-I 0 W/m² 11,3 °C 14,7 °C 0,0 km/h (0 Bft)
01.09.2019 04:29 14,8 °C 80 % 1010,3 hPa 0,0 mm 0,0 km/h (0 Bft) O 92 ° 0 min 0,000 mm 0,0 UV-I 0 W/m² 11,4 °C 14,8 °C 0,0 km/h (0 Bft)
01.09.2019 04:30 14,8 °C 80 % 1010,3 hPa 0,0 mm 0,0 km/h (0 Bft) O 92 ° 0 min 0,000 mm 0,0 UV-I 0 W/m² 11,4 °C 14,8 °C 0,0 km/h (0 Bft)
01.09.2019 04:31 14,7 °C 80 % 1010,2 hPa 0,0 mm 0,0 km/h (0 Bft) O 92 ° 0 min 0,000 mm 0,0 UV-I 0 W/m² 11,3 °C 14,7 °C 0,0 km/h (0 Bft)
01.09.2019 04:32 14,8 °C 79 % 1010,2 hPa 0,0 mm 0,0 km/h (0 Bft) O 92 ° 0 min 0,000 mm 0,0 UV-I 0 W/m² 11,2 °C 14,8 °C 0,0 km/h (0 Bft)
01.09.2019 04:33 14,8 °C 79 % 1010,2 hPa 0,0 mm 0,0 km/h (0 Bft) O 92 ° 0 min 0,000 mm 0,0 UV-I 0 W/m² 11,2 °C 14,8 °C 0,0 km/h (0 Bft)
01.09.2019 04:34 14,8 °C 79 % 1010,2 hPa 0,0 mm 0,0 km/h (0 Bft) O 92 ° 0 min 0,000 mm 0,0 UV-I 0 W/m² 11,2 °C 14,8 °C 0,0 km/h (0 Bft)
01.09.2019 04:35 14,8 °C 79 % 1010,2 hPa 0,0 mm 0,0 km/h (0 Bft) O 92 ° 0 min 0,000 mm 0,0 UV-I 0 W/m² 11,2 °C 14,8 °C 0,0 km/h (0 Bft)
01.09.2019 04:36 14,7 °C 79 % 1010,2 hPa 0,0 mm 0,0 km/h (0 Bft) O 92 ° 0 min 0,000 mm 0,0 UV-I 0 W/m² 11,1 °C 14,7 °C 0,0 km/h (0 Bft)
01.09.2019 04:37 14,6 °C 79 % 1010,2 hPa 0,0 mm 0,0 km/h (0 Bft) O 92 ° 0 min 0,000 mm 0,0 UV-I 0 W/m² 11,0 °C 14,6 °C 0,0 km/h (0 Bft)
01.09.2019 04:38 14,6 °C 79 % 1010,2 hPa 0,0 mm 0,0 km/h (0 Bft) O 92 ° 0 min 0,000 mm 0,0 UV-I 0 W/m² 11,0 °C 14,6 °C 0,0 km/h (0 Bft)
01.09.2019 04:39 14,6 °C 79 % 1010,2 hPa 0,0 mm 0,0 km/h (0 Bft) O 92 ° 0 min 0,000 mm 0,0 UV-I 0 W/m² 11,0 °C 14,6 °C 0,0 km/h (0 Bft)
01.09.2019 04:40 14,6 °C 80 % 1010,2 hPa 0,0 mm 0,0 km/h (0 Bft) O 92 ° 0 min 0,000 mm 0,0 UV-I 0 W/m² 11,2 °C 14,6 °C 0,0 km/h (0 Bft)
01.09.2019 04:41 14,6 °C 80 % 1010,2 hPa 0,0 mm 0,0 km/h (0 Bft) O 92 ° 0 min 0,000 mm 0,0 UV-I 0 W/m² 11,2 °C 14,6 °C 0,0 km/h (0 Bft)
01.09.2019 04:42 14,6 °C 80 % 1010,2 hPa 0,0 mm 0,0 km/h (0 Bft) O 92 ° 0 min 0,000 mm 0,0 UV-I 0 W/m² 11,2 °C 14,6 °C 0,0 km/h (0 Bft)
01.09.2019 04:43 14,6 °C 80 % 1010,2 hPa 0,0 mm 0,0 km/h (0 Bft) O 92 ° 0 min 0,000 mm 0,0 UV-I 0 W/m² 11,2 °C 14,6 °C 0,0 km/h (0 Bft)
01.09.2019 04:44 14,6 °C 80 % 1010,2 hPa 0,0 mm 0,0 km/h (0 Bft) O 92 ° 0 min 0,000 mm 0,0 UV-I 0 W/m² 11,2 °C 14,6 °C 0,0 km/h (0 Bft)
01.09.2019 04:45 14,5 °C 80 % 1010,2 hPa 0,0 mm 0,0 km/h (0 Bft) O 92 ° 0 min 0,000 mm 0,0 UV-I 0 W/m² 11,1 °C 14,5 °C 0,0 km/h (0 Bft)
01.09.2019 04:46 14,4 °C 80 % 1010,2 hPa 0,0 mm 0,0 km/h (0 Bft) O 92 ° 0 min 0,000 mm 0,0 UV-I 0 W/m² 11,0 °C 14,4 °C 0,0 km/h (0 Bft)
01.09.2019 04:47 14,4 °C 80 % 1010,1 hPa 0,0 mm 0,0 km/h (0 Bft) O 92 ° 0 min 0,000 mm 0,0 UV-I 0 W/m² 11,0 °C 14,4 °C 0,0 km/h (0 Bft)
01.09.2019 04:48 14,4 °C 80 % 1010,1 hPa 0,0 mm 0,0 km/h (0 Bft) O 92 ° 0 min 0,000 mm 0,0 UV-I 0 W/m² 11,0 °C 14,4 °C 0,0 km/h (0 Bft)
01.09.2019 04:49 14,4 °C 80 % 1010,2 hPa 0,0 mm 0,0 km/h (0 Bft) O 92 ° 0 min 0,000 mm 0,0 UV-I 0 W/m² 11,0 °C 14,4 °C 0,0 km/h (0 Bft)
01.09.2019 04:50 14,3 °C 80 % 1010,1 hPa 0,0 mm 0,0 km/h (0 Bft) O 92 ° 0 min 0,000 mm 0,0 UV-I 0 W/m² 10,9 °C 14,3 °C 0,0 km/h (0 Bft)
01.09.2019 04:51 14,4 °C 80 % 1010,2 hPa 0,0 mm 0,0 km/h (0 Bft) O 92 ° 0 min 0,000 mm 0,0 UV-I 0 W/m² 11,0 °C 14,4 °C 0,0 km/h (0 Bft)
01.09.2019 04:52 14,4 °C 80 % 1010,2 hPa 0,0 mm 0,0 km/h (0 Bft) O 92 ° 0 min 0,000 mm 0,0 UV-I 0 W/m² 11,0 °C 14,4 °C 0,0 km/h (0 Bft)
01.09.2019 04:53 14,4 °C 80 % 1010,2 hPa 0,0 mm 0,0 km/h (0 Bft) O 92 ° 0 min 0,000 mm 0,0 UV-I 0 W/m² 11,0 °C 14,4 °C 0,0 km/h (0 Bft)
01.09.2019 04:54 14,4 °C 80 % 1010,2 hPa 0,0 mm 0,0 km/h (0 Bft) O 92 ° 0 min 0,000 mm 0,0 UV-I 0 W/m² 11,0 °C 14,4 °C 0,0 km/h (0 Bft)
01.09.2019 04:55 14,4 °C 80 % 1010,1 hPa 0,0 mm 0,0 km/h (0 Bft) O 92 ° 0 min 0,000 mm 0,0 UV-I 0 W/m² 11,0 °C 14,4 °C 0,0 km/h (0 Bft)
01.09.2019 04:56 14,5 °C 80 % 1010,1 hPa 0,0 mm 0,0 km/h (0 Bft) O 92 ° 0 min 0,000 mm 0,0 UV-I 0 W/m² 11,1 °C 14,5 °C 0,0 km/h (0 Bft)
01.09.2019 04:57 14,5 °C 80 % 1010,1 hPa 0,0 mm 0,0 km/h (0 Bft) O 92 ° 0 min 0,000 mm 0,0 UV-I 0 W/m² 11,1 °C 14,5 °C 0,0 km/h (0 Bft)
01.09.2019 04:58 14,4 °C 80 % 1010,1 hPa 0,0 mm 0,0 km/h (0 Bft) O 92 ° 0 min 0,000 mm 0,0 UV-I 0 W/m² 11,0 °C 14,4 °C 0,0 km/h (0 Bft)
01.09.2019 04:59 14,3 °C 80 % 1010,1 hPa 0,0 mm 0,0 km/h (0 Bft) O 92 ° 0 min 0,000 mm 0,0 UV-I 0 W/m² 10,9 °C 14,3 °C 0,0 km/h (0 Bft)
01.09.2019 05:00 14,3 °C 81 % 1010,1 hPa 0,0 mm 0,0 km/h (0 Bft) O 92 ° 0 min 0,000 mm 0,0 UV-I 0 W/m² 11,1 °C 14,3 °C 0,0 km/h (0 Bft)
01.09.2019 05:01 14,2 °C 81 % 1010,1 hPa 0,0 mm 0,0 km/h (0 Bft) O 92 ° 0 min 0,025 mm 0,0 UV-I 0 W/m² 11,0 °C 14,2 °C 0,0 km/h (0 Bft)
01.09.2019 05:02 14,2 °C 81 % 1010,1 hPa 0,0 mm 0,0 km/h (0 Bft) O 92 ° 0 min 0,000 mm 0,0 UV-I 0 W/m² 11,0 °C 14,2 °C 0,0 km/h (0 Bft)
01.09.2019 05:03 14,2 °C 82 % 1010,1 hPa 0,0 mm 0,0 km/h (0 Bft) O 92 ° 0 min 0,000 mm 0,0 UV-I 0 W/m² 11,2 °C 14,2 °C 0,0 km/h (0 Bft)
01.09.2019 05:04 14,1 °C 81 % 1010,1 hPa 0,0 mm 0,0 km/h (0 Bft) O 92 ° 0 min 0,000 mm 0,0 UV-I 0 W/m² 10,9 °C 14,1 °C 0,0 km/h (0 Bft)
01.09.2019 05:05 14,1 °C 81 % 1010,1 hPa 0,0 mm 0,0 km/h (0 Bft) O 92 ° 0 min 0,000 mm 0,0 UV-I 0 W/m² 10,9 °C 14,1 °C 0,0 km/h (0 Bft)
01.09.2019 05:06 14,1 °C 82 % 1010,1 hPa 0,0 mm 0,0 km/h (0 Bft) O 92 ° 0 min 0,000 mm 0,0 UV-I 0 W/m² 11,1 °C 14,1 °C 0,0 km/h (0 Bft)
01.09.2019 05:07 14,1 °C 82 % 1010,1 hPa 0,0 mm 0,0 km/h (0 Bft) O 92 ° 0 min 0,000 mm 0,0 UV-I 0 W/m² 11,1 °C 14,1 °C 0,0 km/h (0 Bft)
01.09.2019 05:08 14,0 °C 82 % 1010,1 hPa 0,0 mm 0,0 km/h (0 Bft) O 92 ° 0 min 0,000 mm 0,0 UV-I 0 W/m² 11,0 °C 14,0 °C 0,0 km/h (0 Bft)
01.09.2019 05:09 13,9 °C 82 % 1010,1 hPa 0,0 mm 0,0 km/h (0 Bft) O 92 ° 0 min 0,000 mm 0,0 UV-I 0 W/m² 10,9 °C 13,9 °C 0,0 km/h (0 Bft)
01.09.2019 05:10 14,0 °C 82 % 1010,1 hPa 0,0 mm 0,0 km/h (0 Bft) O 92 ° 0 min 0,000 mm 0,0 UV-I 0 W/m² 11,0 °C 14,0 °C 0,0 km/h (0 Bft)
01.09.2019 05:11 13,9 °C 82 % 1010,1 hPa 0,0 mm 0,0 km/h (0 Bft) O 92 ° 0 min 0,000 mm 0,0 UV-I 0 W/m² 10,9 °C 13,9 °C 0,0 km/h (0 Bft)
01.09.2019 05:12 13,9 °C 82 % 1010,1 hPa 0,0 mm 0,0 km/h (0 Bft) O 92 ° 0 min 0,000 mm 0,0 UV-I 0 W/m² 10,9 °C 13,9 °C 0,0 km/h (0 Bft)
01.09.2019 05:13 13,8 °C 82 % 1010,1 hPa 0,0 mm 0,0 km/h (0 Bft) O 92 ° 0 min 0,000 mm 0,0 UV-I 0 W/m² 10,8 °C 13,8 °C 0,0 km/h (0 Bft)
01.09.2019 05:14 13,8 °C 82 % 1010,0 hPa 0,0 mm 0,0 km/h (0 Bft) O 92 ° 0 min 0,000 mm 0,0 UV-I 0 W/m² 10,8 °C 13,8 °C 0,0 km/h (0 Bft)
01.09.2019 05:15 13,8 °C 83 % 1010,1 hPa 0,0 mm 0,0 km/h (0 Bft) O 92 ° 0 min 0,000 mm 0,0 UV-I 0 W/m² 11,0 °C 13,8 °C 0,0 km/h (0 Bft)
01.09.2019 05:16 13,8 °C 83 % 1010,1 hPa 0,0 mm 0,0 km/h (0 Bft) O 92 ° 0 min 0,000 mm 0,0 UV-I 0 W/m² 11,0 °C 13,8 °C 0,0 km/h (0 Bft)
01.09.2019 05:17 13,8 °C 83 % 1010,1 hPa 0,0 mm 0,0 km/h (0 Bft) O 92 ° 0 min 0,000 mm 0,0 UV-I 0 W/m² 11,0 °C 13,8 °C 0,0 km/h (0 Bft)
01.09.2019 05:18 13,9 °C 83 % 1010,0 hPa 0,0 mm 0,0 km/h (0 Bft) O 92 ° 0 min 0,000 mm 0,0 UV-I 0 W/m² 11,1 °C 13,9 °C 0,0 km/h (0 Bft)
01.09.2019 05:19 13,9 °C 82 % 1010,1 hPa 0,0 mm 0,0 km/h (0 Bft) O 92 ° 0 min 0,000 mm 0,0 UV-I 0 W/m² 10,9 °C 13,9 °C 0,0 km/h (0 Bft)
01.09.2019 05:20 14,0 °C 82 % 1010,0 hPa 0,0 mm 0,0 km/h (0 Bft) O 92 ° 0 min 0,000 mm 0,0 UV-I 0 W/m² 11,0 °C 14,0 °C 0,0 km/h (0 Bft)
01.09.2019 05:21 14,1 °C 82 % 1009,9 hPa 0,0 mm 0,0 km/h (0 Bft) O 92 ° 0 min 0,000 mm 0,0 UV-I 0 W/m² 11,1 °C 14,1 °C 0,0 km/h (0 Bft)
01.09.2019 05:22 14,1 °C 82 % 1010,0 hPa 0,0 mm 0,0 km/h (0 Bft) O 92 ° 0 min 0,000 mm 0,0 UV-I 0 W/m² 11,1 °C 14,1 °C 0,0 km/h (0 Bft)
01.09.2019 05:23 14,1 °C 82 % 1010,0 hPa 0,0 mm 0,0 km/h (0 Bft) O 92 ° 0 min 0,000 mm 0,0 UV-I 0 W/m² 11,1 °C 14,1 °C 0,0 km/h (0 Bft)
01.09.2019 05:24 14,1 °C 82 % 1010,1 hPa 0,0 mm 0,0 km/h (0 Bft) O 92 ° 0 min 0,000 mm 0,0 UV-I 0 W/m² 11,1 °C 14,1 °C 0,0 km/h (0 Bft)
01.09.2019 05:25 14,1 °C 82 % 1010,1 hPa 0,0 mm 0,0 km/h (0 Bft) O 92 ° 0 min 0,000 mm 0,0 UV-I 0 W/m² 11,1 °C 14,1 °C 0,0 km/h (0 Bft)
01.09.2019 05:26 14,1 °C 81 % 1010,1 hPa 0,0 mm 0,0 km/h (0 Bft) O 92 ° 0 min 0,000 mm 0,0 UV-I 0 W/m² 10,9 °C 14,1 °C 0,0 km/h (0 Bft)
01.09.2019 05:27 14,2 °C 81 % 1010,1 hPa 0,0 mm 0,0 km/h (0 Bft) O 92 ° 0 min 0,000 mm 0,0 UV-I 0 W/m² 11,0 °C 14,2 °C 0,0 km/h (0 Bft)
01.09.2019 05:28 14,2 °C 81 % 1010,1 hPa 0,0 mm 0,0 km/h (0 Bft) O 91 ° 0 min 0,000 mm 0,0 UV-I 0 W/m² 11,0 °C 14,2 °C 0,0 km/h (0 Bft)
01.09.2019 05:29 14,2 °C 81 % 1010,1 hPa 0,0 mm 0,0 km/h (0 Bft) O 91 ° 0 min 0,000 mm 0,0 UV-I 0 W/m² 11,0 °C 14,2 °C 0,0 km/h (0 Bft)
01.09.2019 05:30 14,3 °C 80 % 1010,1 hPa 0,0 mm 0,0 km/h (0 Bft) O 91 ° 0 min 0,000 mm 0,0 UV-I 0 W/m² 10,9 °C 14,3 °C 0,0 km/h (0 Bft)
01.09.2019 05:31 14,3 °C 80 % 1010,1 hPa 0,0 mm 0,0 km/h (0 Bft) O 91 ° 0 min 0,000 mm 0,0 UV-I 0 W/m² 10,9 °C 14,3 °C 0,0 km/h (0 Bft)
01.09.2019 05:32 14,3 °C 80 % 1010,1 hPa 0,0 mm 0,0 km/h (0 Bft) O 91 ° 0 min 0,000 mm 0,0 UV-I 0 W/m² 10,9 °C 14,3 °C 0,0 km/h (0 Bft)
01.09.2019 05:33 14,4 °C 80 % 1010,2 hPa 0,0 mm 0,0 km/h (0 Bft) O 91 ° 0 min 0,000 mm 0,0 UV-I 0 W/m² 11,0 °C 14,4 °C 0,0 km/h (0 Bft)
01.09.2019 05:34 14,4 °C 80 % 1010,1 hPa 0,0 mm 0,0 km/h (0 Bft) O 91 ° 0 min 0,000 mm 0,0 UV-I 0 W/m² 11,0 °C 14,4 °C 0,0 km/h (0 Bft)
01.09.2019 05:35 14,4 °C 79 % 1010,2 hPa 0,0 mm 0,0 km/h (0 Bft) O 91 ° 0 min 0,000 mm 0,0 UV-I 0 W/m² 10,8 °C 14,4 °C 0,0 km/h (0 Bft)
01.09.2019 05:36 14,4 °C 79 % 1010,1 hPa 0,0 mm 0,0 km/h (0 Bft) O 91 ° 0 min 0,000 mm 0,0 UV-I 0 W/m² 10,8 °C 14,4 °C 0,0 km/h (0 Bft)
01.09.2019 05:37 14,4 °C 79 % 1010,1 hPa 0,0 mm 0,0 km/h (0 Bft) O 91 ° 0 min 0,000 mm 0,0 UV-I 0 W/m² 10,8 °C 14,4 °C 0,0 km/h (0 Bft)
01.09.2019 05:38 14,4 °C 80 % 1010,2 hPa 0,0 mm 0,0 km/h (0 Bft) O 91 ° 0 min 0,000 mm 0,0 UV-I 0 W/m² 11,0 °C 14,4 °C 0,0 km/h (0 Bft)
01.09.2019 05:39 14,3 °C 80 % 1010,2 hPa 0,0 mm 0,0 km/h (0 Bft) O 91 ° 0 min 0,000 mm 0,0 UV-I 0 W/m² 10,9 °C 14,3 °C 0,0 km/h (0 Bft)
01.09.2019 05:40 14,3 °C 79 % 1010,2 hPa 0,0 mm 0,0 km/h (0 Bft) O 91 ° 0 min 0,000 mm 0,0 UV-I 0 W/m² 10,7 °C 14,3 °C 0,0 km/h (0 Bft)
01.09.2019 05:41 14,3 °C 80 % 1010,1 hPa 0,0 mm 0,0 km/h (0 Bft) O 91 ° 0 min 0,000 mm 0,0 UV-I 0 W/m² 10,9 °C 14,3 °C 0,0 km/h (0 Bft)
01.09.2019 05:42 14,4 °C 80 % 1010,1 hPa 0,0 mm 0,0 km/h (0 Bft) O 91 ° 0 min 0,000 mm 0,0 UV-I 0 W/m² 11,0 °C 14,4 °C 0,0 km/h (0 Bft)
01.09.2019 05:43 14,4 °C 80 % 1010,2 hPa 0,0 mm 0,0 km/h (0 Bft) O 91 ° 0 min 0,000 mm 0,0 UV-I 0 W/m² 11,0 °C 14,4 °C 0,0 km/h (0 Bft)
01.09.2019 05:44 14,3 °C 80 % 1010,1 hPa 0,0 mm 0,0 km/h (0 Bft) O 91 ° 0 min 0,000 mm 0,0 UV-I 0 W/m² 10,9 °C 14,3 °C 0,0 km/h (0 Bft)
01.09.2019 05:45 14,3 °C 80 % 1010,2 hPa 0,0 mm 0,0 km/h (0 Bft) O 91 ° 0 min 0,000 mm 0,0 UV-I 0 W/m² 10,9 °C 14,3 °C 0,0 km/h (0 Bft)
01.09.2019 05:46 14,3 °C 80 % 1010,2 hPa 0,0 mm 0,0 km/h (0 Bft) O 91 ° 0 min 0,000 mm 0,0 UV-I 0 W/m² 10,9 °C 14,3 °C 0,0 km/h (0 Bft)
01.09.2019 05:47 14,2 °C 80 % 1010,2 hPa 0,0 mm 0,0 km/h (0 Bft) O 91 ° 0 min 0,000 mm 0,0 UV-I 0 W/m² 10,8 °C 14,2 °C 0,0 km/h (0 Bft)
01.09.2019 05:48 14,2 °C 80 % 1010,2 hPa 0,0 mm 0,0 km/h (0 Bft) O 91 ° 0 min 0,000 mm 0,0 UV-I 0 W/m² 10,8 °C 14,2 °C 0,0 km/h (0 Bft)
01.09.2019 05:49 14,2 °C 81 % 1010,2 hPa 0,0 mm 0,0 km/h (0 Bft) O 91 ° 0 min 0,000 mm 0,0 UV-I 0 W/m² 11,0 °C 14,2 °C 0,0 km/h (0 Bft)
01.09.2019 05:50 14,1 °C 81 % 1010,2 hPa 0,0 mm 0,0 km/h (0 Bft) O 91 ° 0 min 0,000 mm 0,0 UV-I 0 W/m² 10,9 °C 14,1 °C 0,0 km/h (0 Bft)
01.09.2019 05:51 14,1 °C 81 % 1010,2 hPa 0,0 mm 0,0 km/h (0 Bft) O 91 ° 0 min 0,000 mm 0,0 UV-I 0 W/m² 10,9 °C 14,1 °C 0,0 km/h (0 Bft)
01.09.2019 05:52 14,0 °C 81 % 1010,2 hPa 0,0 mm 0,0 km/h (0 Bft) O 91 ° 0 min 0,000 mm 0,0 UV-I 0 W/m² 10,8 °C 14,0 °C 0,0 km/h (0 Bft)
01.09.2019 05:53 14,0 °C 81 % 1010,1 hPa 0,0 mm 0,0 km/h (0 Bft) O 91 ° 0 min 0,000 mm 0,0 UV-I 0 W/m² 10,8 °C 14,0 °C 0,0 km/h (0 Bft)
01.09.2019 05:54 14,0 °C 82 % 1010,2 hPa 0,0 mm 0,0 km/h (0 Bft) O 91 ° 0 min 0,000 mm 0,0 UV-I 0 W/m² 11,0 °C 14,0 °C 0,0 km/h (0 Bft)
01.09.2019 05:55 13,9 °C 82 % 1010,2 hPa 0,0 mm 0,0 km/h (0 Bft) O 91 ° 0 min 0,000 mm 0,0 UV-I 0 W/m² 10,9 °C 13,9 °C 0,0 km/h (0 Bft)
01.09.2019 05:56 13,9 °C 82 % 1010,2 hPa 0,0 mm 0,0 km/h (0 Bft) O 91 ° 0 min 0,000 mm 0,0 UV-I 0 W/m² 10,9 °C 13,9 °C 0,0 km/h (0 Bft)
01.09.2019 05:57 13,9 °C 82 % 1010,2 hPa 0,0 mm 0,0 km/h (0 Bft) O 91 ° 0 min 0,000 mm 0,0 UV-I 0 W/m² 10,9 °C 13,9 °C 0,0 km/h (0 Bft)
01.09.2019 05:58 13,8 °C 82 % 1010,2 hPa 0,0 mm 0,0 km/h (0 Bft) O 91 ° 0 min 0,000 mm 0,0 UV-I 0 W/m² 10,8 °C 13,8 °C 0,0 km/h (0 Bft)
01.09.2019 05:59 13,8 °C 82 % 1010,2 hPa 0,0 mm 0,0 km/h (0 Bft) O 91 ° 0 min 0,000 mm 0,0 UV-I 0 W/m² 10,8 °C 13,8 °C 0,0 km/h (0 Bft)
01.09.2019 06:00 13,8 °C 83 % 1010,2 hPa 0,0 mm 0,0 km/h (0 Bft) O 91 ° 0 min 0,000 mm 0,0 UV-I 0 W/m² 11,0 °C 13,8 °C 0,0 km/h (0 Bft)
01.09.2019 06:01 13,8 °C 83 % 1010,2 hPa 0,0 mm 0,0 km/h (0 Bft) O 91 ° 0 min 0,025 mm 0,0 UV-I 0 W/m² 11,0 °C 13,8 °C 0,0 km/h (0 Bft)
01.09.2019 06:02 14,0 °C 83 % 1010,2 hPa 0,0 mm 0,0 km/h (0 Bft) O 91 ° 0 min 0,000 mm 0,0 UV-I 0 W/m² 11,2 °C 14,0 °C 0,0 km/h (0 Bft)
01.09.2019 06:03 14,1 °C 82 % 1010,2 hPa 0,0 mm 0,0 km/h (0 Bft) O 91 ° 0 min 0,000 mm 0,0 UV-I 0 W/m² 11,1 °C 14,1 °C 0,0 km/h (0 Bft)
01.09.2019 06:04 14,1 °C 82 % 1010,2 hPa 0,0 mm 0,0 km/h (0 Bft) N-NW 330 ° 0 min 0,000 mm 0,0 UV-I 0 W/m² 11,1 °C 14,1 °C 0,0 km/h (0 Bft)
01.09.2019 06:05 14,1 °C 82 % 1010,3 hPa 0,0 mm 0,0 km/h (0 Bft) N-NW 330 ° 0 min 0,000 mm 0,0 UV-I 0 W/m² 11,1 °C 14,1 °C 0,0 km/h (0 Bft)
01.09.2019 06:06 14,2 °C 81 % 1010,2 hPa 0,0 mm 0,0 km/h (0 Bft) SO 141 ° 0 min 0,000 mm 0,0 UV-I 0 W/m² 11,0 °C 14,2 °C 0,0 km/h (0 Bft)
01.09.2019 06:07 14,2 °C 81 % 1010,2 hPa 0,0 mm 0,0 km/h (0 Bft) SO 141 ° 0 min 0,000 mm 0,0 UV-I 0 W/m² 11,0 °C 14,2 °C 0,0 km/h (0 Bft)
01.09.2019 06:08 14,2 °C 81 % 1010,2 hPa 0,0 mm 0,0 km/h (0 Bft) SO 141 ° 0 min 0,000 mm 0,0 UV-I 0 W/m² 11,0 °C 14,2 °C 0,0 km/h (0 Bft)
01.09.2019 06:09 14,2 °C 81 % 1010,2 hPa 0,0 mm 0,0 km/h (0 Bft) SO 141 ° 0 min 0,000 mm 0,0 UV-I 0 W/m² 11,0 °C 14,2 °C 0,0 km/h (0 Bft)
01.09.2019 06:10 14,2 °C 81 % 1010,2 hPa 0,0 mm 0,0 km/h (0 Bft) SO 141 ° 0 min 0,000 mm 0,0 UV-I 0 W/m² 11,0 °C 14,2 °C 0,0 km/h (0 Bft)
01.09.2019 06:11 14,2 °C 80 % 1010,2 hPa 0,0 mm 0,0 km/h (0 Bft) SO 141 ° 0 min 0,000 mm 0,0 UV-I 0 W/m² 10,8 °C 14,2 °C 0,0 km/h (0 Bft)
01.09.2019 06:12 14,2 °C 80 % 1010,3 hPa 0,0 mm 0,0 km/h (0 Bft) SO 141 ° 0 min 0,000 mm 0,0 UV-I 0 W/m² 10,8 °C 14,2 °C 0,0 km/h (0 Bft)
01.09.2019 06:13 14,2 °C 80 % 1010,3 hPa 0,0 mm 0,0 km/h (0 Bft) SO 141 ° 0 min 0,000 mm 0,0 UV-I 0 W/m² 10,8 °C 14,2 °C 0,0 km/h (0 Bft)
01.09.2019 06:14 14,3 °C 80 % 1010,3 hPa 0,0 mm 0,0 km/h (0 Bft) SO 141 ° 0 min 0,000 mm 0,0 UV-I 0 W/m² 10,9 °C 14,3 °C 0,0 km/h (0 Bft)
01.09.2019 06:15 14,3 °C 80 % 1010,2 hPa 0,0 mm 0,0 km/h (0 Bft) SO 141 ° 0 min 0,000 mm 0,0 UV-I 0 W/m² 10,9 °C 14,3 °C 0,0 km/h (0 Bft)
01.09.2019 06:16 14,3 °C 80 % 1010,2 hPa 0,0 mm 0,0 km/h (0 Bft) SO 141 ° 0 min 0,000 mm 0,0 UV-I 0 W/m² 10,9 °C 14,3 °C 0,0 km/h (0 Bft)
01.09.2019 06:17 14,3 °C 80 % 1010,2 hPa 0,0 mm 0,0 km/h (0 Bft) SO 141 ° 0 min 0,000 mm 0,0 UV-I 0 W/m² 10,9 °C 14,3 °C 0,0 km/h (0 Bft)
01.09.2019 06:18 14,2 °C 80 % 1010,3 hPa 0,0 mm 0,0 km/h (0 Bft) SO 141 ° 0 min 0,000 mm 0,0 UV-I 0 W/m² 10,8 °C 14,2 °C 0,0 km/h (0 Bft)
01.09.2019 06:19 14,2 °C 81 % 1010,2 hPa 0,0 mm 0,0 km/h (0 Bft) SO 141 ° 0 min 0,000 mm 0,0 UV-I 0 W/m² 11,0 °C 14,2 °C 0,0 km/h (0 Bft)
01.09.2019 06:20 14,2 °C 81 % 1010,2 hPa 0,0 mm 0,0 km/h (0 Bft) SO 141 ° 0 min 0,000 mm 0,0 UV-I 0 W/m² 11,0 °C 14,2 °C 0,0 km/h (0 Bft)
01.09.2019 06:21 14,1 °C 81 % 1010,2 hPa 0,0 mm 0,0 km/h (0 Bft) SO 141 ° 0 min 0,000 mm 0,0 UV-I 0 W/m² 10,9 °C 14,1 °C 0,0 km/h (0 Bft)
01.09.2019 06:22 14,0 °C 81 % 1010,2 hPa 0,0 mm 0,0 km/h (0 Bft) SO 141 ° 0 min 0,000 mm 0,0 UV-I 0 W/m² 10,8 °C 14,0 °C 0,0 km/h (0 Bft)
01.09.2019 06:23 14,0 °C 81 % 1010,2 hPa 0,0 mm 0,0 km/h (0 Bft) SO 141 ° 0 min 0,000 mm 0,0 UV-I 0 W/m² 10,8 °C 14,0 °C 0,0 km/h (0 Bft)
01.09.2019 06:24 14,1 °C 81 % 1010,2 hPa 0,0 mm 0,0 km/h (0 Bft) SO 141 ° 0 min 0,000 mm 0,0 UV-I 0 W/m² 10,9 °C 14,1 °C 0,0 km/h (0 Bft)
01.09.2019 06:25 14,2 °C 80 % 1010,2 hPa 0,0 mm 0,0 km/h (0 Bft) SO 141 ° 0 min 0,000 mm 0,0 UV-I 0 W/m² 10,8 °C 14,2 °C 0,0 km/h (0 Bft)
01.09.2019 06:26 14,2 °C 81 % 1010,2 hPa 0,0 mm 0,0 km/h (0 Bft) SO 141 ° 0 min 0,000 mm 0,0 UV-I 0 W/m² 11,0 °C 14,2 °C 0,0 km/h (0 Bft)
01.09.2019 06:27 14,1 °C 81 % 1010,2 hPa 0,0 mm 0,0 km/h (0 Bft) SO 141 ° 0 min 0,000 mm 0,0 UV-I 0 W/m² 10,9 °C 14,1 °C 0,0 km/h (0 Bft)
01.09.2019 06:28 13,9 °C 82 % 1010,2 hPa 0,0 mm 0,0 km/h (0 Bft) SO 141 ° 0 min 0,000 mm 0,0 UV-I 0 W/m² 10,9 °C 13,9 °C 0,0 km/h (0 Bft)
01.09.2019 06:29 13,9 °C 82 % 1010,2 hPa 0,0 mm 0,0 km/h (0 Bft) SO 141 ° 0 min 0,000 mm 0,0 UV-I 0 W/m² 10,9 °C 13,9 °C 0,0 km/h (0 Bft)
01.09.2019 06:30 13,8 °C 82 % 1010,2 hPa 0,0 mm 0,0 km/h (0 Bft) SO 141 ° 0 min 0,000 mm 0,0 UV-I 0 W/m² 10,8 °C 13,8 °C 0,0 km/h (0 Bft)
01.09.2019 06:31 13,8 °C 82 % 1010,2 hPa 0,0 mm 0,0 km/h (0 Bft) SO 141 ° 0 min 0,000 mm 0,0 UV-I 0 W/m² 10,8 °C 13,8 °C 0,0 km/h (0 Bft)
01.09.2019 06:32 13,8 °C 82 % 1010,2 hPa 0,0 mm 0,0 km/h (0 Bft) SO 141 ° 0 min 0,000 mm 0,0 UV-I 0 W/m² 10,8 °C 13,8 °C 0,0 km/h (0 Bft)
01.09.2019 06:33 13,9 °C 82 % 1010,3 hPa 0,0 mm 0,0 km/h (0 Bft) SO 141 ° 0 min 0,000 mm 0,0 UV-I 0 W/m² 10,9 °C 13,9 °C 0,0 km/h (0 Bft)
01.09.2019 06:34 13,9 °C 82 % 1010,2 hPa 0,0 mm 0,0 km/h (0 Bft) SO 141 ° 0 min 0,000 mm 0,0 UV-I 0 W/m² 10,9 °C 13,9 °C 0,0 km/h (0 Bft)
01.09.2019 06:35 13,9 °C 82 % 1010,2 hPa 0,0 mm 0,0 km/h (0 Bft) SO 141 ° 0 min 0,000 mm 0,0 UV-I 0 W/m² 10,9 °C 13,9 °C 0,0 km/h (0 Bft)
01.09.2019 06:36 13,8 °C 83 % 1010,2 hPa 0,0 mm 0,0 km/h (0 Bft) SO 141 ° 0 min 0,000 mm 0,0 UV-I 5 W/m² 11,0 °C 13,8 °C 0,0 km/h (0 Bft)
01.09.2019 06:37 13,8 °C 83 % 1010,2 hPa 0,0 mm 0,0 km/h (0 Bft) SO 141 ° 0 min 0,000 mm 0,0 UV-I 5 W/m² 11,0 °C 13,8 °C 0,0 km/h (0 Bft)
01.09.2019 06:38 13,8 °C 83 % 1010,2 hPa 0,0 mm 0,0 km/h (0 Bft) SO 141 ° 0 min 0,000 mm 0,0 UV-I 5 W/m² 11,0 °C 13,8 °C 0,0 km/h (0 Bft)
01.09.2019 06:39 13,7 °C 83 % 1010,2 hPa 0,0 mm 0,0 km/h (0 Bft) SO 141 ° 0 min 0,000 mm 0,0 UV-I 5 W/m² 10,9 °C 13,7 °C 0,0 km/h (0 Bft)
01.09.2019 06:40 13,7 °C 83 % 1010,2 hPa 0,0 mm 0,0 km/h (0 Bft) SO 141 ° 0 min 0,000 mm 0,0 UV-I 5 W/m² 10,9 °C 13,7 °C 0,0 km/h (0 Bft)
01.09.2019 06:41 13,7 °C 83 % 1010,2 hPa 0,0 mm 0,0 km/h (0 Bft) SO 141 ° 0 min 0,000 mm 0,0 UV-I 5 W/m² 10,9 °C 13,7 °C 0,0 km/h (0 Bft)
01.09.2019 06:42 13,7 °C 83 % 1010,2 hPa 0,0 mm 0,0 km/h (0 Bft) SO 141 ° 0 min 0,000 mm 0,0 UV-I 7 W/m² 10,9 °C 13,7 °C 0,0 km/h (0 Bft)
01.09.2019 06:43 13,7 °C 84 % 1010,2 hPa 0,0 mm 0,0 km/h (0 Bft) SO 141 ° 0 min 0,000 mm 0,0 UV-I 7 W/m² 11,0 °C 13,7 °C 0,0 km/h (0 Bft)
01.09.2019 06:44 13,7 °C 83 % 1010,2 hPa 0,0 mm 0,0 km/h (0 Bft) SO 141 ° 0 min 0,000 mm 0,0 UV-I 7 W/m² 10,9 °C 13,7 °C 0,0 km/h (0 Bft)
01.09.2019 06:45 13,7 °C 84 % 1010,2 hPa 0,0 mm 0,0 km/h (0 Bft) SO 141 ° 0 min 0,000 mm 0,0 UV-I 7 W/m² 11,0 °C 13,7 °C 0,0 km/h (0 Bft)
01.09.2019 06:46 13,8 °C 84 % 1010,2 hPa 0,0 mm 0,0 km/h (0 Bft) SO 141 ° 0 min 0,000 mm 0,0 UV-I 9 W/m² 11,1 °C 13,8 °C 0,0 km/h (0 Bft)
01.09.2019 06:47 13,8 °C 84 % 1010,2 hPa 0,0 mm 0,0 km/h (0 Bft) SO 141 ° 0 min 0,000 mm 0,0 UV-I 9 W/m² 11,1 °C 13,8 °C 0,0 km/h (0 Bft)
01.09.2019 06:48 13,8 °C 84 % 1010,2 hPa 0,0 mm 0,0 km/h (0 Bft) SO 141 ° 0 min 0,000 mm 0,0 UV-I 11 W/m² 11,1 °C 13,8 °C 0,0 km/h (0 Bft)
01.09.2019 06:49 13,7 °C 84 % 1010,2 hPa 0,0 mm 0,0 km/h (0 Bft) SO 141 ° 0 min 0,000 mm 0,0 UV-I 11 W/m² 11,0 °C 13,7 °C 0,0 km/h (0 Bft)
01.09.2019 06:50 13,7 °C 84 % 1010,2 hPa 0,0 mm 0,0 km/h (0 Bft) SO 142 ° 0 min 0,000 mm 0,0 UV-I 12 W/m² 11,0 °C 13,7 °C 0,0 km/h (0 Bft)
01.09.2019 06:51 13,7 °C 84 % 1010,2 hPa 0,0 mm 0,0 km/h (0 Bft) SO 142 ° 0 min 0,000 mm 0,0 UV-I 12 W/m² 11,0 °C 13,7 °C 0,0 km/h (0 Bft)
01.09.2019 06:52 13,7 °C 84 % 1010,2 hPa 0,0 mm 0,0 km/h (0 Bft) SO 142 ° 0 min 0,000 mm 0,0 UV-I 14 W/m² 11,0 °C 13,7 °C 0,0 km/h (0 Bft)
01.09.2019 06:53 13,7 °C 84 % 1010,2 hPa 0,0 mm 0,0 km/h (0 Bft) SO 142 ° 0 min 0,000 mm 0,0 UV-I 18 W/m² 11,0 °C 13,7 °C 0,0 km/h (0 Bft)
01.09.2019 06:54 13,8 °C 84 % 1010,2 hPa 0,0 mm 0,0 km/h (0 Bft) SO 142 ° 0 min 0,000 mm 0,0 UV-I 19 W/m² 11,1 °C 13,8 °C 0,0 km/h (0 Bft)
01.09.2019 06:55 13,8 °C 84 % 1010,2 hPa 0,0 mm 0,0 km/h (0 Bft) SO 142 ° 0 min 0,000 mm 0,0 UV-I 21 W/m² 11,1 °C 13,8 °C 0,0 km/h (0 Bft)
01.09.2019 06:56 13,9 °C 84 % 1010,2 hPa 0,0 mm 0,0 km/h (0 Bft) SO 142 ° 0 min 0,000 mm 0,0 UV-I 23 W/m² 11,2 °C 13,9 °C 0,0 km/h (0 Bft)
01.09.2019 06:57 14,0 °C 83 % 1010,3 hPa 0,0 mm 0,3 km/h (0 Bft) W 279 ° 0 min 0,000 mm 0,0 UV-I 25 W/m² 11,2 °C 14,0 °C 1,6 km/h (1 Bft)
01.09.2019 06:58 14,1 °C 83 % 1010,3 hPa 0,0 mm 0,2 km/h (0 Bft) W 279 ° 0 min 0,000 mm 0,0 UV-I 25 W/m² 11,3 °C 14,1 °C 1,6 km/h (1 Bft)
01.09.2019 06:59 14,1 °C 83 % 1010,3 hPa 0,0 mm 0,1 km/h (0 Bft) W 279 ° 0 min 0,000 mm 0,0 UV-I 28 W/m² 11,3 °C 14,1 °C 1,6 km/h (1 Bft)
01.09.2019 07:00 14,2 °C 82 % 1010,4 hPa 0,0 mm 0,0 km/h (0 Bft) W 279 ° 0 min 0,000 mm 0,0 UV-I 30 W/m² 11,2 °C 14,2 °C 0,0 km/h (0 Bft)
01.09.2019 07:01 14,2 °C 83 % 1010,4 hPa 0,0 mm 0,0 km/h (0 Bft) W 279 ° 0 min 0,000 mm 0,0 UV-I 32 W/m² 11,4 °C 14,2 °C 0,0 km/h (0 Bft)
01.09.2019 07:02 14,2 °C 83 % 1010,5 hPa 0,0 mm 0,0 km/h (0 Bft) W 279 ° 0 min 0,000 mm 0,0 UV-I 33 W/m² 11,4 °C 14,2 °C 0,0 km/h (0 Bft)
01.09.2019 07:03 14,2 °C 83 % 1010,4 hPa 0,0 mm 0,0 km/h (0 Bft) W 279 ° 0 min 0,000 mm 0,0 UV-I 33 W/m² 11,4 °C 14,2 °C 0,0 km/h (0 Bft)
01.09.2019 07:04 14,3 °C 82 % 1010,3 hPa 0,0 mm 0,0 km/h (0 Bft) W 279 ° 0 min 0,000 mm 0,0 UV-I 35 W/m² 11,3 °C 14,3 °C 0,0 km/h (0 Bft)
01.09.2019 07:05 14,4 °C 82 % 1010,3 hPa 0,0 mm 0,0 km/h (0 Bft) W 279 ° 0 min 0,000 mm 0,0 UV-I 39 W/m² 11,4 °C 14,4 °C 0,0 km/h (0 Bft)
01.09.2019 07:06 14,4 °C 83 % 1010,3 hPa 0,0 mm 0,0 km/h (0 Bft) W 279 ° 0 min 0,000 mm 0,0 UV-I 39 W/m² 11,5 °C 14,4 °C 0,0 km/h (0 Bft)
01.09.2019 07:07 14,5 °C 83 % 1010,3 hPa 0,0 mm 0,0 km/h (0 Bft) W 279 ° 0 min 0,000 mm 0,0 UV-I 42 W/m² 11,6 °C 14,5 °C 0,0 km/h (0 Bft)
01.09.2019 07:08 14,4 °C 83 % 1010,4 hPa 0,0 mm 0,0 km/h (0 Bft) W 279 ° 0 min 0,000 mm 0,0 UV-I 44 W/m² 11,5 °C 14,4 °C 0,0 km/h (0 Bft)
01.09.2019 07:09 14,4 °C 82 % 1010,3 hPa 0,0 mm 0,0 km/h (0 Bft) W 279 ° 0 min 0,000 mm 0,0 UV-I 46 W/m² 11,4 °C 14,4 °C 0,0 km/h (0 Bft)
01.09.2019 07:10 14,5 °C 82 % 1010,4 hPa 0,0 mm 0,0 km/h (0 Bft) W 279 ° 0 min 0,000 mm 0,0 UV-I 46 W/m² 11,5 °C 14,5 °C 0,0 km/h (0 Bft)
01.09.2019 07:11 14,6 °C 82 % 1010,4 hPa 0,0 mm 0,0 km/h (0 Bft) W 279 ° 0 min 0,000 mm 0,0 UV-I 46 W/m² 11,6 °C 14,6 °C 0,0 km/h (0 Bft)
01.09.2019 07:12 14,6 °C 82 % 1010,4 hPa 0,0 mm 0,0 km/h (0 Bft) W 279 ° 0 min 0,000 mm 0,0 UV-I 46 W/m² 11,6 °C 14,6 °C 0,0 km/h (0 Bft)
01.09.2019 07:13 14,6 °C 82 % 1010,4 hPa 0,0 mm 0,0 km/h (0 Bft) W 279 ° 0 min 0,000 mm 0,0 UV-I 44 W/m² 11,6 °C 14,6 °C 0,0 km/h (0 Bft)
01.09.2019 07:14 14,6 °C 82 % 1010,4 hPa 0,0 mm 0,0 km/h (0 Bft) W 279 ° 0 min 0,000 mm 0,0 UV-I 44 W/m² 11,6 °C 14,6 °C 0,0 km/h (0 Bft)
01.09.2019 07:15 14,6 °C 82 % 1010,4 hPa 0,0 mm 0,0 km/h (0 Bft) W 279 ° 0 min 0,000 mm 0,0 UV-I 44 W/m² 11,6 °C 14,6 °C 0,0 km/h (0 Bft)
01.09.2019 07:16 14,6 °C 83 % 1010,4 hPa 0,0 mm 0,0 km/h (0 Bft) W 279 ° 0 min 0,000 mm 0,0 UV-I 42 W/m² 11,7 °C 14,6 °C 0,0 km/h (0 Bft)
01.09.2019 07:17 14,6 °C 83 % 1010,5 hPa 0,0 mm 0,0 km/h (0 Bft) W 279 ° 0 min 0,000 mm 0,0 UV-I 42 W/m² 11,7 °C 14,6 °C 0,0 km/h (0 Bft)
01.09.2019 07:18 14,6 °C 83 % 1010,5 hPa 0,0 mm 0,0 km/h (0 Bft) W 279 ° 0 min 0,000 mm 0,0 UV-I 42 W/m² 11,7 °C 14,6 °C 0,0 km/h (0 Bft)
01.09.2019 07:19 14,6 °C 83 % 1010,5 hPa 0,0 mm 0,0 km/h (0 Bft) W 279 ° 0 min 0,000 mm 0,0 UV-I 42 W/m² 11,7 °C 14,6 °C 0,0 km/h (0 Bft)
01.09.2019 07:20 14,6 °C 82 % 1010,5 hPa 0,0 mm 0,0 km/h (0 Bft) W 279 ° 0 min 0,000 mm 0,0 UV-I 44 W/m² 11,6 °C 14,6 °C 0,0 km/h (0 Bft)
01.09.2019 07:21 14,7 °C 82 % 1010,5 hPa 0,0 mm 0,0 km/h (0 Bft) W 279 ° 0 min 0,000 mm 0,0 UV-I 46 W/m² 11,7 °C 14,7 °C 0,0 km/h (0 Bft)
01.09.2019 07:22 14,7 °C 82 % 1010,5 hPa 0,0 mm 0,0 km/h (0 Bft) W 279 ° 0 min 0,000 mm 0,0 UV-I 47 W/m² 11,7 °C 14,7 °C 0,0 km/h (0 Bft)
01.09.2019 07:23 14,7 °C 82 % 1010,5 hPa 0,0 mm 0,0 km/h (0 Bft) W 279 ° 0 min 0,000 mm 0,0 UV-I 49 W/m² 11,7 °C 14,7 °C 0,0 km/h (0 Bft)
01.09.2019 07:24 14,7 °C 83 % 1010,4 hPa 0,0 mm 0,0 km/h (0 Bft) W 279 ° 0 min 0,000 mm 0,0 UV-I 51 W/m² 11,8 °C 14,7 °C 0,0 km/h (0 Bft)
01.09.2019 07:25 14,7 °C 83 % 1010,4 hPa 0,0 mm 0,0 km/h (0 Bft) W 279 ° 0 min 0,000 mm 0,0 UV-I 53 W/m² 11,8 °C 14,7 °C 0,0 km/h (0 Bft)
01.09.2019 07:26 14,7 °C 83 % 1010,5 hPa 0,0 mm 0,0 km/h (0 Bft) W 279 ° 0 min 0,000 mm 0,0 UV-I 56 W/m² 11,8 °C 14,7 °C 0,0 km/h (0 Bft)
01.09.2019 07:27 14,7 °C 83 % 1010,6 hPa 0,0 mm 0,0 km/h (0 Bft) W 279 ° 0 min 0,000 mm 0,0 UV-I 60 W/m² 11,8 °C 14,7 °C 0,0 km/h (0 Bft)
01.09.2019 07:28 14,7 °C 83 % 1010,6 hPa 0,0 mm 0,0 km/h (0 Bft) W 279 ° 0 min 0,000 mm 0,0 UV-I 67 W/m² 11,8 °C 14,7 °C 0,0 km/h (0 Bft)
01.09.2019 07:29 14,7 °C 83 % 1010,5 hPa 0,0 mm 0,0 km/h (0 Bft) W 279 ° 0 min 0,000 mm 0,0 UV-I 69 W/m² 11,8 °C 14,7 °C 0,0 km/h (0 Bft)
01.09.2019 07:30 14,7 °C 83 % 1010,6 hPa 0,0 mm 0,0 km/h (0 Bft) W 279 ° 0 min 0,000 mm 0,0 UV-I 70 W/m² 11,8 °C 14,7 °C 0,0 km/h (0 Bft)
01.09.2019 07:31 14,8 °C 82 % 1010,6 hPa 0,0 mm 0,0 km/h (0 Bft) W 279 ° 0 min 0,000 mm 0,0 UV-I 74 W/m² 11,8 °C 14,8 °C 0,0 km/h (0 Bft)
01.09.2019 07:32 14,8 °C 83 % 1010,7 hPa 0,0 mm 0,0 km/h (0 Bft) W 279 ° 0 min 0,000 mm 0,0 UV-I 76 W/m² 11,9 °C 14,8 °C 0,0 km/h (0 Bft)
01.09.2019 07:33 14,9 °C 83 % 1010,6 hPa 0,0 mm 0,0 km/h (0 Bft) W 279 ° 0 min 0,000 mm 0,0 UV-I 77 W/m² 12,0 °C 14,9 °C 0,0 km/h (0 Bft)
01.09.2019 07:34 15,0 °C 84 % 1010,7 hPa 0,0 mm 0,0 km/h (0 Bft) W 279 ° 0 min 0,000 mm 0,0 UV-I 81 W/m² 12,3 °C 15,0 °C 0,0 km/h (0 Bft)
01.09.2019 07:35 15,2 °C 84 % 1010,8 hPa 0,0 mm 3,4 km/h (1 Bft) W 279 ° 0 min 0,000 mm 0,0 UV-I 84 W/m² 12,5 °C 15,2 °C 4,8 km/h (1 Bft)
01.09.2019 07:36 15,3 °C 84 % 1010,8 hPa 0,0 mm 5,4 km/h (1 Bft) W-NW 293 ° 0 min 0,000 mm 0,0 UV-I 84 W/m² 12,6 °C 15,3 °C 8,0 km/h (2 Bft)
01.09.2019 07:37 15,3 °C 84 % 1011,0 hPa 0,0 mm 5,2 km/h (1 Bft) W-SW 251 ° 0 min 0,000 mm 0,0 UV-I 84 W/m² 12,6 °C 15,3 °C 9,7 km/h (2 Bft)
01.09.2019 07:38 15,4 °C 83 % 1011,0 hPa 0,0 mm 1,5 km/h (1 Bft) W-SW 254 ° 0 min 0,000 mm 0,0 UV-I 83 W/m² 12,5 °C 15,4 °C 6,4 km/h (2 Bft)
01.09.2019 07:39 15,6 °C 80 % 1011,0 hPa 0,0 mm 0,0 km/h (0 Bft) S 190 ° 0 min 0,000 mm 0,0 UV-I 81 W/m² 12,2 °C 15,6 °C 0,0 km/h (0 Bft)
01.09.2019 07:40 15,7 °C 81 % 1011,0 hPa 0,0 mm 1,5 km/h (1 Bft) SW 229 ° 0 min 0,000 mm 0,0 UV-I 81 W/m² 12,4 °C 15,7 °C 4,8 km/h (1 Bft)
01.09.2019 07:41 15,8 °C 79 % 1010,9 hPa 0,0 mm 2,3 km/h (1 Bft) S-SW 192 ° 0 min 0,000 mm 0,0 UV-I 83 W/m² 12,2 °C 15,8 °C 6,4 km/h (2 Bft)
01.09.2019 07:42 15,9 °C 79 % 1010,9 hPa 0,0 mm 3,0 km/h (1 Bft) S-SO 161 ° 0 min 0,000 mm 0,0 UV-I 84 W/m² 12,3 °C 15,9 °C 6,4 km/h (2 Bft)
01.09.2019 07:43 16,0 °C 80 % 1010,9 hPa 0,0 mm 2,5 km/h (1 Bft) SO 146 ° 0 min 0,000 mm 0,0 UV-I 86 W/m² 12,5 °C 16,0 °C 6,4 km/h (2 Bft)
01.09.2019 07:44 16,1 °C 80 % 1010,9 hPa 0,0 mm 2,1 km/h (1 Bft) SW 236 ° 0 min 0,000 mm 0,0 UV-I 86 W/m² 12,6 °C 16,1 °C 4,8 km/h (1 Bft)
01.09.2019 07:45 16,1 °C 79 % 1010,9 hPa 0,0 mm 1,5 km/h (1 Bft) S 178 ° 0 min 0,000 mm 0,0 UV-I 88 W/m² 12,5 °C 16,1 °C 3,2 km/h (1 Bft)
01.09.2019 07:46 16,3 °C 77 % 1010,9 hPa 0,0 mm 0,0 km/h (0 Bft) S 178 ° 0 min 0,000 mm 0,0 UV-I 88 W/m² 12,3 °C 16,3 °C 0,0 km/h (0 Bft)
01.09.2019 07:47 16,4 °C 78 % 1010,8 hPa 0,0 mm 0,1 km/h (0 Bft) S 177 ° 0 min 0,000 mm 0,0 UV-I 93 W/m² 12,6 °C 16,4 °C 1,6 km/h (1 Bft)
01.09.2019 07:48 16,6 °C 79 % 1010,8 hPa 0,0 mm 1,5 km/h (1 Bft) SW 225 ° 0 min 0,000 mm 0,0 UV-I 102 W/m² 12,9 °C 16,6 °C 6,4 km/h (2 Bft)
01.09.2019 07:49 16,7 °C 78 % 1010,8 hPa 0,0 mm 0,3 km/h (0 Bft) SW 228 ° 0 min 0,000 mm 0,0 UV-I 107 W/m² 12,8 °C 16,7 °C 1,6 km/h (1 Bft)
01.09.2019 07:50 16,8 °C 77 % 1010,8 hPa 0,0 mm 3,5 km/h (1 Bft) W 280 ° 0 min 0,000 mm 0,0 UV-I 104 W/m² 12,7 °C 16,8 °C 11,3 km/h (2 Bft)
01.09.2019 07:51 16,9 °C 76 % 1010,8 hPa 0,0 mm 3,4 km/h (1 Bft) S 190 ° 0 min 0,000 mm 0,0 UV-I 104 W/m² 12,6 °C 16,9 °C 6,4 km/h (2 Bft)
01.09.2019 07:52 17,2 °C 75 % 1010,8 hPa 0,0 mm 0,6 km/h (0 Bft) S 190 ° 0 min 0,000 mm 0,0 UV-I 107 W/m² 12,7 °C 17,2 °C 1,6 km/h (1 Bft)
01.09.2019 07:53 17,3 °C 76 % 1010,8 hPa 0,0 mm 0,2 km/h (0 Bft) SW 233 ° 0 min 0,000 mm 0,0 UV-I 105 W/m² 13,0 °C 17,3 °C 1,6 km/h (1 Bft)
01.09.2019 07:54 17,4 °C 75 % 1010,8 hPa 0,0 mm 0,9 km/h (0 Bft) W 265 ° 0 min 0,000 mm 0,0 UV-I 111 W/m² 12,9 °C 17,4 °C 3,2 km/h (1 Bft)
01.09.2019 07:55 17,6 °C 76 % 1010,8 hPa 0,0 mm 0,7 km/h (0 Bft) W 281 ° 0 min 0,000 mm 0,0 UV-I 130 W/m² 13,3 °C 17,6 °C 4,8 km/h (1 Bft)
01.09.2019 07:56 17,6 °C 75 % 1010,8 hPa 0,0 mm 3,4 km/h (1 Bft) SW 222 ° 0 min 0,000 mm 0,0 UV-I 158 W/m² 13,1 °C 17,6 °C 6,4 km/h (2 Bft)
01.09.2019 07:57 17,6 °C 76 % 1010,7 hPa 0,0 mm 1,1 km/h (1 Bft) W-SW 239 ° 0 min 0,000 mm 0,0 UV-I 163 W/m² 13,3 °C 17,6 °C 4,8 km/h (1 Bft)
01.09.2019 07:58 17,6 °C 76 % 1010,8 hPa 0,0 mm 0,0 km/h (0 Bft) W-SW 240 ° 0 min 0,000 mm 0,0 UV-I 95 W/m² 13,3 °C 17,6 °C 0,0 km/h (0 Bft)
01.09.2019 07:59 17,6 °C 76 % 1010,8 hPa 0,0 mm 2,5 km/h (1 Bft) W-SW 258 ° 0 min 0,000 mm 0,0 UV-I 77 W/m² 13,3 °C 17,6 °C 8,0 km/h (2 Bft)
01.09.2019 08:00 17,6 °C 76 % 1010,8 hPa 0,0 mm 0,7 km/h (0 Bft) W-SW 257 ° 0 min 0,000 mm 0,0 UV-I 76 W/m² 13,3 °C 17,6 °C 3,2 km/h (1 Bft)
01.09.2019 08:01 17,6 °C 76 % 1010,7 hPa 0,0 mm 0,0 km/h (0 Bft) W-SW 257 ° 0 min 0,051 mm 0,0 UV-I 76 W/m² 13,3 °C 17,6 °C 0,0 km/h (0 Bft)
01.09.2019 08:02 17,6 °C 77 % 1010,8 hPa 0,0 mm 0,0 km/h (0 Bft) W-SW 257 ° 0 min 0,000 mm 0,0 UV-I 76 W/m² 13,5 °C 17,6 °C 0,0 km/h (0 Bft)
01.09.2019 08:03 17,7 °C 75 % 1010,8 hPa 0,0 mm 0,0 km/h (0 Bft) W-SW 258 ° 0 min 0,000 mm 0,0 UV-I 76 W/m² 13,2 °C 17,7 °C 0,0 km/h (0 Bft)
01.09.2019 08:04 17,7 °C 76 % 1010,8 hPa 0,0 mm 0,0 km/h (0 Bft) W-SW 258 ° 0 min 0,000 mm 0,0 UV-I 72 W/m² 13,4 °C 17,7 °C 0,0 km/h (0 Bft)
01.09.2019 08:05 17,8 °C 73 % 1010,8 hPa 0,0 mm 0,0 km/h (0 Bft) W-SW 258 ° 0 min 0,000 mm 0,0 UV-I 72 W/m² 12,9 °C 17,8 °C 0,0 km/h (0 Bft)
01.09.2019 08:06 17,9 °C 74 % 1010,8 hPa 0,0 mm 1,3 km/h (1 Bft) W 274 ° 0 min 0,000 mm 0,0 UV-I 72 W/m² 13,2 °C 17,9 °C 4,8 km/h (1 Bft)
01.09.2019 08:07 18,0 °C 75 % 1010,8 hPa 0,0 mm 1,7 km/h (1 Bft) W 274 ° 0 min 0,000 mm 0,0 UV-I 72 W/m² 13,5 °C 18,0 °C 3,2 km/h (1 Bft)
01.09.2019 08:08 18,0 °C 74 % 1010,8 hPa 0,0 mm 2,1 km/h (1 Bft) W 271 ° 0 min 0,000 mm 0,5 UV-I 72 W/m² 13,3 °C 18,0 °C 4,8 km/h (1 Bft)
01.09.2019 08:09 18,1 °C 73 % 1010,8 hPa 0,0 mm 1,0 km/h (0 Bft) W 270 ° 0 min 0,000 mm 0,5 UV-I 74 W/m² 13,2 °C 18,1 °C 3,2 km/h (1 Bft)
01.09.2019 08:10 18,1 °C 72 % 1010,8 hPa 0,0 mm 2,6 km/h (1 Bft) SW 217 ° 0 min 0,000 mm 0,5 UV-I 76 W/m² 13,0 °C 18,1 °C 4,8 km/h (1 Bft)
01.09.2019 08:11 18,1 °C 72 % 1010,8 hPa 0,0 mm 0,5 km/h (0 Bft) W-SW 240 ° 0 min 0,000 mm 0,5 UV-I 77 W/m² 13,0 °C 18,1 °C 4,8 km/h (1 Bft)
01.09.2019 08:12 18,1 °C 73 % 1010,8 hPa 0,0 mm 3,1 km/h (1 Bft) SW 229 ° 0 min 0,000 mm 0,5 UV-I 77 W/m² 13,2 °C 18,1 °C 6,4 km/h (2 Bft)
01.09.2019 08:13 18,1 °C 72 % 1010,8 hPa 0,0 mm 0,0 km/h (0 Bft) SW 229 ° 0 min 0,000 mm 0,5 UV-I 79 W/m² 13,0 °C 18,1 °C 0,0 km/h (0 Bft)
01.09.2019 08:14 18,2 °C 72 % 1010,7 hPa 0,0 mm 0,0 km/h (0 Bft) SW 229 ° 0 min 0,000 mm 0,5 UV-I 79 W/m² 13,1 °C 18,2 °C 0,0 km/h (0 Bft)
01.09.2019 08:15 18,2 °C 74 % 1010,7 hPa 0,0 mm 2,0 km/h (1 Bft) W-SW 258 ° 0 min 0,000 mm 0,6 UV-I 79 W/m² 13,5 °C 18,2 °C 4,8 km/h (1 Bft)
01.09.2019 08:16 18,1 °C 72 % 1010,7 hPa 0,0 mm 0,6 km/h (0 Bft) W-SW 258 ° 0 min 0,000 mm 0,6 UV-I 81 W/m² 13,0 °C 18,1 °C 1,6 km/h (1 Bft)
01.09.2019 08:17 18,2 °C 72 % 1010,8 hPa 0,0 mm 0,3 km/h (0 Bft) W-SW 258 ° 0 min 0,000 mm 0,6 UV-I 81 W/m² 13,1 °C 18,2 °C 1,6 km/h (1 Bft)
01.09.2019 08:18 18,2 °C 73 % 1010,7 hPa 0,0 mm 3,8 km/h (1 Bft) W 270 ° 0 min 0,000 mm 0,6 UV-I 81 W/m² 13,3 °C 18,2 °C 6,4 km/h (2 Bft)
01.09.2019 08:19 18,1 °C 75 % 1010,8 hPa 0,0 mm 3,9 km/h (1 Bft) W 267 ° 0 min 0,000 mm 0,6 UV-I 81 W/m² 13,6 °C 18,1 °C 6,4 km/h (2 Bft)
01.09.2019 08:20 18,1 °C 74 % 1010,8 hPa 0,0 mm 3,2 km/h (1 Bft) W 269 ° 0 min 0,000 mm 0,6 UV-I 83 W/m² 13,4 °C 18,1 °C 6,4 km/h (2 Bft)
01.09.2019 08:21 17,9 °C 75 % 1010,8 hPa 0,0 mm 1,3 km/h (1 Bft) W 271 ° 0 min 0,000 mm 0,6 UV-I 86 W/m² 13,4 °C 17,9 °C 3,2 km/h (1 Bft)
01.09.2019 08:22 17,9 °C 74 % 1010,8 hPa 0,0 mm 0,6 km/h (0 Bft) W 271 ° 0 min 0,000 mm 0,7 UV-I 88 W/m² 13,2 °C 17,9 °C 1,6 km/h (1 Bft)
01.09.2019 08:23 17,8 °C 75 % 1010,9 hPa 0,0 mm 0,4 km/h (0 Bft) S-SW 200 ° 0 min 0,000 mm 0,7 UV-I 91 W/m² 13,3 °C 17,8 °C 3,2 km/h (1 Bft)
01.09.2019 08:24 17,8 °C 74 % 1010,9 hPa 0,0 mm 4,6 km/h (1 Bft) S 187 ° 0 min 0,000 mm 0,7 UV-I 97 W/m² 13,1 °C 17,8 °C 8,0 km/h (2 Bft)
01.09.2019 08:25 17,8 °C 72 % 1010,8 hPa 0,0 mm 4,5 km/h (1 Bft) S-SW 206 ° 0 min 0,000 mm 0,7 UV-I 102 W/m² 12,7 °C 17,8 °C 8,0 km/h (2 Bft)
01.09.2019 08:26 17,8 °C 71 % 1010,8 hPa 0,0 mm 3,4 km/h (1 Bft) W-SW 237 ° 0 min 0,000 mm 0,7 UV-I 105 W/m² 12,5 °C 17,8 °C 6,4 km/h (2 Bft)
01.09.2019 08:27 17,9 °C 71 % 1010,8 hPa 0,0 mm 2,2 km/h (1 Bft) S-SW 199 ° 0 min 0,000 mm 0,7 UV-I 111 W/m² 12,6 °C 17,9 °C 6,4 km/h (2 Bft)
01.09.2019 08:28 17,9 °C 70 % 1010,8 hPa 0,0 mm 5,1 km/h (1 Bft) S-SW 192 ° 0 min 0,000 mm 0,8 UV-I 113 W/m² 12,3 °C 17,9 °C 11,3 km/h (2 Bft)
01.09.2019 08:29 18,0 °C 70 % 1010,8 hPa 0,0 mm 2,9 km/h (1 Bft) S-SO 156 ° 0 min 0,000 mm 0,8 UV-I 113 W/m² 12,4 °C 18,0 °C 4,8 km/h (1 Bft)
01.09.2019 08:30 18,1 °C 70 % 1010,8 hPa 0,0 mm 3,4 km/h (1 Bft) W-SW 256 ° 0 min 0,000 mm 0,8 UV-I 113 W/m² 12,5 °C 18,1 °C 6,4 km/h (2 Bft)
01.09.2019 08:31 18,1 °C 71 % 1010,8 hPa 0,0 mm 2,0 km/h (1 Bft) S 178 ° 0 min 0,000 mm 0,8 UV-I 111 W/m² 12,8 °C 18,1 °C 6,4 km/h (2 Bft)
01.09.2019 08:32 18,1 °C 71 % 1010,8 hPa 0,0 mm 1,6 km/h (1 Bft) SW 215 ° 0 min 0,000 mm 0,8 UV-I 111 W/m² 12,8 °C 18,1 °C 3,2 km/h (1 Bft)
01.09.2019 08:33 18,2 °C 70 % 1010,8 hPa 0,0 mm 1,6 km/h (1 Bft) W 267 ° 0 min 0,000 mm 0,8 UV-I 111 W/m² 12,6 °C 18,2 °C 4,8 km/h (1 Bft)
01.09.2019 08:34 18,2 °C 71 % 1010,7 hPa 0,0 mm 4,2 km/h (1 Bft) S 182 ° 0 min 0,000 mm 0,8 UV-I 113 W/m² 12,9 °C 18,2 °C 8,0 km/h (2 Bft)
01.09.2019 08:35 18,2 °C 71 % 1010,8 hPa 0,0 mm 0,9 km/h (0 Bft) S-SW 196 ° 0 min 0,000 mm 0,8 UV-I 113 W/m² 12,9 °C 18,2 °C 4,8 km/h (1 Bft)
01.09.2019 08:36 18,1 °C 73 % 1010,7 hPa 0,0 mm 0,0 km/h (0 Bft) S-SW 196 ° 0 min 0,000 mm 0,8 UV-I 114 W/m² 13,2 °C 18,1 °C 0,0 km/h (0 Bft)
01.09.2019 08:37 17,9 °C 75 % 1010,7 hPa 0,0 mm 0,0 km/h (0 Bft) S-SW 196 ° 0 min 0,000 mm 0,8 UV-I 116 W/m² 13,4 °C 17,9 °C 0,0 km/h (0 Bft)
01.09.2019 08:38 17,8 °C 74 % 1010,7 hPa 0,0 mm 0,0 km/h (0 Bft) S-SW 195 ° 0 min 0,000 mm 0,8 UV-I 116 W/m² 13,1 °C 17,8 °C 0,0 km/h (0 Bft)
01.09.2019 08:39 17,8 °C 75 % 1010,7 hPa 0,0 mm 0,0 km/h (0 Bft) S-SW 198 ° 0 min 0,000 mm 0,9 UV-I 118 W/m² 13,3 °C 17,8 °C 0,0 km/h (0 Bft)
01.09.2019 08:40 17,9 °C 73 % 1010,7 hPa 0,0 mm 0,0 km/h (0 Bft) S-SW 198 ° 0 min 0,000 mm 0,9 UV-I 116 W/m² 13,0 °C 17,9 °C 0,0 km/h (0 Bft)
01.09.2019 08:41 17,9 °C 75 % 1010,7 hPa 0,0 mm 1,8 km/h (1 Bft) S-SW 192 ° 0 min 0,000 mm 0,9 UV-I 118 W/m² 13,4 °C 17,9 °C 4,8 km/h (1 Bft)
01.09.2019 08:42 17,8 °C 77 % 1010,7 hPa 0,0 mm 0,5 km/h (0 Bft) S-SW 192 ° 0 min 0,000 mm 0,9 UV-I 120 W/m² 13,7 °C 17,8 °C 3,2 km/h (1 Bft)
01.09.2019 08:43 17,7 °C 79 % 1010,7 hPa 0,0 mm 0,0 km/h (0 Bft) S-SW 192 ° 0 min 0,000 mm 0,9 UV-I 121 W/m² 14,0 °C 17,7 °C 0,0 km/h (0 Bft)
01.09.2019 08:44 17,6 °C 79 % 1010,7 hPa 0,0 mm 0,3 km/h (0 Bft) SW 214 ° 0 min 0,000 mm 0,9 UV-I 125 W/m² 13,9 °C 17,6 °C 1,6 km/h (1 Bft)
01.09.2019 08:45 17,6 °C 78 % 1010,7 hPa 0,0 mm 0,0 km/h (0 Bft) S-SW 213 ° 0 min 0,000 mm 1,0 UV-I 134 W/m² 13,7 °C 17,6 °C 0,0 km/h (0 Bft)
01.09.2019 08:46 17,6 °C 78 % 1010,7 hPa 0,0 mm 0,0 km/h (0 Bft) S-SW 213 ° 0 min 0,000 mm 1,0 UV-I 141 W/m² 13,7 °C 17,6 °C 0,0 km/h (0 Bft)
01.09.2019 08:47 17,7 °C 78 % 1010,8 hPa 0,0 mm 0,0 km/h (0 Bft) SW 214 ° 0 min 0,000 mm 1,0 UV-I 148 W/m² 13,8 °C 17,7 °C 0,0 km/h (0 Bft)
01.09.2019 08:48 17,7 °C 79 % 1010,8 hPa 0,0 mm 0,0 km/h (0 Bft) SW 214 ° 0 min 0,000 mm 1,1 UV-I 155 W/m² 14,0 °C 17,7 °C 0,0 km/h (0 Bft)
01.09.2019 08:49 17,8 °C 78 % 1010,8 hPa 0,0 mm 0,7 km/h (0 Bft) SW 215 ° 0 min 0,000 mm 1,1 UV-I 163 W/m² 13,9 °C 17,8 °C 3,2 km/h (1 Bft)
01.09.2019 08:50 17,9 °C 77 % 1010,9 hPa 0,0 mm 1,1 km/h (1 Bft) W-NW 302 ° 0 min 0,000 mm 1,1 UV-I 174 W/m² 13,8 °C 17,9 °C 3,2 km/h (1 Bft)
01.09.2019 08:51 18,1 °C 75 % 1010,9 hPa 0,0 mm 0,1 km/h (0 Bft) W-NW 302 ° 0 min 0,000 mm 1,1 UV-I 190 W/m² 13,6 °C 18,1 °C 1,6 km/h (1 Bft)
01.09.2019 08:52 18,1 °C 76 % 1010,9 hPa 0,0 mm 3,1 km/h (1 Bft) W-SW 252 ° 0 min 0,000 mm 1,2 UV-I 199 W/m² 13,8 °C 18,1 °C 4,8 km/h (1 Bft)
01.09.2019 08:53 18,2 °C 77 % 1011,0 hPa 0,0 mm 2,5 km/h (1 Bft) W-SW 252 ° 0 min 0,000 mm 1,2 UV-I 207 W/m² 14,1 °C 18,2 °C 4,8 km/h (1 Bft)
01.09.2019 08:54 18,2 °C 78 % 1011,0 hPa 0,0 mm 4,2 km/h (1 Bft) W 261 ° 0 min 0,000 mm 1,3 UV-I 255 W/m² 14,3 °C 18,2 °C 6,4 km/h (2 Bft)
01.09.2019 08:55 18,2 °C 78 % 1011,0 hPa 0,0 mm 5,4 km/h (1 Bft) W-NW 286 ° 0 min 0,000 mm 1,3 UV-I 218 W/m² 14,3 °C 18,2 °C 6,4 km/h (2 Bft)
01.09.2019 08:56 18,2 °C 78 % 1011,1 hPa 0,0 mm 3,5 km/h (1 Bft) W 270 ° 0 min 0,000 mm 1,3 UV-I 234 W/m² 14,3 °C 18,2 °C 6,4 km/h (2 Bft)
01.09.2019 08:57 18,2 °C 78 % 1011,1 hPa 0,0 mm 2,0 km/h (1 Bft) W 281 ° 0 min 0,000 mm 1,3 UV-I 221 W/m² 14,3 °C 18,2 °C 4,8 km/h (1 Bft)
01.09.2019 08:58 18,2 °C 78 % 1011,1 hPa 0,0 mm 0,9 km/h (0 Bft) W-SW 242 ° 0 min 0,000 mm 1,3 UV-I 223 W/m² 14,3 °C 18,2 °C 3,2 km/h (1 Bft)
01.09.2019 08:59 18,2 °C 79 % 1011,1 hPa 0,0 mm 1,2 km/h (1 Bft) W 259 ° 0 min 0,000 mm 1,3 UV-I 227 W/m² 14,5 °C 18,2 °C 3,2 km/h (1 Bft)
01.09.2019 09:00 18,3 °C 75 % 1011,1 hPa 0,0 mm 0,9 km/h (0 Bft) S-SW 194 ° 0 min 0,000 mm 1,3 UV-I 236 W/m² 13,8 °C 18,3 °C 4,8 km/h (1 Bft)
01.09.2019 09:01 18,3 °C 75 % 1011,1 hPa 0,0 mm 1,4 km/h (1 Bft) S-SW 194 ° 0 min 0,076 mm 1,3 UV-I 232 W/m² 13,8 °C 18,3 °C 4,8 km/h (1 Bft)
01.09.2019 09:02 18,4 °C 74 % 1011,1 hPa 0,0 mm 5,1 km/h (1 Bft) S-SW 196 ° 0 min 0,000 mm 1,3 UV-I 223 W/m² 13,7 °C 18,4 °C 6,4 km/h (2 Bft)
01.09.2019 09:03 18,4 °C 75 % 1011,1 hPa 0,0 mm 1,8 km/h (1 Bft) S 189 ° 0 min 0,000 mm 1,3 UV-I 239 W/m² 13,9 °C 18,4 °C 4,8 km/h (1 Bft)
01.09.2019 09:04 18,5 °C 73 % 1011,1 hPa 0,0 mm 0,1 km/h (0 Bft) S 189 ° 0 min 0,000 mm 1,3 UV-I 264 W/m² 13,6 °C 18,5 °C 1,6 km/h (1 Bft)
01.09.2019 09:05 18,5 °C 75 % 1011,1 hPa 0,0 mm 0,1 km/h (0 Bft) S 189 ° 0 min 0,000 mm 1,3 UV-I 214 W/m² 14,0 °C 18,5 °C 1,6 km/h (1 Bft)
01.09.2019 09:06 18,5 °C 76 % 1011,1 hPa 0,0 mm 0,5 km/h (0 Bft) S 189 ° 0 min 0,000 mm 1,3 UV-I 211 W/m² 14,2 °C 18,5 °C 3,2 km/h (1 Bft)
01.09.2019 09:07 18,4 °C 75 % 1011,1 hPa 0,0 mm 1,1 km/h (1 Bft) S 190 ° 0 min 0,000 mm 1,3 UV-I 209 W/m² 13,9 °C 18,4 °C 4,8 km/h (1 Bft)
01.09.2019 09:08 18,5 °C 74 % 1011,1 hPa 0,0 mm 0,6 km/h (0 Bft) S 190 ° 0 min 0,000 mm 1,3 UV-I 206 W/m² 13,8 °C 18,5 °C 3,2 km/h (1 Bft)
01.09.2019 09:09 18,6 °C 74 % 1011,1 hPa 0,0 mm 0,1 km/h (0 Bft) S 190 ° 0 min 0,000 mm 1,2 UV-I 195 W/m² 13,9 °C 18,6 °C 1,6 km/h (1 Bft)
01.09.2019 09:10 18,7 °C 74 % 1011,1 hPa 0,0 mm 0,0 km/h (0 Bft) S 190 ° 0 min 0,000 mm 1,2 UV-I 188 W/m² 14,0 °C 18,7 °C 0,0 km/h (0 Bft)
01.09.2019 09:11 18,8 °C 74 % 1011,1 hPa 0,0 mm 0,4 km/h (0 Bft) W-NW 290 ° 0 min 0,000 mm 1,2 UV-I 186 W/m² 14,1 °C 18,8 °C 3,2 km/h (1 Bft)
01.09.2019 09:12 18,9 °C 77 % 1011,2 hPa 0,0 mm 0,7 km/h (0 Bft) W-NW 290 ° 0 min 0,000 mm 1,2 UV-I 236 W/m² 14,8 °C 18,9 °C 3,2 km/h (1 Bft)
01.09.2019 09:13 18,9 °C 75 % 1011,2 hPa 0,0 mm 3,1 km/h (1 Bft) W 269 ° 0 min 0,000 mm 1,2 UV-I 178 W/m² 14,4 °C 18,9 °C 9,7 km/h (2 Bft)
01.09.2019 09:14 19,0 °C 74 % 1011,2 hPa 0,0 mm 7,2 km/h (2 Bft) W 271 ° 0 min 0,000 mm 1,1 UV-I 163 W/m² 14,3 °C 19,0 °C 11,3 km/h (2 Bft)
01.09.2019 09:15 19,1 °C 73 % 1011,2 hPa 0,0 mm 2,8 km/h (1 Bft) W-NW 296 ° 0 min 0,000 mm 1,1 UV-I 160 W/m² 14,1 °C 19,1 °C 6,4 km/h (2 Bft)
01.09.2019 09:16 19,1 °C 73 % 1011,2 hPa 0,0 mm 0,0 km/h (0 Bft) W-NW 296 ° 0 min 0,000 mm 1,1 UV-I 155 W/m² 14,1 °C 19,1 °C 0,0 km/h (0 Bft)
01.09.2019 09:17 19,1 °C 73 % 1011,2 hPa 0,0 mm 0,0 km/h (0 Bft) W-NW 296 ° 0 min 0,000 mm 1,1 UV-I 151 W/m² 14,1 °C 19,1 °C 0,0 km/h (0 Bft)
01.09.2019 09:18 19,1 °C 75 % 1011,2 hPa 0,0 mm 0,0 km/h (0 Bft) W-NW 296 ° 0 min 0,000 mm 1,1 UV-I 148 W/m² 14,6 °C 19,1 °C 0,0 km/h (0 Bft)
01.09.2019 09:19 19,1 °C 74 % 1011,2 hPa 0,0 mm 0,8 km/h (0 Bft) W-NW 296 ° 0 min 0,000 mm 1,0 UV-I 144 W/m² 14,4 °C 19,1 °C 3,2 km/h (1 Bft)
01.09.2019 09:20 19,1 °C 73 % 1011,2 hPa 0,0 mm 0,0 km/h (0 Bft) W-NW 296 ° 0 min 0,000 mm 1,0 UV-I 135 W/m² 14,1 °C 19,1 °C 0,0 km/h (0 Bft)
01.09.2019 09:21 19,1 °C 76 % 1011,3 hPa 0,0 mm 0,0 km/h (0 Bft) W-NW 296 ° 0 min 0,000 mm 1,0 UV-I 132 W/m² 14,8 °C 19,1 °C 0,0 km/h (0 Bft)
01.09.2019 09:22 19,0 °C 75 % 1011,2 hPa 0,0 mm 2,6 km/h (1 Bft) W-NW 285 ° 0 min 0,000 mm 1,0 UV-I 130 W/m² 14,5 °C 19,0 °C 3,2 km/h (1 Bft)
01.09.2019 09:23 18,9 °C 75 % 1011,3 hPa 0,0 mm 2,7 km/h (1 Bft) W-NW 292 ° 0 min 0,000 mm 1,0 UV-I 128 W/m² 14,4 °C 18,9 °C 4,8 km/h (1 Bft)
01.09.2019 09:24 18,9 °C 75 % 1011,3 hPa 0,0 mm 3,1 km/h (1 Bft) W-NW 299 ° 0 min 0,000 mm 1,0 UV-I 127 W/m² 14,4 °C 18,9 °C 4,8 km/h (1 Bft)
01.09.2019 09:25 18,9 °C 75 % 1011,3 hPa 0,0 mm 4,0 km/h (1 Bft) W-NW 289 ° 0 min 0,000 mm 1,0 UV-I 127 W/m² 14,4 °C 18,9 °C 6,4 km/h (2 Bft)
01.09.2019 09:26 18,8 °C 76 % 1011,3 hPa 0,0 mm 5,4 km/h (1 Bft) W 277 ° 0 min 0,000 mm 0,9 UV-I 128 W/m² 14,5 °C 18,8 °C 9,7 km/h (2 Bft)
01.09.2019 09:27 18,8 °C 75 % 1011,3 hPa 0,0 mm 3,0 km/h (1 Bft) W-NW 297 ° 0 min 0,000 mm 0,9 UV-I 128 W/m² 14,3 °C 18,8 °C 8,0 km/h (2 Bft)
01.09.2019 09:28 18,8 °C 75 % 1011,4 hPa 0,0 mm 2,9 km/h (1 Bft) W-NW 296 ° 0 min 0,000 mm 0,9 UV-I 127 W/m² 14,3 °C 18,8 °C 6,4 km/h (2 Bft)
01.09.2019 09:29 18,7 °C 76 % 1011,4 hPa 0,0 mm 2,0 km/h (1 Bft) W 261 ° 0 min 0,000 mm 0,9 UV-I 127 W/m² 14,4 °C 18,7 °C 4,8 km/h (1 Bft)
01.09.2019 09:30 18,7 °C 76 % 1011,3 hPa 0,0 mm 1,3 km/h (1 Bft) W-NW 294 ° 0 min 0,000 mm 0,9 UV-I 127 W/m² 14,4 °C 18,7 °C 3,2 km/h (1 Bft)
01.09.2019 09:31 18,7 °C 77 % 1011,3 hPa 0,0 mm 3,4 km/h (1 Bft) W-NW 294 ° 0 min 0,000 mm 0,9 UV-I 128 W/m² 14,6 °C 18,7 °C 6,4 km/h (2 Bft)
01.09.2019 09:32 18,7 °C 77 % 1011,3 hPa 0,0 mm 3,9 km/h (1 Bft) W 275 ° 0 min 0,000 mm 1,0 UV-I 130 W/m² 14,6 °C 18,7 °C 6,4 km/h (2 Bft)
01.09.2019 09:33 18,6 °C 76 % 1011,4 hPa 0,0 mm 2,7 km/h (1 Bft) W-NW 296 ° 0 min 0,000 mm 1,0 UV-I 132 W/m² 14,3 °C 18,6 °C 4,8 km/h (1 Bft)
01.09.2019 09:34 18,6 °C 76 % 1011,4 hPa 0,0 mm 0,2 km/h (0 Bft) W-NW 295 ° 0 min 0,000 mm 1,0 UV-I 134 W/m² 14,3 °C 18,6 °C 1,6 km/h (1 Bft)
01.09.2019 09:35 18,6 °C 76 % 1011,3 hPa 0,0 mm 0,2 km/h (0 Bft) W-NW 295 ° 0 min 0,000 mm 1,0 UV-I 135 W/m² 14,3 °C 18,6 °C 1,6 km/h (1 Bft)
01.09.2019 09:36 18,5 °C 76 % 1011,3 hPa 0,0 mm 0,0 km/h (0 Bft) S 177 ° 0 min 0,000 mm 1,0 UV-I 137 W/m² 14,2 °C 18,5 °C 0,0 km/h (0 Bft)
01.09.2019 09:37 18,5 °C 76 % 1011,3 hPa 0,0 mm 1,3 km/h (1 Bft) S 178 ° 0 min 0,000 mm 1,0 UV-I 139 W/m² 14,2 °C 18,5 °C 3,2 km/h (1 Bft)
01.09.2019 09:38 18,5 °C 76 % 1011,3 hPa 0,0 mm 0,5 km/h (0 Bft) S 179 ° 0 min 0,000 mm 1,1 UV-I 144 W/m² 14,2 °C 18,5 °C 3,2 km/h (1 Bft)
01.09.2019 09:39 18,5 °C 75 % 1011,3 hPa 0,0 mm 0,0 km/h (0 Bft) S 179 ° 0 min 0,000 mm 1,1 UV-I 146 W/m² 14,0 °C 18,5 °C 0,0 km/h (0 Bft)
01.09.2019 09:40 18,5 °C 77 % 1011,3 hPa 0,0 mm 0,1 km/h (0 Bft) S 188 ° 0 min 0,000 mm 1,1 UV-I 149 W/m² 14,4 °C 18,5 °C 1,6 km/h (1 Bft)
01.09.2019 09:41 18,6 °C 79 % 1011,3 hPa 0,0 mm 0,0 km/h (0 Bft) S 188 ° 0 min 0,000 mm 1,1 UV-I 153 W/m² 14,9 °C 18,6 °C 0,0 km/h (0 Bft)
01.09.2019 09:42 18,6 °C 77 % 1011,3 hPa 0,0 mm 0,0 km/h (0 Bft) S 188 ° 0 min 0,000 mm 1,1 UV-I 156 W/m² 14,5 °C 18,6 °C 0,0 km/h (0 Bft)
01.09.2019 09:43 18,6 °C 77 % 1011,2 hPa 0,0 mm 0,0 km/h (0 Bft) S 188 ° 0 min 0,000 mm 1,2 UV-I 160 W/m² 14,5 °C 18,6 °C 0,0 km/h (0 Bft)
01.09.2019 09:44 18,6 °C 77 % 1011,3 hPa 0,0 mm 0,0 km/h (0 Bft) S 188 ° 0 min 0,000 mm 1,2 UV-I 160 W/m² 14,5 °C 18,6 °C 0,0 km/h (0 Bft)
01.09.2019 09:45 18,6 °C 78 % 1011,3 hPa 0,0 mm 0,0 km/h (0 Bft) W-SW 242 ° 0 min 0,000 mm 1,2 UV-I 160 W/m² 14,7 °C 18,6 °C 0,0 km/h (0 Bft)
01.09.2019 09:46 18,6 °C 78 % 1011,3 hPa 0,0 mm 0,0 km/h (0 Bft) W 281 ° 0 min 0,000 mm 1,2 UV-I 160 W/m² 14,7 °C 18,6 °C 0,0 km/h (0 Bft)
01.09.2019 09:47 18,6 °C 79 % 1011,2 hPa 0,0 mm 0,0 km/h (0 Bft) W 281 ° 0 min 0,000 mm 1,2 UV-I 160 W/m² 14,9 °C 18,6 °C 0,0 km/h (0 Bft)
01.09.2019 09:48 18,7 °C 79 % 1011,3 hPa 0,0 mm 0,0 km/h (0 Bft) W 281 ° 0 min 0,000 mm 1,2 UV-I 158 W/m² 15,0 °C 18,7 °C 0,0 km/h (0 Bft)
01.09.2019 09:49 18,6 °C 78 % 1011,3 hPa 0,0 mm 0,0 km/h (0 Bft) W 281 ° 0 min 0,000 mm 1,2 UV-I 156 W/m² 14,7 °C 18,6 °C 0,0 km/h (0 Bft)
01.09.2019 09:50 18,6 °C 79 % 1011,3 hPa 0,0 mm 0,0 km/h (0 Bft) W 271 ° 0 min 0,000 mm 1,2 UV-I 155 W/m² 14,9 °C 18,6 °C 0,0 km/h (0 Bft)
01.09.2019 09:51 18,6 °C 79 % 1011,3 hPa 0,0 mm 0,0 km/h (0 Bft) W 265 ° 0 min 0,000 mm 1,2 UV-I 156 W/m² 14,9 °C 18,6 °C 0,0 km/h (0 Bft)
01.09.2019 09:52 18,6 °C 80 % 1011,3 hPa 0,0 mm 0,0 km/h (0 Bft) W 265 ° 0 min 0,000 mm 1,2 UV-I 156 W/m² 15,1 °C 18,6 °C 0,0 km/h (0 Bft)
01.09.2019 09:53 18,6 °C 79 % 1011,3 hPa 0,0 mm 0,0 km/h (0 Bft) W 265 ° 0 min 0,000 mm 1,2 UV-I 158 W/m² 14,9 °C 18,6 °C 0,0 km/h (0 Bft)
01.09.2019 09:54 18,6 °C 79 % 1011,3 hPa 0,0 mm 0,0 km/h (0 Bft) W 265 ° 0 min 0,000 mm 1,2 UV-I 162 W/m² 14,9 °C 18,6 °C 0,0 km/h (0 Bft)
01.09.2019 09:55 18,6 °C 79 % 1011,3 hPa 0,0 mm 0,0 km/h (0 Bft) W 265 ° 0 min 0,000 mm 1,2 UV-I 165 W/m² 14,9 °C 18,6 °C 0,0 km/h (0 Bft)
01.09.2019 09:56 18,6 °C 79 % 1011,3 hPa 0,0 mm 0,0 km/h (0 Bft) W 265 ° 0 min 0,000 mm 1,2 UV-I 169 W/m² 14,9 °C 18,6 °C 0,0 km/h (0 Bft)
01.09.2019 09:57 18,6 °C 80 % 1011,4 hPa 0,0 mm 0,0 km/h (0 Bft) W 268 ° 0 min 0,000 mm 1,2 UV-I 171 W/m² 15,1 °C 18,6 °C 0,0 km/h (0 Bft)
01.09.2019 09:58 18,6 °C 80 % 1011,4 hPa 0,0 mm 0,0 km/h (0 Bft) W 276 ° 0 min 0,000 mm 1,3 UV-I 172 W/m² 15,1 °C 18,6 °C 0,0 km/h (0 Bft)
01.09.2019 09:59 18,6 °C 81 % 1011,4 hPa 0,0 mm 1,1 km/h (1 Bft) W 276 ° 0 min 0,000 mm 1,3 UV-I 174 W/m² 15,3 °C 18,6 °C 3,2 km/h (1 Bft)
01.09.2019 10:00 18,6 °C 81 % 1011,5 hPa 0,0 mm 0,0 km/h (0 Bft) W 277 ° 0 min 0,102 mm 1,3 UV-I 174 W/m² 15,3 °C 18,6 °C 0,0 km/h (0 Bft)
01.09.2019 10:01 18,6 °C 81 % 1011,4 hPa 0,0 mm 0,0 km/h (0 Bft) W 277 ° 0 min 0,000 mm 1,3 UV-I 176 W/m² 15,3 °C 18,6 °C 0,0 km/h (0 Bft)
01.09.2019 10:02 18,6 °C 81 % 1011,5 hPa 0,0 mm 0,0 km/h (0 Bft) W 277 ° 0 min 0,000 mm 1,3 UV-I 174 W/m² 15,3 °C 18,6 °C 0,0 km/h (0 Bft)
01.09.2019 10:03 18,6 °C 81 % 1011,4 hPa 0,0 mm 0,0 km/h (0 Bft) W 277 ° 0 min 0,000 mm 1,3 UV-I 174 W/m² 15,3 °C 18,6 °C 0,0 km/h (0 Bft)
01.09.2019 10:04 18,5 °C 81 % 1011,4 hPa 0,0 mm 0,0 km/h (0 Bft) W 277 ° 0 min 0,000 mm 1,3 UV-I 172 W/m² 15,2 °C 18,5 °C 0,0 km/h (0 Bft)
01.09.2019 10:05 18,5 °C 81 % 1011,4 hPa 0,0 mm 0,0 km/h (0 Bft) W 277 ° 0 min 0,000 mm 1,3 UV-I 171 W/m² 15,2 °C 18,5 °C 0,0 km/h (0 Bft)
01.09.2019 10:06 18,5 °C 81 % 1011,5 hPa 0,0 mm 0,0 km/h (0 Bft) W 277 ° 0 min 0,000 mm 1,2 UV-I 167 W/m² 15,2 °C 18,5 °C 0,0 km/h (0 Bft)
01.09.2019 10:07 18,5 °C 80 % 1011,4 hPa 0,0 mm 0,0 km/h (0 Bft) W 277 ° 0 min 0,000 mm 1,2 UV-I 162 W/m² 15,0 °C 18,5 °C 0,0 km/h (0 Bft)
01.09.2019 10:08 18,5 °C 80 % 1011,5 hPa 0,0 mm 2,0 km/h (1 Bft) W-NW 285 ° 0 min 0,000 mm 1,2 UV-I 160 W/m² 15,0 °C 18,5 °C 4,8 km/h (1 Bft)
01.09.2019 10:09 18,6 °C 81 % 1011,5 hPa 0,0 mm 1,9 km/h (1 Bft) W-NW 285 ° 0 min 0,000 mm 1,2 UV-I 156 W/m² 15,3 °C 18,6 °C 4,8 km/h (1 Bft)
01.09.2019 10:10 18,6 °C 81 % 1011,4 hPa 0,0 mm 1,2 km/h (1 Bft) W-NW 285 ° 0 min 0,000 mm 1,2 UV-I 155 W/m² 15,3 °C 18,6 °C 3,2 km/h (1 Bft)
01.09.2019 10:11 18,6 °C 79 % 1011,5 hPa 0,0 mm 2,6 km/h (1 Bft) W-NW 288 ° 0 min 0,000 mm 1,2 UV-I 155 W/m² 14,9 °C 18,6 °C 4,8 km/h (1 Bft)
01.09.2019 10:12 18,5 °C 79 % 1011,5 hPa 0,0 mm 3,1 km/h (1 Bft) W-NW 288 ° 0 min 0,000 mm 1,2 UV-I 155 W/m² 14,8 °C 18,5 °C 4,8 km/h (1 Bft)
01.09.2019 10:13 18,6 °C 80 % 1011,5 hPa 0,0 mm 0,3 km/h (0 Bft) W-NW 288 ° 0 min 0,000 mm 1,2 UV-I 156 W/m² 15,1 °C 18,6 °C 1,6 km/h (1 Bft)
01.09.2019 10:14 18,6 °C 80 % 1011,5 hPa 0,0 mm 1,9 km/h (1 Bft) W-NW 289 ° 0 min 0,000 mm 1,2 UV-I 160 W/m² 15,1 °C 18,6 °C 3,2 km/h (1 Bft)
01.09.2019 10:15 18,5 °C 80 % 1011,5 hPa 0,0 mm 4,4 km/h (1 Bft) W-NW 286 ° 0 min 0,000 mm 1,2 UV-I 162 W/m² 15,0 °C 18,5 °C 6,4 km/h (2 Bft)
01.09.2019 10:16 18,4 °C 79 % 1011,4 hPa 0,0 mm 0,3 km/h (0 Bft) W-NW 286 ° 0 min 0,000 mm 1,3 UV-I 165 W/m² 14,7 °C 18,4 °C 1,6 km/h (1 Bft)
01.09.2019 10:17 18,4 °C 79 % 1011,4 hPa 0,0 mm 0,0 km/h (0 Bft) W-NW 286 ° 0 min 0,000 mm 1,3 UV-I 169 W/m² 14,7 °C 18,4 °C 0,0 km/h (0 Bft)
01.09.2019 10:18 18,4 °C 79 % 1011,5 hPa 0,0 mm 0,0 km/h (0 Bft) W-NW 291 ° 0 min 0,000 mm 1,3 UV-I 174 W/m² 14,7 °C 18,4 °C 0,0 km/h (0 Bft)
01.09.2019 10:19 18,4 °C 79 % 1011,5 hPa 0,0 mm 0,0 km/h (0 Bft) W-NW 285 ° 0 min 0,000 mm 1,3 UV-I 176 W/m² 14,7 °C 18,4 °C 0,0 km/h (0 Bft)
01.09.2019 10:20 18,4 °C 80 % 1011,5 hPa 0,0 mm 0,0 km/h (0 Bft) W-NW 285 ° 0 min 0,000 mm 1,3 UV-I 176 W/m² 14,9 °C 18,4 °C 0,0 km/h (0 Bft)
01.09.2019 10:21 18,4 °C 80 % 1011,5 hPa 0,0 mm 0,0 km/h (0 Bft) W-NW 285 ° 0 min 0,000 mm 1,3 UV-I 178 W/m² 14,9 °C 18,4 °C 0,0 km/h (0 Bft)
01.09.2019 10:22 18,4 °C 80 % 1011,5 hPa 0,0 mm 0,0 km/h (0 Bft) W-NW 285 ° 0 min 0,000 mm 1,3 UV-I 178 W/m² 14,9 °C 18,4 °C 0,0 km/h (0 Bft)
01.09.2019 10:23 18,4 °C 80 % 1011,4 hPa 0,0 mm 0,0 km/h (0 Bft) W-NW 285 ° 0 min 0,000 mm 1,4 UV-I 178 W/m² 14,9 °C 18,4 °C 0,0 km/h (0 Bft)
01.09.2019 10:24 18,4 °C 80 % 1011,5 hPa 0,0 mm 0,0 km/h (0 Bft) W-NW 285 ° 0 min 0,000 mm 1,4 UV-I 178 W/m² 14,9 °C 18,4 °C 0,0 km/h (0 Bft)
01.09.2019 10:25 18,4 °C 80 % 1011,5 hPa 0,0 mm 1,2 km/h (1 Bft) W-NW 285 ° 0 min 0,000 mm 1,4 UV-I 179 W/m² 14,9 °C 18,4 °C 3,2 km/h (1 Bft)
01.09.2019 10:26 18,4 °C 80 % 1011,5 hPa 0,0 mm 0,7 km/h (0 Bft) W-NW 285 ° 0 min 0,000 mm 1,4 UV-I 181 W/m² 14,9 °C 18,4 °C 3,2 km/h (1 Bft)
01.09.2019 10:27 18,5 °C 82 % 1011,5 hPa 0,0 mm 0,0 km/h (0 Bft) W-NW 285 ° 0 min 0,000 mm 1,4 UV-I 174 W/m² 15,4 °C 18,5 °C 0,0 km/h (0 Bft)
01.09.2019 10:28 18,5 °C 80 % 1011,6 hPa 0,0 mm 1,8 km/h (1 Bft) S 184 ° 0 min 0,000 mm 1,4 UV-I 171 W/m² 15,0 °C 18,5 °C 6,4 km/h (2 Bft)
01.09.2019 10:29 18,4 °C 78 % 1011,5 hPa 0,0 mm 4,6 km/h (1 Bft) W-SW 237 ° 0 min 0,000 mm 1,4 UV-I 169 W/m² 14,5 °C 18,4 °C 6,4 km/h (2 Bft)
01.09.2019 10:30 18,4 °C 78 % 1011,6 hPa 0,0 mm 2,1 km/h (1 Bft) W-SW 248 ° 0 min 0,000 mm 1,4 UV-I 163 W/m² 14,5 °C 18,4 °C 4,8 km/h (1 Bft)
01.09.2019 10:31 18,4 °C 79 % 1011,6 hPa 0,0 mm 0,9 km/h (0 Bft) SW 219 ° 0 min 0,000 mm 1,5 UV-I 162 W/m² 14,7 °C 18,4 °C 3,2 km/h (1 Bft)
01.09.2019 10:32 18,4 °C 79 % 1011,6 hPa 0,0 mm 0,2 km/h (0 Bft) SW 219 ° 0 min 0,000 mm 1,5 UV-I 162 W/m² 14,7 °C 18,4 °C 1,6 km/h (1 Bft)
01.09.2019 10:33 18,4 °C 79 % 1011,6 hPa 0,0 mm 1,5 km/h (1 Bft) S-SW 193 ° 0 min 0,000 mm 1,5 UV-I 160 W/m² 14,7 °C 18,4 °C 4,8 km/h (1 Bft)
01.09.2019 10:34 18,4 °C 79 % 1011,6 hPa 0,0 mm 2,4 km/h (1 Bft) W-SW 250 ° 0 min 0,000 mm 1,5 UV-I 162 W/m² 14,7 °C 18,4 °C 6,4 km/h (2 Bft)
01.09.2019 10:35 18,3 °C 79 % 1011,6 hPa 0,0 mm 0,8 km/h (0 Bft) W 267 ° 0 min 0,000 mm 1,5 UV-I 162 W/m² 14,6 °C 18,3 °C 4,8 km/h (1 Bft)
01.09.2019 10:36 18,3 °C 80 % 1011,6 hPa 0,0 mm 2,2 km/h (1 Bft) W-NW 299 ° 0 min 0,000 mm 1,6 UV-I 163 W/m² 14,8 °C 18,3 °C 6,4 km/h (2 Bft)
01.09.2019 10:37 18,3 °C 81 % 1011,6 hPa 0,0 mm 3,6 km/h (1 Bft) NW 318 ° 0 min 0,000 mm 1,6 UV-I 163 W/m² 15,0 °C 18,3 °C 6,4 km/h (2 Bft)
01.09.2019 10:38 18,3 °C 81 % 1011,6 hPa 0,0 mm 4,1 km/h (1 Bft) NW 309 ° 0 min 0,000 mm 1,7 UV-I 165 W/m² 15,0 °C 18,3 °C 9,7 km/h (2 Bft)
01.09.2019 10:39 18,3 °C 81 % 1011,6 hPa 0,0 mm 1,9 km/h (1 Bft) W-NW 284 ° 0 min 0,000 mm 1,7 UV-I 167 W/m² 15,0 °C 18,3 °C 9,7 km/h (2 Bft)
01.09.2019 10:40 18,2 °C 82 % 1011,6 hPa 0,0 mm 2,8 km/h (1 Bft) W 259 ° 0 min 0,000 mm 1,7 UV-I 171 W/m² 15,1 °C 18,2 °C 6,4 km/h (2 Bft)
01.09.2019 10:41 18,2 °C 82 % 1011,6 hPa 0,0 mm 0,0 km/h (0 Bft) W-SW 258 ° 0 min 0,000 mm 1,7 UV-I 174 W/m² 15,1 °C 18,2 °C 0,0 km/h (0 Bft)
01.09.2019 10:42 18,1 °C 82 % 1011,5 hPa 0,0 mm 1,5 km/h (1 Bft) S-SW 198 ° 0 min 0,000 mm 1,8 UV-I 183 W/m² 15,0 °C 18,1 °C 4,8 km/h (1 Bft)
01.09.2019 10:43 18,1 °C 82 % 1011,5 hPa 0,0 mm 1,1 km/h (1 Bft) S-SW 204 ° 0 min 0,000 mm 1,9 UV-I 186 W/m² 15,0 °C 18,1 °C 4,8 km/h (1 Bft)
01.09.2019 10:44 18,1 °C 82 % 1011,5 hPa 0,0 mm 0,0 km/h (0 Bft) W-SW 248 ° 0 min 0,000 mm 2,0 UV-I 190 W/m² 15,0 °C 18,1 °C 0,0 km/h (0 Bft)
01.09.2019 10:45 18,1 °C 82 % 1011,5 hPa 0,0 mm 0,9 km/h (0 Bft) W-SW 258 ° 0 min 0,000 mm 2,0 UV-I 193 W/m² 15,0 °C 18,1 °C 3,2 km/h (1 Bft)
01.09.2019 10:46 18,1 °C 82 % 1011,5 hPa 0,0 mm 0,0 km/h (0 Bft) W-SW 258 ° 0 min 0,000 mm 2,0 UV-I 195 W/m² 15,0 °C 18,1 °C 0,0 km/h (0 Bft)
01.09.2019 10:47 18,1 °C 83 % 1011,5 hPa 0,0 mm 0,2 km/h (0 Bft) W 260 ° 0 min 0,000 mm 2,1 UV-I 197 W/m² 15,2 °C 18,1 °C 1,6 km/h (1 Bft)
01.09.2019 10:48 18,1 °C 83 % 1011,6 hPa 0,0 mm 0,0 km/h (0 Bft) W 260 ° 0 min 0,000 mm 2,1 UV-I 200 W/m² 15,2 °C 18,1 °C 0,0 km/h (0 Bft)
01.09.2019 10:49 18,1 °C 82 % 1011,5 hPa 0,0 mm 0,0 km/h (0 Bft) W 260 ° 0 min 0,000 mm 2,2 UV-I 207 W/m² 15,0 °C 18,1 °C 0,0 km/h (0 Bft)
01.09.2019 10:50 18,1 °C 82 % 1011,5 hPa 0,0 mm 0,0 km/h (0 Bft) W 260 ° 0 min 0,000 mm 2,2 UV-I 209 W/m² 15,0 °C 18,1 °C 0,0 km/h (0 Bft)
01.09.2019 10:51 18,2 °C 82 % 1011,5 hPa 0,0 mm 1,1 km/h (1 Bft) W-NW 284 ° 0 min 0,000 mm 2,2 UV-I 213 W/m² 15,1 °C 18,2 °C 3,2 km/h (1 Bft)
01.09.2019 10:52 18,2 °C 83 % 1011,6 hPa 0,0 mm 0,1 km/h (0 Bft) W-NW 299 ° 0 min 0,000 mm 2,2 UV-I 214 W/m² 15,3 °C 18,2 °C 1,6 km/h (1 Bft)
01.09.2019 10:53 18,3 °C 83 % 1011,6 hPa 0,0 mm 0,7 km/h (0 Bft) W-NW 299 ° 0 min 0,000 mm 2,3 UV-I 213 W/m² 15,4 °C 18,3 °C 3,2 km/h (1 Bft)
01.09.2019 10:54 18,3 °C 82 % 1011,6 hPa 0,0 mm 0,5 km/h (0 Bft) W-NW 292 ° 0 min 0,000 mm 2,3 UV-I 211 W/m² 15,2 °C 18,3 °C 3,2 km/h (1 Bft)
01.09.2019 10:55 18,3 °C 82 % 1011,6 hPa 0,0 mm 3,8 km/h (1 Bft) W-NW 286 ° 0 min 0,000 mm 2,3 UV-I 209 W/m² 15,2 °C 18,3 °C 6,4 km/h (2 Bft)
01.09.2019 10:56 18,4 °C 82 % 1011,6 hPa 0,0 mm 1,3 km/h (1 Bft) W-NW 286 ° 0 min 0,000 mm 2,3 UV-I 209 W/m² 15,3 °C 18,4 °C 3,2 km/h (1 Bft)
01.09.2019 10:57 18,4 °C 80 % 1011,6 hPa 0,0 mm 0,0 km/h (0 Bft) W-NW 286 ° 0 min 0,000 mm 2,3 UV-I 211 W/m² 14,9 °C 18,4 °C 0,0 km/h (0 Bft)
01.09.2019 10:58 18,4 °C 80 % 1011,6 hPa 0,0 mm 0,3 km/h (0 Bft) W 276 ° 0 min 0,000 mm 2,3 UV-I 213 W/m² 14,9 °C 18,4 °C 1,6 km/h (1 Bft)
01.09.2019 10:59 18,6 °C 82 % 1011,6 hPa 0,0 mm 0,2 km/h (0 Bft) W 276 ° 0 min 0,000 mm 2,4 UV-I 213 W/m² 15,5 °C 18,6 °C 1,6 km/h (1 Bft)
01.09.2019 11:00 18,6 °C 82 % 1011,6 hPa 0,0 mm 0,0 km/h (0 Bft) W 275 ° 0 min 0,000 mm 2,4 UV-I 213 W/m² 15,5 °C 18,6 °C 0,0 km/h (0 Bft)
01.09.2019 11:01 18,6 °C 81 % 1011,6 hPa 0,0 mm 0,0 km/h (0 Bft) W 276 ° 0 min 0,102 mm 2,4 UV-I 211 W/m² 15,3 °C 18,6 °C 0,0 km/h (0 Bft)
01.09.2019 11:02 18,7 °C 81 % 1011,6 hPa 0,0 mm 0,0 km/h (0 Bft) W 276 ° 0 min 0,000 mm 2,4 UV-I 211 W/m² 15,4 °C 18,7 °C 0,0 km/h (0 Bft)
01.09.2019 11:03 18,7 °C 81 % 1011,6 hPa 0,0 mm 0,3 km/h (0 Bft) W 275 ° 0 min 0,000 mm 2,4 UV-I 218 W/m² 15,4 °C 18,7 °C 1,6 km/h (1 Bft)
01.09.2019 11:04 18,8 °C 82 % 1011,6 hPa 0,0 mm 0,1 km/h (0 Bft) W 278 ° 0 min 0,000 mm 2,4 UV-I 229 W/m² 15,7 °C 18,8 °C 1,6 km/h (1 Bft)
01.09.2019 11:05 18,8 °C 81 % 1011,6 hPa 0,0 mm 0,0 km/h (0 Bft) W 278 ° 0 min 0,000 mm 2,5 UV-I 230 W/m² 15,5 °C 18,8 °C 0,0 km/h (0 Bft)
01.09.2019 11:06 18,9 °C 82 % 1011,6 hPa 0,0 mm 1,3 km/h (1 Bft) W 266 ° 0 min 0,000 mm 2,6 UV-I 239 W/m² 15,8 °C 18,9 °C 3,2 km/h (1 Bft)
01.09.2019 11:07 18,9 °C 82 % 1011,6 hPa 0,0 mm 0,2 km/h (0 Bft) W 269 ° 0 min 0,000 mm 2,5 UV-I 236 W/m² 15,8 °C 18,9 °C 3,2 km/h (1 Bft)
01.09.2019 11:08 19,0 °C 82 % 1011,6 hPa 0,0 mm 0,0 km/h (0 Bft) W 269 ° 0 min 0,000 mm 2,6 UV-I 237 W/m² 15,9 °C 19,0 °C 0,0 km/h (0 Bft)
01.09.2019 11:09 19,0 °C 81 % 1011,6 hPa 0,0 mm 0,0 km/h (0 Bft) W 269 ° 0 min 0,000 mm 2,6 UV-I 243 W/m² 15,7 °C 19,0 °C 0,0 km/h (0 Bft)
01.09.2019 11:10 18,9 °C 82 % 1011,6 hPa 0,0 mm 2,6 km/h (1 Bft) W 263 ° 0 min 0,000 mm 2,6 UV-I 244 W/m² 15,8 °C 18,9 °C 6,4 km/h (2 Bft)
01.09.2019 11:11 18,9 °C 81 % 1011,6 hPa 0,0 mm 0,7 km/h (0 Bft) SW 232 ° 0 min 0,000 mm 2,6 UV-I 250 W/m² 15,6 °C 18,9 °C 4,8 km/h (1 Bft)
01.09.2019 11:12 18,9 °C 81 % 1011,7 hPa 0,0 mm 2,0 km/h (1 Bft) W 261 ° 0 min 0,000 mm 2,7 UV-I 255 W/m² 15,6 °C 18,9 °C 4,8 km/h (1 Bft)
01.09.2019 11:13 19,0 °C 79 % 1011,6 hPa 0,0 mm 3,1 km/h (1 Bft) SW 225 ° 0 min 0,000 mm 2,8 UV-I 272 W/m² 15,3 °C 19,0 °C 6,4 km/h (2 Bft)
01.09.2019 11:14 19,1 °C 80 % 1011,6 hPa 0,0 mm 3,2 km/h (1 Bft) W 265 ° 0 min 0,000 mm 2,8 UV-I 276 W/m² 15,6 °C 19,1 °C 6,4 km/h (2 Bft)
01.09.2019 11:15 19,1 °C 81 % 1011,6 hPa 0,0 mm 2,7 km/h (1 Bft) W-SW 244 ° 0 min 0,000 mm 3,1 UV-I 327 W/m² 15,8 °C 19,1 °C 4,8 km/h (1 Bft)
01.09.2019 11:16 19,2 °C 81 % 1011,6 hPa 0,0 mm 4,2 km/h (1 Bft) W 265 ° 0 min 0,000 mm 2,9 UV-I 292 W/m² 15,9 °C 19,2 °C 6,4 km/h (2 Bft)
01.09.2019 11:17 19,3 °C 81 % 1011,6 hPa 0,0 mm 1,4 km/h (1 Bft) W 264 ° 0 min 0,000 mm 2,8 UV-I 255 W/m² 16,0 °C 19,3 °C 4,8 km/h (1 Bft)
01.09.2019 11:18 19,3 °C 80 % 1011,6 hPa 0,0 mm 0,1 km/h (0 Bft) W 264 ° 0 min 0,000 mm 2,8 UV-I 257 W/m² 15,8 °C 19,3 °C 1,6 km/h (1 Bft)
01.09.2019 11:19 19,3 °C 81 % 1011,6 hPa 0,0 mm 0,5 km/h (0 Bft) W 264 ° 0 min 0,000 mm 2,8 UV-I 258 W/m² 16,0 °C 19,3 °C 1,6 km/h (1 Bft)
01.09.2019 11:20 19,3 °C 79 % 1011,5 hPa 0,0 mm 0,2 km/h (0 Bft) W 264 ° 0 min 0,000 mm 3,8 UV-I 258 W/m² 15,6 °C 19,3 °C 1,6 km/h (1 Bft)
01.09.2019 11:21 19,4 °C 81 % 1011,5 hPa 0,0 mm 0,0 km/h (0 Bft) W 264 ° 0 min 0,000 mm 3,5 UV-I 448 W/m² 16,1 °C 19,4 °C 0,0 km/h (0 Bft)
01.09.2019 11:22 19,4 °C 80 % 1011,5 hPa 0,0 mm 0,0 km/h (0 Bft) W 264 ° 0 min 0,000 mm 3,3 UV-I 367 W/m² 15,9 °C 19,4 °C 0,0 km/h (0 Bft)
01.09.2019 11:23 19,4 °C 80 % 1011,5 hPa 0,0 mm 0,0 km/h (0 Bft) W 264 ° 0 min 0,000 mm 3,1 UV-I 322 W/m² 15,9 °C 19,4 °C 0,0 km/h (0 Bft)
01.09.2019 11:24 19,5 °C 81 % 1011,5 hPa 0,0 mm 0,1 km/h (0 Bft) W 264 ° 0 min 0,000 mm 3,3 UV-I 341 W/m² 16,1 °C 19,5 °C 1,6 km/h (1 Bft)
01.09.2019 11:25 19,6 °C 80 % 1011,6 hPa 0,0 mm 0,3 km/h (0 Bft) W 263 ° 0 min 0,000 mm 3,5 UV-I 348 W/m² 16,1 °C 19,6 °C 1,6 km/h (1 Bft)
01.09.2019 11:26 19,4 °C 77 % 1011,5 hPa 0,0 mm 0,0 km/h (0 Bft) W 263 ° 0 min 0,000 mm 4,6 UV-I 348 W/m² 15,3 °C 19,4 °C 0,0 km/h (0 Bft)
01.09.2019 11:27 19,4 °C 78 % 1011,6 hPa 0,0 mm 0,0 km/h (0 Bft) W 263 ° 0 min 0,000 mm 4,4 UV-I 563 W/m² 15,5 °C 19,4 °C 0,0 km/h (0 Bft)
01.09.2019 11:28 19,6 °C 80 % 1011,5 hPa 0,0 mm 0,3 km/h (0 Bft) W 264 ° 0 min 0,000 mm 3,5 UV-I 563 W/m² 16,1 °C 19,6 °C 1,6 km/h (1 Bft)
01.09.2019 11:29 19,6 °C 77 % 1011,6 hPa 0,0 mm 0,0 km/h (0 Bft) W 264 ° 1 min 0,000 mm 4,4 UV-I 619 W/m² 15,5 °C 19,6 °C 0,0 km/h (0 Bft)
01.09.2019 11:30 19,6 °C 78 % 1011,5 hPa 0,0 mm 0,0 km/h (0 Bft) W 264 ° 1 min 0,000 mm 3,5 UV-I 619 W/m² 15,7 °C 19,6 °C 0,0 km/h (0 Bft)
01.09.2019 11:31 19,6 °C 78 % 1011,5 hPa 0,0 mm 0,0 km/h (0 Bft) W 265 ° 0 min 0,000 mm 3,6 UV-I 420 W/m² 15,7 °C 19,6 °C 0,0 km/h (0 Bft)
01.09.2019 11:32 19,7 °C 77 % 1011,4 hPa 0,0 mm 0,0 km/h (0 Bft) W 264 ° 0 min 0,000 mm 3,8 UV-I 439 W/m² 15,5 °C 19,7 °C 0,0 km/h (0 Bft)
01.09.2019 11:33 19,8 °C 79 % 1011,4 hPa 0,0 mm 0,0 km/h (0 Bft) W 264 ° 0 min 0,000 mm 3,1 UV-I 439 W/m² 16,0 °C 19,8 °C 0,0 km/h (0 Bft)
01.09.2019 11:34 19,8 °C 76 % 1011,4 hPa 0,0 mm 0,0 km/h (0 Bft) W 265 ° 0 min 0,000 mm 3,0 UV-I 236 W/m² 15,4 °C 19,8 °C 0,0 km/h (0 Bft)
01.09.2019 11:35 20,0 °C 74 % 1011,4 hPa 0,0 mm 0,7 km/h (0 Bft) W-SW 248 ° 0 min 0,000 mm 2,8 UV-I 221 W/m² 15,2 °C 20,0 °C 4,8 km/h (1 Bft)
01.09.2019 11:36 20,2 °C 72 % 1011,4 hPa 0,0 mm 0,9 km/h (0 Bft) W-SW 248 ° 0 min 0,000 mm 2,9 UV-I 241 W/m² 15,0 °C 20,2 °C 3,2 km/h (1 Bft)
01.09.2019 11:37 20,3 °C 72 % 1011,5 hPa 0,0 mm 0,9 km/h (0 Bft) W-SW 248 ° 0 min 0,000 mm 3,1 UV-I 292 W/m² 15,1 °C 20,3 °C 3,2 km/h (1 Bft)
01.09.2019 11:38 20,4 °C 72 % 1011,5 hPa 0,0 mm 0,0 km/h (0 Bft) W-SW 248 ° 0 min 0,000 mm 3,2 UV-I 267 W/m² 15,2 °C 20,4 °C 0,0 km/h (0 Bft)
01.09.2019 11:39 20,4 °C 74 % 1011,4 hPa 0,0 mm 0,1 km/h (0 Bft) W-SW 248 ° 0 min 0,000 mm 3,5 UV-I 330 W/m² 15,6 °C 20,4 °C 1,6 km/h (1 Bft)
01.09.2019 11:40 20,5 °C 74 % 1011,5 hPa 0,0 mm 0,4 km/h (0 Bft) W-SW 248 ° 0 min 0,000 mm 3,1 UV-I 304 W/m² 15,7 °C 20,5 °C 1,6 km/h (1 Bft)
01.09.2019 11:41 20,6 °C 73 % 1011,5 hPa 0,0 mm 1,4 km/h (1 Bft) W 277 ° 0 min 0,000 mm 3,8 UV-I 338 W/m² 15,6 °C 20,6 °C 3,2 km/h (1 Bft)
01.09.2019 11:42 20,4 °C 75 % 1011,5 hPa 0,0 mm 0,2 km/h (0 Bft) W 263 ° 0 min 0,000 mm 3,8 UV-I 353 W/m² 15,8 °C 20,4 °C 1,6 km/h (1 Bft)
01.09.2019 11:43 20,5 °C 73 % 1011,5 hPa 0,0 mm 0,0 km/h (0 Bft) W 264 ° 0 min 0,000 mm 4,4 UV-I 353 W/m² 15,5 °C 20,5 °C 0,0 km/h (0 Bft)
01.09.2019 11:44 20,6 °C 77 % 1011,5 hPa 0,0 mm 0,0 km/h (0 Bft) W 260 ° 0 min 0,000 mm 4,1 UV-I 497 W/m² 16,4 °C 20,6 °C 0,0 km/h (0 Bft)
01.09.2019 11:45 20,6 °C 75 % 1011,4 hPa 0,0 mm 0,2 km/h (0 Bft) S 186 ° 0 min 0,000 mm 4,7 UV-I 497 W/m² 16,0 °C 20,6 °C 4,8 km/h (1 Bft)
01.09.2019 11:46 20,7 °C 71 % 1011,5 hPa 0,0 mm 0,8 km/h (0 Bft) S-SW 196 ° 0 min 0,000 mm 4,7 UV-I 497 W/m² 15,2 °C 20,7 °C 3,2 km/h (1 Bft)
01.09.2019 11:47 20,7 °C 72 % 1011,5 hPa 0,0 mm 0,0 km/h (0 Bft) S-SW 196 ° 1 min 0,000 mm 4,9 UV-I 810 W/m² 15,5 °C 20,7 °C 0,0 km/h (0 Bft)
01.09.2019 11:48 20,7 °C 76 % 1011,5 hPa 0,0 mm 0,0 km/h (0 Bft) S-SW 196 ° 1 min 0,000 mm 5,4 UV-I 789 W/m² 16,3 °C 20,7 °C 0,0 km/h (0 Bft)
01.09.2019 11:49 20,8 °C 72 % 1011,5 hPa 0,0 mm 0,0 km/h (0 Bft) S-SW 203 ° 1 min 0,000 mm 5,4 UV-I 763 W/m² 15,6 °C 20,8 °C 0,0 km/h (0 Bft)
01.09.2019 11:50 20,9 °C 74 % 1011,5 hPa 0,0 mm 0,0 km/h (0 Bft) SW 236 ° 1 min 0,000 mm 5,5 UV-I 788 W/m² 16,1 °C 20,9 °C 0,0 km/h (0 Bft)
01.09.2019 11:51 21,1 °C 75 % 1011,5 hPa 0,0 mm 0,0 km/h (0 Bft) W 275 ° 1 min 0,000 mm 5,5 UV-I 796 W/m² 16,5 °C 21,1 °C 0,0 km/h (0 Bft)
01.09.2019 11:52 21,3 °C 77 % 1011,5 hPa 0,0 mm 0,0 km/h (0 Bft) W 275 ° 1 min 0,000 mm 5,6 UV-I 831 W/m² 17,1 °C 21,3 °C 0,0 km/h (0 Bft)
01.09.2019 11:53 21,6 °C 75 % 1011,5 hPa 0,0 mm 1,2 km/h (1 Bft) W-SW 240 ° 1 min 0,000 mm 5,6 UV-I 860 W/m² 17,0 °C 21,6 °C 6,4 km/h (2 Bft)
01.09.2019 11:54 21,7 °C 69 % 1011,5 hPa 0,0 mm 1,5 km/h (1 Bft) W-SW 240 ° 1 min 0,000 mm 4,4 UV-I 860 W/m² 15,8 °C 21,7 °C 6,4 km/h (2 Bft)
01.09.2019 11:55 21,9 °C 68 % 1011,5 hPa 0,0 mm 3,4 km/h (1 Bft) W-SW 246 ° 0 min 0,000 mm 4,6 UV-I 582 W/m² 15,7 °C 21,9 °C 6,4 km/h (2 Bft)
01.09.2019 11:56 22,0 °C 67 % 1011,4 hPa 0,0 mm 7,8 km/h (2 Bft) W-NW 286 ° 1 min 0,000 mm 5,1 UV-I 633 W/m² 15,6 °C 22,0 °C 11,3 km/h (2 Bft)
01.09.2019 11:57 22,1 °C 71 % 1011,5 hPa 0,0 mm 3,2 km/h (1 Bft) W-NW 301 ° 0 min 0,000 mm 5,1 UV-I 599 W/m² 16,6 °C 22,1 °C 9,7 km/h (2 Bft)
01.09.2019 11:58 22,2 °C 70 % 1011,5 hPa 0,0 mm 6,8 km/h (2 Bft) W 264 ° 1 min 0,000 mm 5,2 UV-I 724 W/m² 16,5 °C 22,2 °C 12,9 km/h (3 Bft)
01.09.2019 11:59 22,2 °C 65 % 1011,4 hPa 0,0 mm 8,8 km/h (2 Bft) W-NW 303 ° 1 min 0,000 mm 5,7 UV-I 803 W/m² 15,3 °C 22,2 °C 17,7 km/h (3 Bft)
01.09.2019 12:00 22,3 °C 66 % 1011,5 hPa 0,0 mm 10,6 km/h (2 Bft) W-NW 292 ° 1 min 0,000 mm 5,7 UV-I 875 W/m² 15,6 °C 22,3 °C 14,5 km/h (3 Bft)
01.09.2019 12:01 22,4 °C 72 % 1011,5 hPa 0,0 mm 11,3 km/h (2 Bft) W-NW 293 ° 1 min 0,254 mm 5,8 UV-I 840 W/m² 17,1 °C 22,4 °C 16,1 km/h (3 Bft)
01.09.2019 12:02 22,4 °C 65 % 1011,5 hPa 0,0 mm 8,5 km/h (2 Bft) W 270 ° 1 min 0,000 mm 5,8 UV-I 849 W/m² 15,5 °C 22,4 °C 11,3 km/h (2 Bft)
01.09.2019 12:03 22,4 °C 65 % 1011,5 hPa 0,0 mm 6,8 km/h (2 Bft) W 266 ° 1 min 0,000 mm 5,9 UV-I 854 W/m² 15,5 °C 22,4 °C 16,1 km/h (3 Bft)
01.09.2019 12:04 22,4 °C 65 % 1011,5 hPa 0,0 mm 9,6 km/h (2 Bft) NW 305 ° 1 min 0,000 mm 4,9 UV-I 854 W/m² 15,5 °C 22,4 °C 12,9 km/h (3 Bft)
01.09.2019 12:05 22,4 °C 67 % 1011,5 hPa 0,0 mm 3,7 km/h (1 Bft) W-SW 242 ° 0 min 0,000 mm 4,0 UV-I 355 W/m² 16,0 °C 22,4 °C 6,4 km/h (2 Bft)
01.09.2019 12:06 22,4 °C 67 % 1011,5 hPa 0,0 mm 5,6 km/h (1 Bft) W-SW 250 ° 0 min 0,000 mm 4,1 UV-I 404 W/m² 16,0 °C 22,4 °C 11,3 km/h (2 Bft)
01.09.2019 12:07 22,3 °C 67 % 1011,5 hPa 0,0 mm 5,8 km/h (2 Bft) W-SW 250 ° 0 min 0,000 mm 4,6 UV-I 404 W/m² 15,9 °C 22,3 °C 9,7 km/h (2 Bft)
01.09.2019 12:08 22,3 °C 65 % 1011,5 hPa 0,0 mm 6,3 km/h (2 Bft) W-NW 290 ° 0 min 0,000 mm 3,7 UV-I 404 W/m² 15,4 °C 22,3 °C 12,9 km/h (3 Bft)
01.09.2019 12:09 22,2 °C 65 % 1011,5 hPa 0,0 mm 6,2 km/h (2 Bft) N-NW 327 ° 0 min 0,000 mm 3,5 UV-I 281 W/m² 15,3 °C 22,2 °C 8,0 km/h (2 Bft)
01.09.2019 12:10 22,1 °C 65 % 1011,5 hPa 0,0 mm 6,1 km/h (2 Bft) W-NW 293 ° 0 min 0,000 mm 3,7 UV-I 285 W/m² 15,2 °C 22,1 °C 9,7 km/h (2 Bft)
01.09.2019 12:11 22,1 °C 66 % 1011,5 hPa 0,0 mm 6,4 km/h (2 Bft) W-SW 254 ° 0 min 0,000 mm 5,1 UV-I 285 W/m² 15,4 °C 22,1 °C 19,3 km/h (3 Bft)
01.09.2019 12:12 22,2 °C 69 % 1011,5 hPa 0,0 mm 3,1 km/h (1 Bft) S-SW 200 ° 1 min 0,000 mm 4,6 UV-I 728 W/m² 16,2 °C 22,2 °C 12,9 km/h (3 Bft)
01.09.2019 12:13 22,2 °C 69 % 1011,5 hPa 0,0 mm 7,4 km/h (2 Bft) W-SW 254 ° 1 min 0,000 mm 5,2 UV-I 728 W/m² 16,2 °C 22,2 °C 11,3 km/h (2 Bft)
01.09.2019 12:14 22,2 °C 68 % 1011,5 hPa 0,0 mm 6,8 km/h (2 Bft) W-SW 249 ° 0 min 0,000 mm 4,3 UV-I 534 W/m² 16,0 °C 22,2 °C 9,7 km/h (2 Bft)
01.09.2019 12:15 22,2 °C 68 % 1011,5 hPa 0,0 mm 6,1 km/h (2 Bft) W 266 ° 0 min 0,000 mm 3,9 UV-I 417 W/m² 16,0 °C 22,2 °C 11,3 km/h (2 Bft)
01.09.2019 12:16 22,1 °C 67 % 1011,5 hPa 0,0 mm 4,2 km/h (1 Bft) SW 225 ° 0 min 0,000 mm 4,0 UV-I 366 W/m² 15,7 °C 22,1 °C 8,0 km/h (2 Bft)
01.09.2019 12:17 22,1 °C 69 % 1011,5 hPa 0,0 mm 2,7 km/h (1 Bft) W 278 ° 0 min 0,000 mm 4,1 UV-I 454 W/m² 16,1 °C 22,1 °C 6,4 km/h (2 Bft)
01.09.2019 12:18 21,9 °C 68 % 1011,5 hPa 0,0 mm 2,4 km/h (1 Bft) W-NW 302 ° 0 min 0,000 mm 4,7 UV-I 410 W/m² 15,7 °C 21,9 °C 6,4 km/h (2 Bft)
01.09.2019 12:19 22,0 °C 68 % 1011,5 hPa 0,0 mm 6,2 km/h (2 Bft) W-SW 252 ° 0 min 0,000 mm 4,7 UV-I 410 W/m² 15,8 °C 22,0 °C 12,9 km/h (3 Bft)
01.09.2019 12:20 22,0 °C 69 % 1011,5 hPa 0,0 mm 4,6 km/h (1 Bft) W-NW 301 ° 1 min 0,000 mm 5,6 UV-I 789 W/m² 16,0 °C 22,0 °C 11,3 km/h (2 Bft)
01.09.2019 12:21 22,1 °C 70 % 1011,4 hPa 0,0 mm 1,7 km/h (1 Bft) S-SW 192 ° 1 min 0,000 mm 5,7 UV-I 784 W/m² 16,4 °C 22,1 °C 4,8 km/h (1 Bft)
01.09.2019 12:22 22,2 °C 69 % 1011,5 hPa 0,0 mm 7,2 km/h (2 Bft) W 270 ° 1 min 0,000 mm 5,7 UV-I 775 W/m² 16,2 °C 22,2 °C 9,7 km/h (2 Bft)
01.09.2019 12:23 22,3 °C 67 % 1011,4 hPa 0,0 mm 4,7 km/h (1 Bft) W-NW 297 ° 1 min 0,000 mm 5,7 UV-I 772 W/m² 15,9 °C 22,3 °C 6,4 km/h (2 Bft)
01.09.2019 12:24 22,3 °C 69 % 1011,4 hPa 0,0 mm 2,3 km/h (1 Bft) W 281 ° 1 min 0,000 mm 5,7 UV-I 772 W/m² 16,3 °C 22,3 °C 6,4 km/h (2 Bft)
01.09.2019 12:25 22,5 °C 69 % 1011,4 hPa 0,0 mm 7,8 km/h (2 Bft) W-NW 289 ° 1 min 0,000 mm 5,7 UV-I 775 W/m² 16,5 °C 22,5 °C 11,3 km/h (2 Bft)
01.09.2019 12:26 22,7 °C 68 % 1011,4 hPa 0,0 mm 5,7 km/h (1 Bft) W-NW 297 ° 1 min 0,000 mm 5,8 UV-I 788 W/m² 16,5 °C 22,7 °C 8,0 km/h (2 Bft)
01.09.2019 12:27 22,8 °C 69 % 1011,4 hPa 0,0 mm 5,8 km/h (2 Bft) W 273 ° 1 min 0,000 mm 5,8 UV-I 791 W/m² 16,8 °C 22,8 °C 14,5 km/h (3 Bft)
01.09.2019 12:28 22,9 °C 68 % 1011,4 hPa 0,0 mm 8,4 km/h (2 Bft) W 260 ° 1 min 0,000 mm 5,8 UV-I 786 W/m² 16,7 °C 22,9 °C 14,5 km/h (3 Bft)
01.09.2019 12:29 22,9 °C 68 % 1011,4 hPa 0,0 mm 5,6 km/h (1 Bft) W 281 ° 1 min 0,000 mm 5,7 UV-I 775 W/m² 16,7 °C 22,9 °C 12,9 km/h (3 Bft)
01.09.2019 12:30 22,9 °C 70 % 1011,4 hPa 0,0 mm 8,9 km/h (2 Bft) NW 317 ° 1 min 0,000 mm 5,7 UV-I 754 W/m² 17,1 °C 22,9 °C 14,5 km/h (3 Bft)
01.09.2019 12:31 23,0 °C 69 % 1011,4 hPa 0,0 mm 3,9 km/h (1 Bft) N-NW 330 ° 1 min 0,000 mm 5,7 UV-I 754 W/m² 17,0 °C 23,0 °C 6,4 km/h (2 Bft)
01.09.2019 12:32 23,0 °C 68 % 1011,4 hPa 0,0 mm 8,3 km/h (2 Bft) W 261 ° 1 min 0,000 mm 5,7 UV-I 761 W/m² 16,8 °C 23,0 °C 14,5 km/h (3 Bft)
01.09.2019 12:33 23,0 °C 67 % 1011,3 hPa 0,0 mm 5,9 km/h (2 Bft) W 261 ° 1 min 0,000 mm 5,6 UV-I 722 W/m² 16,5 °C 23,0 °C 9,7 km/h (2 Bft)
01.09.2019 12:34 23,0 °C 67 % 1011,3 hPa 0,0 mm 2,5 km/h (1 Bft) NW 315 ° 1 min 0,000 mm 5,7 UV-I 749 W/m² 16,5 °C 23,0 °C 6,4 km/h (2 Bft)
01.09.2019 12:35 22,9 °C 67 % 1011,4 hPa 0,0 mm 6,6 km/h (2 Bft) W-SW 245 ° 1 min 0,000 mm 5,5 UV-I 698 W/m² 16,4 °C 22,9 °C 11,3 km/h (2 Bft)
01.09.2019 12:36 22,9 °C 68 % 1011,3 hPa 0,0 mm 3,9 km/h (1 Bft) W 273 ° 1 min 0,000 mm 5,8 UV-I 763 W/m² 16,7 °C 22,9 °C 8,0 km/h (2 Bft)
01.09.2019 12:37 23,1 °C 70 % 1011,4 hPa 0,0 mm 8,4 km/h (2 Bft) NW 313 ° 1 min 0,000 mm 5,7 UV-I 759 W/m² 17,3 °C 23,1 °C 11,3 km/h (2 Bft)
01.09.2019 12:38 23,1 °C 69 % 1011,3 hPa 0,0 mm 4,2 km/h (1 Bft) W 267 ° 1 min 0,000 mm 5,7 UV-I 749 W/m² 17,1 °C 23,1 °C 9,7 km/h (2 Bft)
01.09.2019 12:39 23,2 °C 68 % 1011,3 hPa 0,0 mm 3,4 km/h (1 Bft) W-SW 258 ° 1 min 0,000 mm 5,7 UV-I 742 W/m² 17,0 °C 23,2 °C 9,7 km/h (2 Bft)
01.09.2019 12:40 23,2 °C 68 % 1011,3 hPa 0,0 mm 8,6 km/h (2 Bft) W 263 ° 1 min 0,000 mm 5,5 UV-I 649 W/m² 17,0 °C 23,2 °C 11,3 km/h (2 Bft)
01.09.2019 12:41 23,1 °C 67 % 1011,3 hPa 0,0 mm 6,6 km/h (2 Bft) W-NW 301 ° 1 min 0,000 mm 5,6 UV-I 673 W/m² 16,6 °C 23,1 °C 9,7 km/h (2 Bft)
01.09.2019 12:42 23,1 °C 70 % 1011,3 hPa 0,0 mm 7,2 km/h (2 Bft) W 261 ° 1 min 0,000 mm 5,7 UV-I 738 W/m² 17,3 °C 23,1 °C 14,5 km/h (3 Bft)
01.09.2019 12:43 23,1 °C 68 % 1011,3 hPa 0,0 mm 9,7 km/h (2 Bft) W-SW 243 ° 1 min 0,000 mm 5,8 UV-I 759 W/m² 16,9 °C 23,1 °C 12,9 km/h (3 Bft)
01.09.2019 12:44 23,1 °C 68 % 1011,3 hPa 0,0 mm 6,8 km/h (2 Bft) W-SW 256 ° 1 min 0,000 mm 5,7 UV-I 754 W/m² 16,9 °C 23,1 °C 9,7 km/h (2 Bft)
01.09.2019 12:45 23,1 °C 65 % 1011,3 hPa 0,0 mm 3,6 km/h (1 Bft) S-SW 194 ° 1 min 0,000 mm 5,7 UV-I 751 W/m² 16,2 °C 23,1 °C 6,4 km/h (2 Bft)
01.09.2019 12:46 23,0 °C 68 % 1011,3 hPa 0,0 mm 0,0 km/h (0 Bft) W 262 ° 1 min 0,000 mm 5,7 UV-I 747 W/m² 16,8 °C 23,0 °C 0,0 km/h (0 Bft)
01.09.2019 12:47 23,1 °C 66 % 1011,3 hPa 0,0 mm 4,5 km/h (1 Bft) NW 306 ° 1 min 0,000 mm 5,8 UV-I 751 W/m² 16,4 °C 23,1 °C 14,5 km/h (3 Bft)
01.09.2019 12:48 23,1 °C 68 % 1011,3 hPa 0,0 mm 9,3 km/h (2 Bft) W 281 ° 1 min 0,000 mm 5,7 UV-I 740 W/m² 16,9 °C 23,1 °C 14,5 km/h (3 Bft)
01.09.2019 12:49 23,0 °C 68 % 1011,3 hPa 0,0 mm 11,1 km/h (2 Bft) W-NW 295 ° 1 min 0,000 mm 5,8 UV-I 758 W/m² 16,8 °C 23,0 °C 16,1 km/h (3 Bft)
01.09.2019 12:50 23,1 °C 69 % 1011,3 hPa 0,0 mm 9,5 km/h (2 Bft) NW 307 ° 1 min 0,000 mm 5,7 UV-I 749 W/m² 17,1 °C 23,1 °C 17,7 km/h (3 Bft)
01.09.2019 12:51 23,0 °C 67 % 1011,3 hPa 0,0 mm 7,1 km/h (2 Bft) W 266 ° 1 min 0,000 mm 5,7 UV-I 749 W/m² 16,5 °C 23,0 °C 12,9 km/h (3 Bft)
01.09.2019 12:52 23,0 °C 67 % 1011,3 hPa 0,0 mm 6,1 km/h (2 Bft) NW 322 ° 1 min 0,000 mm 5,8 UV-I 756 W/m² 16,5 °C 23,0 °C 8,0 km/h (2 Bft)
01.09.2019 12:53 23,0 °C 69 % 1011,2 hPa 0,0 mm 8,6 km/h (2 Bft) W-SW 252 ° 1 min 0,000 mm 5,8 UV-I 758 W/m² 17,0 °C 23,0 °C 16,1 km/h (3 Bft)
01.09.2019 12:54 23,0 °C 69 % 1011,2 hPa 0,0 mm 12,0 km/h (2 Bft) W-SW 254 ° 1 min 0,000 mm 5,8 UV-I 756 W/m² 17,0 °C 23,0 °C 14,5 km/h (3 Bft)
01.09.2019 12:55 22,9 °C 68 % 1011,2 hPa 0,0 mm 6,2 km/h (2 Bft) NW 304 ° 1 min 0,000 mm 5,8 UV-I 765 W/m² 16,7 °C 22,9 °C 16,1 km/h (3 Bft)
01.09.2019 12:56 22,9 °C 68 % 1011,2 hPa 0,0 mm 11,3 km/h (2 Bft) W-SW 254 ° 1 min 0,000 mm 5,8 UV-I 761 W/m² 16,7 °C 22,9 °C 14,5 km/h (3 Bft)
01.09.2019 12:57 22,9 °C 70 % 1011,2 hPa 0,0 mm 5,4 km/h (1 Bft) N-NW 346 ° 1 min 0,000 mm 5,8 UV-I 763 W/m² 17,1 °C 22,9 °C 11,3 km/h (2 Bft)
01.09.2019 12:58 23,0 °C 71 % 1011,1 hPa 0,0 mm 7,4 km/h (2 Bft) NW 313 ° 1 min 0,000 mm 5,8 UV-I 768 W/m² 17,4 °C 23,0 °C 11,3 km/h (2 Bft)
01.09.2019 12:59 23,0 °C 69 % 1011,1 hPa 0,0 mm 3,0 km/h (1 Bft) NW 314 ° 1 min 0,000 mm 5,8 UV-I 772 W/m² 17,0 °C 23,0 °C 6,4 km/h (2 Bft)
01.09.2019 13:00 23,1 °C 72 % 1011,1 hPa 0,0 mm 3,8 km/h (1 Bft) W-NW 285 ° 1 min 0,000 mm 5,8 UV-I 775 W/m² 17,8 °C 23,1 °C 6,4 km/h (2 Bft)
01.09.2019 13:01 23,3 °C 71 % 1011,1 hPa 0,0 mm 2,5 km/h (1 Bft) W-NW 302 ° 1 min 0,431 mm 5,8 UV-I 759 W/m² 17,7 °C 23,3 °C 4,8 km/h (1 Bft)
01.09.2019 13:02 23,2 °C 69 % 1011,1 hPa 0,0 mm 6,2 km/h (2 Bft) W 271 ° 1 min 0,000 mm 5,8 UV-I 763 W/m² 17,2 °C 23,2 °C 8,0 km/h (2 Bft)
01.09.2019 13:03 23,3 °C 71 % 1011,1 hPa 0,0 mm 8,2 km/h (2 Bft) W-SW 256 ° 1 min 0,000 mm 5,8 UV-I 759 W/m² 17,7 °C 23,3 °C 16,1 km/h (3 Bft)
01.09.2019 13:04 23,3 °C 70 % 1011,1 hPa 0,0 mm 12,2 km/h (2 Bft) W-SW 240 ° 1 min 0,000 mm 5,8 UV-I 756 W/m² 17,5 °C 23,3 °C 16,1 km/h (3 Bft)
01.09.2019 13:05 23,2 °C 67 % 1011,1 hPa 0,0 mm 4,8 km/h (1 Bft) W-SW 243 ° 1 min 0,000 mm 5,9 UV-I 758 W/m² 16,7 °C 23,2 °C 9,7 km/h (2 Bft)
01.09.2019 13:06 23,1 °C 69 % 1011,1 hPa 0,0 mm 8,2 km/h (2 Bft) W-NW 283 ° 1 min 0,000 mm 5,9 UV-I 758 W/m² 17,1 °C 23,1 °C 11,3 km/h (2 Bft)
01.09.2019 13:07 23,1 °C 72 % 1011,1 hPa 0,0 mm 7,1 km/h (2 Bft) W 278 ° 1 min 0,000 mm 5,9 UV-I 763 W/m² 17,8 °C 23,1 °C 11,3 km/h (2 Bft)
01.09.2019 13:08 23,1 °C 69 % 1011,0 hPa 0,0 mm 5,8 km/h (2 Bft) W 269 ° 1 min 0,000 mm 5,9 UV-I 761 W/m² 17,1 °C 23,1 °C 12,9 km/h (3 Bft)
01.09.2019 13:09 23,1 °C 70 % 1011,1 hPa 0,0 mm 7,3 km/h (2 Bft) W-SW 257 ° 1 min 0,000 mm 5,9 UV-I 761 W/m² 17,3 °C 23,1 °C 11,3 km/h (2 Bft)
01.09.2019 13:10 23,2 °C 68 % 1011,0 hPa 0,0 mm 7,5 km/h (2 Bft) W-SW 246 ° 1 min 0,000 mm 5,9 UV-I 761 W/m² 17,0 °C 23,2 °C 12,9 km/h (3 Bft)
01.09.2019 13:11 23,2 °C 70 % 1011,1 hPa 0,0 mm 3,4 km/h (1 Bft) SW 236 ° 1 min 0,000 mm 5,9 UV-I 763 W/m² 17,4 °C 23,2 °C 9,7 km/h (2 Bft)
01.09.2019 13:12 23,2 °C 69 % 1011,0 hPa 0,0 mm 8,3 km/h (2 Bft) W-NW 298 ° 1 min 0,000 mm 5,9 UV-I 765 W/m² 17,2 °C 23,2 °C 14,5 km/h (3 Bft)
01.09.2019 13:13 23,2 °C 69 % 1011,1 hPa 0,0 mm 3,7 km/h (1 Bft) W-SW 252 ° 1 min 0,000 mm 5,9 UV-I 765 W/m² 17,2 °C 23,2 °C 9,7 km/h (2 Bft)
01.09.2019 13:14 23,2 °C 70 % 1011,1 hPa 0,0 mm 2,2 km/h (1 Bft) S-SW 202 ° 1 min 0,000 mm 5,9 UV-I 763 W/m² 17,4 °C 23,2 °C 9,7 km/h (2 Bft)
01.09.2019 13:15 23,2 °C 67 % 1011,1 hPa 0,0 mm 4,8 km/h (1 Bft) W 272 ° 1 min 0,000 mm 5,9 UV-I 761 W/m² 16,7 °C 23,2 °C 9,7 km/h (2 Bft)
01.09.2019 13:16 23,3 °C 69 % 1011,1 hPa 0,0 mm 3,7 km/h (1 Bft) NW 324 ° 1 min 0,000 mm 5,8 UV-I 759 W/m² 17,3 °C 23,3 °C 8,0 km/h (2 Bft)
01.09.2019 13:17 23,3 °C 70 % 1011,1 hPa 0,0 mm 3,8 km/h (1 Bft) W 272 ° 1 min 0,000 mm 5,9 UV-I 761 W/m² 17,5 °C 23,3 °C 8,0 km/h (2 Bft)
01.09.2019 13:18 23,3 °C 68 % 1011,0 hPa 0,0 mm 6,8 km/h (2 Bft) NW 311 ° 1 min 0,000 mm 5,9 UV-I 763 W/m² 17,1 °C 23,3 °C 11,3 km/h (2 Bft)
01.09.2019 13:19 23,3 °C 68 % 1011,1 hPa 0,0 mm 11,3 km/h (2 Bft) W-NW 286 ° 1 min 0,000 mm 5,9 UV-I 763 W/m² 17,1 °C 23,3 °C 17,7 km/h (3 Bft)
01.09.2019 13:20 23,3 °C 68 % 1011,1 hPa 0,0 mm 9,9 km/h (2 Bft) W 273 ° 1 min 0,000 mm 5,9 UV-I 770 W/m² 17,1 °C 23,3 °C 12,9 km/h (3 Bft)
01.09.2019 13:21 23,3 °C 66 % 1011,1 hPa 0,0 mm 5,5 km/h (1 Bft) W-NW 296 ° 1 min 0,000 mm 5,9 UV-I 773 W/m² 16,6 °C 23,3 °C 9,7 km/h (2 Bft)
01.09.2019 13:22 23,2 °C 67 % 1011,1 hPa 0,0 mm 3,2 km/h (1 Bft) W 259 ° 1 min 0,000 mm 5,9 UV-I 779 W/m² 16,7 °C 23,2 °C 6,4 km/h (2 Bft)
01.09.2019 13:23 23,2 °C 67 % 1011,0 hPa 0,0 mm 2,7 km/h (1 Bft) NW 313 ° 1 min 0,000 mm 5,9 UV-I 782 W/m² 16,7 °C 23,2 °C 6,4 km/h (2 Bft)
01.09.2019 13:24 23,2 °C 68 % 1011,0 hPa 0,0 mm 4,2 km/h (1 Bft) W 278 ° 1 min 0,000 mm 5,9 UV-I 784 W/m² 17,0 °C 23,2 °C 11,3 km/h (2 Bft)
01.09.2019 13:25 23,3 °C 69 % 1011,0 hPa 0,0 mm 9,6 km/h (2 Bft) W 269 ° 1 min 0,000 mm 5,9 UV-I 784 W/m² 17,3 °C 23,3 °C 12,9 km/h (3 Bft)
01.09.2019 13:26 23,4 °C 70 % 1011,1 hPa 0,0 mm 7,8 km/h (2 Bft) W-NW 299 ° 1 min 0,000 mm 5,9 UV-I 784 W/m² 17,6 °C 23,4 °C 11,3 km/h (2 Bft)
01.09.2019 13:27 23,4 °C 68 % 1011,0 hPa 0,0 mm 4,2 km/h (1 Bft) N-NW 329 ° 1 min 0,000 mm 5,9 UV-I 780 W/m² 17,1 °C 23,4 °C 6,4 km/h (2 Bft)
01.09.2019 13:28 23,5 °C 69 % 1011,0 hPa 0,0 mm 6,1 km/h (2 Bft) W-SW 256 ° 1 min 0,000 mm 5,9 UV-I 782 W/m² 17,5 °C 23,5 °C 9,7 km/h (2 Bft)
01.09.2019 13:29 23,5 °C 65 % 1011,1 hPa 0,0 mm 7,6 km/h (2 Bft) W-NW 294 ° 1 min 0,000 mm 5,9 UV-I 786 W/m² 16,5 °C 23,5 °C 11,3 km/h (2 Bft)
01.09.2019 13:30 23,6 °C 66 % 1011,0 hPa 0,0 mm 3,8 km/h (1 Bft) N 5 ° 1 min 0,000 mm 5,9 UV-I 796 W/m² 16,9 °C 23,6 °C 8,0 km/h (2 Bft)
01.09.2019 13:31 23,7 °C 65 % 1011,0 hPa 0,0 mm 6,9 km/h (2 Bft) NW 306 ° 1 min 0,000 mm 5,9 UV-I 784 W/m² 16,7 °C 23,7 °C 12,9 km/h (3 Bft)
01.09.2019 13:32 23,7 °C 67 % 1011,1 hPa 0,0 mm 10,1 km/h (2 Bft) N-NW 329 ° 1 min 0,000 mm 5,9 UV-I 782 W/m² 17,2 °C 23,7 °C 14,5 km/h (3 Bft)
01.09.2019 13:33 23,8 °C 66 % 1011,0 hPa 0,0 mm 1,8 km/h (1 Bft) N 5 ° 1 min 0,000 mm 5,8 UV-I 773 W/m² 17,1 °C 23,8 °C 4,8 km/h (1 Bft)
01.09.2019 13:34 23,8 °C 66 % 1011,0 hPa 0,0 mm 6,3 km/h (2 Bft) N-NW 332 ° 1 min 0,000 mm 5,8 UV-I 772 W/m² 17,1 °C 23,8 °C 9,7 km/h (2 Bft)
01.09.2019 13:35 23,7 °C 65 % 1011,0 hPa 0,0 mm 3,6 km/h (1 Bft) NW 325 ° 1 min 0,000 mm 5,8 UV-I 772 W/m² 16,7 °C 23,7 °C 6,4 km/h (2 Bft)
01.09.2019 13:36 23,7 °C 67 % 1010,9 hPa 0,0 mm 3,6 km/h (1 Bft) W 265 ° 1 min 0,000 mm 5,9 UV-I 788 W/m² 17,2 °C 23,7 °C 8,0 km/h (2 Bft)
01.09.2019 13:37 23,8 °C 65 % 1011,0 hPa 0,0 mm 5,4 km/h (1 Bft) W-NW 287 ° 1 min 0,000 mm 5,9 UV-I 812 W/m² 16,8 °C 23,8 °C 8,0 km/h (2 Bft)
01.09.2019 13:38 23,7 °C 65 % 1011,0 hPa 0,0 mm 3,0 km/h (1 Bft) NW 304 ° 1 min 0,000 mm 6,0 UV-I 817 W/m² 16,7 °C 23,7 °C 6,4 km/h (2 Bft)
01.09.2019 13:39 23,7 °C 64 % 1010,9 hPa 0,0 mm 3,5 km/h (1 Bft) W 281 ° 1 min 0,000 mm 6,0 UV-I 830 W/m² 16,5 °C 23,7 °C 6,4 km/h (2 Bft)
01.09.2019 13:40 23,6 °C 65 % 1010,9 hPa 0,0 mm 8,3 km/h (2 Bft) W 265 ° 1 min 0,000 mm 6,1 UV-I 812 W/m² 16,6 °C 23,6 °C 12,9 km/h (3 Bft)
01.09.2019 13:41 23,7 °C 67 % 1010,9 hPa 0,0 mm 4,4 km/h (1 Bft) W 279 ° 1 min 0,000 mm 5,4 UV-I 812 W/m² 17,2 °C 23,7 °C 9,7 km/h (2 Bft)
01.09.2019 13:42 23,7 °C 67 % 1010,9 hPa 0,0 mm 7,6 km/h (2 Bft) W-SW 246 ° 1 min 0,000 mm 6,1 UV-I 812 W/m² 17,2 °C 23,7 °C 11,3 km/h (2 Bft)
01.09.2019 13:43 23,7 °C 67 % 1010,9 hPa 0,0 mm 3,1 km/h (1 Bft) S-SO 168 ° 0 min 0,000 mm 3,5 UV-I 229 W/m² 17,2 °C 23,7 °C 11,3 km/h (2 Bft)
01.09.2019 13:44 23,4 °C 67 % 1010,9 hPa 0,0 mm 6,0 km/h (2 Bft) W-NW 290 ° 0 min 0,000 mm 3,4 UV-I 257 W/m² 16,9 °C 23,4 °C 9,7 km/h (2 Bft)
01.09.2019 13:45 23,3 °C 65 % 1010,9 hPa 0,0 mm 4,9 km/h (1 Bft) W 272 ° 0 min 0,000 mm 3,5 UV-I 292 W/m² 16,3 °C 23,3 °C 9,7 km/h (2 Bft)
01.09.2019 13:46 23,2 °C 66 % 1010,9 hPa 0,0 mm 9,6 km/h (2 Bft) W 265 ° 0 min 0,000 mm 3,5 UV-I 316 W/m² 16,5 °C 23,2 °C 12,9 km/h (3 Bft)
01.09.2019 13:47 23,0 °C 67 % 1010,8 hPa 0,0 mm 10,0 km/h (2 Bft) W-NW 283 ° 0 min 0,000 mm 3,8 UV-I 302 W/m² 16,5 °C 23,0 °C 14,5 km/h (3 Bft)
01.09.2019 13:48 22,9 °C 67 % 1010,8 hPa 0,0 mm 8,0 km/h (2 Bft) W-NW 297 ° 0 min 0,000 mm 5,8 UV-I 302 W/m² 16,4 °C 22,9 °C 11,3 km/h (2 Bft)
01.09.2019 13:49 22,9 °C 67 % 1010,8 hPa 0,0 mm 7,1 km/h (2 Bft) W-NW 286 ° 1 min 0,000 mm 5,9 UV-I 944 W/m² 16,4 °C 22,9 °C 11,3 km/h (2 Bft)
01.09.2019 13:50 23,2 °C 68 % 1010,8 hPa 0,0 mm 9,8 km/h (2 Bft) W-NW 291 ° 1 min 0,000 mm 6,1 UV-I 963 W/m² 17,0 °C 23,2 °C 14,5 km/h (3 Bft)
01.09.2019 13:51 23,3 °C 67 % 1010,8 hPa 0,0 mm 8,3 km/h (2 Bft) NW 306 ° 1 min 0,000 mm 5,2 UV-I 963 W/m² 16,8 °C 23,3 °C 16,1 km/h (3 Bft)
01.09.2019 13:52 23,4 °C 67 % 1010,8 hPa 0,0 mm 7,5 km/h (2 Bft) W-SW 242 ° 1 min 0,000 mm 5,6 UV-I 963 W/m² 16,9 °C 23,4 °C 12,9 km/h (3 Bft)
01.09.2019 13:53 23,6 °C 69 % 1010,8 hPa 0,0 mm 4,8 km/h (1 Bft) NW 311 ° 1 min 0,000 mm 4,4 UV-I 963 W/m² 17,6 °C 23,6 °C 12,9 km/h (3 Bft)
01.09.2019 13:54 23,7 °C 67 % 1010,8 hPa 0,0 mm 5,9 km/h (2 Bft) W-SW 246 ° 1 min 0,000 mm 5,1 UV-I 963 W/m² 17,2 °C 23,7 °C 12,9 km/h (3 Bft)
01.09.2019 13:55 23,7 °C 66 % 1010,8 hPa 0,0 mm 13,7 km/h (3 Bft) W 267 ° 0 min 0,000 mm 3,4 UV-I 302 W/m² 17,0 °C 23,7 °C 16,1 km/h (3 Bft)
01.09.2019 13:56 23,5 °C 64 % 1010,8 hPa 0,0 mm 11,2 km/h (2 Bft) W-SW 250 ° 0 min 0,000 mm 3,0 UV-I 281 W/m² 16,3 °C 23,5 °C 16,1 km/h (3 Bft)
01.09.2019 13:57 23,4 °C 67 % 1010,8 hPa 0,0 mm 8,2 km/h (2 Bft) W 278 ° 0 min 0,000 mm 2,9 UV-I 269 W/m² 16,9 °C 23,4 °C 11,3 km/h (2 Bft)
01.09.2019 13:58 23,3 °C 65 % 1010,8 hPa 0,0 mm 3,8 km/h (1 Bft) W-SW 254 ° 0 min 0,000 mm 2,8 UV-I 264 W/m² 16,3 °C 23,3 °C 8,0 km/h (2 Bft)
01.09.2019 13:59 23,2 °C 66 % 1010,8 hPa 0,0 mm 4,0 km/h (1 Bft) W-SW 238 ° 0 min 0,000 mm 2,8 UV-I 274 W/m² 16,5 °C 23,2 °C 9,7 km/h (2 Bft)
01.09.2019 14:00 23,1 °C 68 % 1010,8 hPa 0,0 mm 1,7 km/h (1 Bft) W 263 ° 0 min 0,000 mm 3,0 UV-I 297 W/m² 16,9 °C 23,1 °C 3,2 km/h (1 Bft)
01.09.2019 14:01 23,0 °C 69 % 1010,8 hPa 0,0 mm 4,6 km/h (1 Bft) W-NW 284 ° 0 min 0,458 mm 3,1 UV-I 334 W/m² 17,0 °C 23,0 °C 9,7 km/h (2 Bft)
01.09.2019 14:02 22,9 °C 68 % 1010,8 hPa 0,0 mm 3,5 km/h (1 Bft) W-NW 289 ° 0 min 0,000 mm 3,2 UV-I 339 W/m² 16,7 °C 22,9 °C 4,8 km/h (1 Bft)
01.09.2019 14:03 22,9 °C 67 % 1010,8 hPa 0,0 mm 2,1 km/h (1 Bft) N-NW 329 ° 0 min 0,000 mm 3,3 UV-I 346 W/m² 16,4 °C 22,9 °C 4,8 km/h (1 Bft)
01.09.2019 14:04 22,9 °C 68 % 1010,8 hPa 0,0 mm 2,5 km/h (1 Bft) NW 323 ° 0 min 0,000 mm 3,3 UV-I 339 W/m² 16,7 °C 22,9 °C 4,8 km/h (1 Bft)
01.09.2019 14:05 22,9 °C 70 % 1010,8 hPa 0,0 mm 3,5 km/h (1 Bft) W-NW 298 ° 0 min 0,000 mm 3,3 UV-I 329 W/m² 17,1 °C 22,9 °C 4,8 km/h (1 Bft)
01.09.2019 14:06 22,9 °C 70 % 1010,8 hPa 0,0 mm 3,0 km/h (1 Bft) N-NW 346 ° 0 min 0,000 mm 3,2 UV-I 322 W/m² 17,1 °C 22,9 °C 6,4 km/h (2 Bft)
01.09.2019 14:07 22,9 °C 70 % 1010,8 hPa 0,0 mm 5,1 km/h (1 Bft) W 264 ° 0 min 0,000 mm 3,5 UV-I 343 W/m² 17,1 °C 22,9 °C 6,4 km/h (2 Bft)
01.09.2019 14:08 22,9 °C 67 % 1010,8 hPa 0,0 mm 3,8 km/h (1 Bft) W-NW 285 ° 0 min 0,000 mm 3,3 UV-I 330 W/m² 16,4 °C 22,9 °C 6,4 km/h (2 Bft)
01.09.2019 14:09 22,9 °C 69 % 1010,8 hPa 0,0 mm 4,6 km/h (1 Bft) W 277 ° 0 min 0,000 mm 3,3 UV-I 323 W/m² 16,9 °C 22,9 °C 6,4 km/h (2 Bft)
01.09.2019 14:10 22,8 °C 66 % 1010,8 hPa 0,0 mm 5,0 km/h (1 Bft) N-NW 344 ° 0 min 0,000 mm 3,3 UV-I 318 W/m² 16,1 °C 22,8 °C 6,4 km/h (2 Bft)
01.09.2019 14:11 22,8 °C 68 % 1010,8 hPa 0,0 mm 5,7 km/h (1 Bft) W 281 ° 0 min 0,000 mm 3,3 UV-I 320 W/m² 16,6 °C 22,8 °C 8,0 km/h (2 Bft)
01.09.2019 14:12 22,8 °C 68 % 1010,8 hPa 0,0 mm 4,7 km/h (1 Bft) W-NW 296 ° 0 min 0,000 mm 3,4 UV-I 334 W/m² 16,6 °C 22,8 °C 6,4 km/h (2 Bft)
01.09.2019 14:13 22,8 °C 66 % 1010,8 hPa 0,0 mm 6,6 km/h (2 Bft) W-NW 300 ° 0 min 0,000 mm 3,5 UV-I 406 W/m² 16,1 °C 22,8 °C 9,7 km/h (2 Bft)
01.09.2019 14:14 22,8 °C 66 % 1010,8 hPa 0,0 mm 4,3 km/h (1 Bft) W-NW 286 ° 0 min 0,000 mm 5,0 UV-I 406 W/m² 16,1 °C 22,8 °C 6,4 km/h (2 Bft)
01.09.2019 14:15 22,8 °C 67 % 1010,8 hPa 0,0 mm 2,5 km/h (1 Bft) NW 325 ° 0 min 0,000 mm 5,0 UV-I 406 W/m² 16,3 °C 22,8 °C 4,8 km/h (1 Bft)
01.09.2019 14:16 22,9 °C 68 % 1010,7 hPa 0,0 mm 3,8 km/h (1 Bft) W 271 ° 0 min 0,000 mm 5,1 UV-I 406 W/m² 16,7 °C 22,9 °C 9,7 km/h (2 Bft)
01.09.2019 14:17 23,1 °C 69 % 1010,8 hPa 0,0 mm 8,6 km/h (2 Bft) NW 321 ° 0 min 0,000 mm 5,4 UV-I 406 W/m² 17,1 °C 23,1 °C 12,9 km/h (3 Bft)
01.09.2019 14:18 23,2 °C 67 % 1010,8 hPa 0,0 mm 7,0 km/h (2 Bft) N-NW 340 ° 1 min 0,000 mm 5,1 UV-I 849 W/m² 16,7 °C 23,2 °C 11,3 km/h (2 Bft)
01.09.2019 14:19 23,3 °C 68 % 1010,8 hPa 0,0 mm 6,4 km/h (2 Bft) W-NW 285 ° 1 min 0,000 mm 5,0 UV-I 821 W/m² 17,1 °C 23,3 °C 9,7 km/h (2 Bft)
01.09.2019 14:20 23,3 °C 67 % 1010,8 hPa 0,0 mm 7,7 km/h (2 Bft) W-NW 293 ° 0 min 0,000 mm 2,8 UV-I 227 W/m² 16,8 °C 23,3 °C 12,9 km/h (3 Bft)
01.09.2019 14:21 23,2 °C 67 % 1010,8 hPa 0,0 mm 4,4 km/h (1 Bft) W-NW 284 ° 0 min 0,000 mm 2,7 UV-I 223 W/m² 16,7 °C 23,2 °C 11,3 km/h (2 Bft)
01.09.2019 14:22 23,1 °C 66 % 1010,7 hPa 0,0 mm 2,9 km/h (1 Bft) W-NW 293 ° 0 min 0,000 mm 2,8 UV-I 237 W/m² 16,4 °C 23,1 °C 4,8 km/h (1 Bft)
01.09.2019 14:23 23,0 °C 66 % 1010,7 hPa 0,0 mm 2,9 km/h (1 Bft) N-NW 331 ° 0 min 0,000 mm 2,6 UV-I 230 W/m² 16,3 °C 23,0 °C 6,4 km/h (2 Bft)
01.09.2019 14:24 22,9 °C 67 % 1010,7 hPa 0,0 mm 5,2 km/h (1 Bft) N-NW 330 ° 0 min 0,000 mm 2,4 UV-I 202 W/m² 16,4 °C 22,9 °C 8,0 km/h (2 Bft)
01.09.2019 14:25 22,8 °C 68 % 1010,7 hPa 0,0 mm 2,9 km/h (1 Bft) W-SW 250 ° 0 min 0,000 mm 2,2 UV-I 174 W/m² 16,6 °C 22,8 °C 8,0 km/h (2 Bft)
01.09.2019 14:26 22,7 °C 68 % 1010,7 hPa 0,0 mm 12,6 km/h (3 Bft) W-SW 250 ° 0 min 0,000 mm 1,8 UV-I 148 W/m² 16,5 °C 22,7 °C 17,7 km/h (3 Bft)
01.09.2019 14:27 22,6 °C 67 % 1010,8 hPa 0,0 mm 8,4 km/h (2 Bft) W-NW 284 ° 0 min 0,000 mm 1,6 UV-I 132 W/m² 16,2 °C 22,6 °C 17,7 km/h (3 Bft)
01.09.2019 14:28 22,4 °C 67 % 1010,8 hPa 0,0 mm 8,4 km/h (2 Bft) NW 323 ° 0 min 0,000 mm 1,5 UV-I 121 W/m² 16,0 °C 22,4 °C 12,9 km/h (3 Bft)
01.09.2019 14:29 22,3 °C 68 % 1010,8 hPa 0,0 mm 9,9 km/h (2 Bft) W-SW 252 ° 0 min 0,000 mm 1,4 UV-I 113 W/m² 16,1 °C 22,3 °C 17,7 km/h (3 Bft)
01.09.2019 14:30 22,2 °C 69 % 1010,8 hPa 0,0 mm 13,7 km/h (3 Bft) W 281 ° 0 min 0,000 mm 1,3 UV-I 104 W/m² 16,2 °C 22,2 °C 20,9 km/h (4 Bft)
01.09.2019 14:31 22,1 °C 68 % 1010,9 hPa 0,0 mm 11,0 km/h (2 Bft) NW 309 ° 0 min 0,000 mm 1,3 UV-I 102 W/m² 15,9 °C 22,1 °C 16,1 km/h (3 Bft)
01.09.2019 14:32 21,9 °C 68 % 1010,9 hPa 0,0 mm 8,7 km/h (2 Bft) N-NW 330 ° 0 min 0,000 mm 1,2 UV-I 100 W/m² 15,7 °C 21,9 °C 12,9 km/h (3 Bft)
01.09.2019 14:33 21,8 °C 69 % 1010,9 hPa 0,0 mm 5,9 km/h (2 Bft) W-SW 252 ° 0 min 0,000 mm 1,2 UV-I 98 W/m² 15,9 °C 21,8 °C 17,7 km/h (3 Bft)
01.09.2019 14:34 21,7 °C 71 % 1010,9 hPa 0,0 mm 10,8 km/h (2 Bft) W 260 ° 0 min 0,000 mm 1,2 UV-I 98 W/m² 16,2 °C 21,7 °C 19,3 km/h (3 Bft)
01.09.2019 14:35 21,6 °C 71 % 1010,9 hPa 0,0 mm 9,3 km/h (2 Bft) W 270 ° 0 min 0,000 mm 1,2 UV-I 102 W/m² 16,1 °C 21,6 °C 12,9 km/h (3 Bft)
01.09.2019 14:36 21,4 °C 71 % 1010,9 hPa 0,0 mm 8,6 km/h (2 Bft) W 278 ° 0 min 0,000 mm 1,3 UV-I 127 W/m² 15,9 °C 21,4 °C 14,5 km/h (3 Bft)
01.09.2019 14:37 21,2 °C 71 % 1010,9 hPa 0,0 mm 7,8 km/h (2 Bft) NW 315 ° 0 min 0,000 mm 1,5 UV-I 142 W/m² 15,7 °C 21,2 °C 12,9 km/h (3 Bft)
01.09.2019 14:38 21,2 °C 72 % 1010,9 hPa 0,0 mm 8,0 km/h (2 Bft) W 278 ° 0 min 0,000 mm 1,6 UV-I 158 W/m² 15,9 °C 21,2 °C 12,9 km/h (3 Bft)
01.09.2019 14:39 21,1 °C 73 % 1010,9 hPa 0,0 mm 8,6 km/h (2 Bft) W-NW 286 ° 0 min 0,000 mm 1,6 UV-I 171 W/m² 16,1 °C 21,1 °C 14,5 km/h (3 Bft)
01.09.2019 14:40 20,9 °C 74 % 1010,9 hPa 0,0 mm 6,0 km/h (2 Bft) W 281 ° 0 min 0,000 mm 1,7 UV-I 178 W/m² 16,1 °C 20,9 °C 9,7 km/h (2 Bft)
01.09.2019 14:41 20,8 °C 74 % 1010,8 hPa 0,0 mm 5,9 km/h (2 Bft) N-NW 339 ° 0 min 0,000 mm 1,7 UV-I 181 W/m² 16,0 °C 20,8 °C 11,3 km/h (2 Bft)
01.09.2019 14:42 20,7 °C 73 % 1010,9 hPa 0,0 mm 6,3 km/h (2 Bft) NW 317 ° 0 min 0,000 mm 1,7 UV-I 183 W/m² 15,7 °C 20,7 °C 9,7 km/h (2 Bft)
01.09.2019 14:43 20,6 °C 75 % 1010,9 hPa 0,0 mm 5,5 km/h (1 Bft) W 277 ° 0 min 0,000 mm 1,8 UV-I 186 W/m² 16,0 °C 20,6 °C 9,7 km/h (2 Bft)
01.09.2019 14:44 20,5 °C 75 % 1010,9 hPa 0,0 mm 3,5 km/h (1 Bft) NW 306 ° 0 min 0,000 mm 1,8 UV-I 186 W/m² 15,9 °C 20,5 °C 6,4 km/h (2 Bft)
01.09.2019 14:45 20,4 °C 77 % 1010,9 hPa 0,0 mm 4,5 km/h (1 Bft) W-NW 299 ° 0 min 0,000 mm 1,7 UV-I 185 W/m² 16,2 °C 20,4 °C 8,0 km/h (2 Bft)
01.09.2019 14:46 20,3 °C 77 % 1010,9 hPa 0,0 mm 4,9 km/h (1 Bft) NW 311 ° 0 min 0,000 mm 1,7 UV-I 179 W/m² 16,1 °C 20,3 °C 8,0 km/h (2 Bft)
01.09.2019 14:47 20,3 °C 78 % 1010,9 hPa 0,0 mm 2,0 km/h (1 Bft) NW 322 ° 0 min 0,000 mm 1,6 UV-I 172 W/m² 16,3 °C 20,3 °C 6,4 km/h (2 Bft)
01.09.2019 14:48 20,2 °C 78 % 1010,9 hPa 0,0 mm 0,5 km/h (0 Bft) NW 321 ° 0 min 0,000 mm 1,6 UV-I 148 W/m² 16,2 °C 20,2 °C 1,6 km/h (1 Bft)
01.09.2019 14:49 20,2 °C 78 % 1010,9 hPa 0,0 mm 2,5 km/h (1 Bft) W-NW 286 ° 0 min 0,000 mm 1,4 UV-I 141 W/m² 16,2 °C 20,2 °C 4,8 km/h (1 Bft)
01.09.2019 14:50 20,1 °C 77 % 1010,9 hPa 0,0 mm 2,1 km/h (1 Bft) W-NW 297 ° 0 min 0,000 mm 1,3 UV-I 137 W/m² 15,9 °C 20,1 °C 4,8 km/h (1 Bft)
01.09.2019 14:51 20,1 °C 77 % 1010,9 hPa 0,0 mm 1,4 km/h (1 Bft) W-NW 289 ° 0 min 0,000 mm 1,2 UV-I 128 W/m² 15,9 °C 20,1 °C 3,2 km/h (1 Bft)
01.09.2019 14:52 20,1 °C 77 % 1010,9 hPa 0,0 mm 0,7 km/h (0 Bft) W-NW 288 ° 0 min 0,000 mm 1,2 UV-I 121 W/m² 15,9 °C 20,1 °C 3,2 km/h (1 Bft)
01.09.2019 14:53 20,0 °C 78 % 1010,8 hPa 0,0 mm 0,0 km/h (0 Bft) W-NW 288 ° 0 min 0,000 mm 1,1 UV-I 116 W/m² 16,0 °C 20,0 °C 0,0 km/h (0 Bft)
01.09.2019 14:54 20,0 °C 78 % 1010,8 hPa 0,0 mm 0,0 km/h (0 Bft) W-NW 288 ° 0 min 0,000 mm 1,1 UV-I 111 W/m² 16,0 °C 20,0 °C 0,0 km/h (0 Bft)
01.09.2019 14:55 19,9 °C 77 % 1010,8 hPa 0,0 mm 0,0 km/h (0 Bft) W-NW 288 ° 0 min 0,000 mm 1,1 UV-I 109 W/m² 15,7 °C 19,9 °C 0,0 km/h (0 Bft)
01.09.2019 14:56 19,9 °C 78 % 1010,8 hPa 0,0 mm 1,0 km/h (0 Bft) W-NW 289 ° 0 min 0,000 mm 1,0 UV-I 107 W/m² 15,9 °C 19,9 °C 3,2 km/h (1 Bft)
01.09.2019 14:57 19,9 °C 79 % 1010,8 hPa 0,0 mm 0,0 km/h (0 Bft) W-NW 289 ° 0 min 0,000 mm 1,1 UV-I 107 W/m² 16,1 °C 19,9 °C 0,0 km/h (0 Bft)
01.09.2019 14:58 19,9 °C 79 % 1010,8 hPa 0,0 mm 0,1 km/h (0 Bft) W-NW 289 ° 0 min 0,000 mm 1,1 UV-I 111 W/m² 16,1 °C 19,9 °C 1,6 km/h (1 Bft)
01.09.2019 14:59 19,9 °C 79 % 1010,8 hPa 0,0 mm 0,0 km/h (0 Bft) W-NW 289 ° 0 min 0,000 mm 1,1 UV-I 114 W/m² 16,1 °C 19,9 °C 0,0 km/h (0 Bft)
01.09.2019 15:00 19,9 °C 79 % 1010,8 hPa 0,0 mm 0,0 km/h (0 Bft) W-NW 289 ° 0 min 0,000 mm 1,1 UV-I 116 W/m² 16,1 °C 19,9 °C 0,0 km/h (0 Bft)
01.09.2019 15:01 19,8 °C 78 % 1010,8 hPa 0,0 mm 0,0 km/h (0 Bft) W-NW 289 ° 0 min 0,177 mm 1,1 UV-I 118 W/m² 15,8 °C 19,8 °C 0,0 km/h (0 Bft)
01.09.2019 15:02 19,8 °C 79 % 1010,8 hPa 0,0 mm 0,0 km/h (0 Bft) W-NW 289 ° 0 min 0,000 mm 1,1 UV-I 118 W/m² 16,0 °C 19,8 °C 0,0 km/h (0 Bft)
01.09.2019 15:03 19,8 °C 80 % 1010,7 hPa 0,0 mm 0,0 km/h (0 Bft) W-NW 289 ° 0 min 0,000 mm 1,1 UV-I 114 W/m² 16,2 °C 19,8 °C 0,0 km/h (0 Bft)
01.09.2019 15:04 19,8 °C 79 % 1010,7 hPa 0,0 mm 0,0 km/h (0 Bft) W-NW 289 ° 0 min 0,000 mm 1,1 UV-I 109 W/m² 16,0 °C 19,8 °C 0,0 km/h (0 Bft)
01.09.2019 15:05 19,8 °C 79 % 1010,7 hPa 0,0 mm 0,0 km/h (0 Bft) W-NW 289 ° 0 min 0,000 mm 1,0 UV-I 97 W/m² 16,0 °C 19,8 °C 0,0 km/h (0 Bft)
01.09.2019 15:06 19,7 °C 79 % 1010,7 hPa 0,0 mm 0,0 km/h (0 Bft) W 269 ° 0 min 0,000 mm 0,9 UV-I 91 W/m² 16,0 °C 19,7 °C 0,0 km/h (0 Bft)
01.09.2019 15:07 19,7 °C 79 % 1010,7 hPa 0,0 mm 0,0 km/h (0 Bft) W 269 ° 0 min 0,000 mm 0,9 UV-I 84 W/m² 16,0 °C 19,7 °C 0,0 km/h (0 Bft)
01.09.2019 15:08 19,7 °C 80 % 1010,8 hPa 0,0 mm 1,4 km/h (1 Bft) W-SW 256 ° 0 min 0,000 mm 0,8 UV-I 79 W/m² 16,1 °C 19,7 °C 6,4 km/h (2 Bft)
01.09.2019 15:09 19,7 °C 81 % 1010,8 hPa 0,0 mm 2,5 km/h (1 Bft) W-SW 255 ° 0 min 0,000 mm 0,7 UV-I 74 W/m² 16,3 °C 19,7 °C 4,8 km/h (1 Bft)
01.09.2019 15:10 19,6 °C 82 % 1010,9 hPa 0,0 mm 0,1 km/h (0 Bft) W-SW 256 ° 0 min 0,000 mm 0,7 UV-I 69 W/m² 16,4 °C 19,6 °C 1,6 km/h (1 Bft)
01.09.2019 15:11 19,6 °C 81 % 1010,9 hPa 0,0 mm 3,3 km/h (1 Bft) W-SW 256 ° 0 min 0,000 mm 0,6 UV-I 58 W/m² 16,2 °C 19,6 °C 4,8 km/h (1 Bft)
01.09.2019 15:12 19,6 °C 82 % 1010,9 hPa 0,0 mm 0,9 km/h (0 Bft) W-SW 256 ° 0 min 0,000 mm 0,0 UV-I 53 W/m² 16,4 °C 19,6 °C 3,2 km/h (1 Bft)
01.09.2019 15:13 19,5 °C 81 % 1010,9 hPa 0,0 mm 0,0 km/h (0 Bft) W-SW 256 ° 0 min 0,000 mm 0,0 UV-I 47 W/m² 16,1 °C 19,5 °C 0,0 km/h (0 Bft)
01.09.2019 15:14 19,4 °C 81 % 1011,0 hPa 0,0 mm 2,7 km/h (1 Bft) W-SW 257 ° 0 min 0,000 mm 0,0 UV-I 42 W/m² 16,1 °C 19,4 °C 6,4 km/h (2 Bft)
01.09.2019 15:15 19,4 °C 80 % 1011,0 hPa 0,0 mm 2,3 km/h (1 Bft) W-SW 249 ° 0 min 0,000 mm 0,0 UV-I 39 W/m² 15,9 °C 19,4 °C 6,4 km/h (2 Bft)
01.09.2019 15:16 19,4 °C 80 % 1011,0 hPa 0,0 mm 0,5 km/h (0 Bft) W-SW 254 ° 0 min 0,000 mm 0,0 UV-I 35 W/m² 15,9 °C 19,4 °C 1,6 km/h (1 Bft)
01.09.2019 15:17 19,4 °C 80 % 1011,0 hPa 0,0 mm 2,9 km/h (1 Bft) SW 235 ° 0 min 0,000 mm 0,0 UV-I 30 W/m² 15,9 °C 19,4 °C 4,8 km/h (1 Bft)
01.09.2019 15:18 19,3 °C 80 % 1011,1 hPa 0,0 mm 5,0 km/h (1 Bft) W-SW 252 ° 0 min 0,000 mm 0,0 UV-I 30 W/m² 15,8 °C 19,3 °C 11,3 km/h (2 Bft)
01.09.2019 15:19 19,3 °C 80 % 1011,1 hPa 0,0 mm 5,1 km/h (1 Bft) W 264 ° 0 min 0,000 mm 0,0 UV-I 30 W/m² 15,8 °C 19,3 °C 9,7 km/h (2 Bft)
01.09.2019 15:20 19,2 °C 80 % 1011,2 hPa 0,0 mm 6,9 km/h (2 Bft) W 261 ° 0 min 0,000 mm 0,0 UV-I 30 W/m² 15,7 °C 19,2 °C 12,9 km/h (3 Bft)
01.09.2019 15:21 19,2 °C 82 % 1011,1 hPa 0,0 mm 10,3 km/h (2 Bft) W 261 ° 0 min 0,000 mm 0,0 UV-I 30 W/m² 16,0 °C 19,2 °C 16,1 km/h (3 Bft)
01.09.2019 15:22 19,1 °C 81 % 1011,2 hPa 0,0 mm 17,4 km/h (3 Bft) NW 304 ° 0 min 0,000 mm 0,0 UV-I 30 W/m² 15,8 °C 19,1 °C 30,6 km/h (5 Bft)
01.09.2019 15:23 18,8 °C 80 % 1011,2 hPa 0,2 mm 13,9 km/h (3 Bft) W-NW 296 ° 0 min 0,000 mm 0,0 UV-I 33 W/m² 15,3 °C 18,8 °C 17,7 km/h (3 Bft)
01.09.2019 15:24 18,7 °C 80 % 1011,2 hPa 0,2 mm 14,1 km/h (3 Bft) W 281 ° 0 min 0,000 mm 0,0 UV-I 33 W/m² 15,2 °C 18,7 °C 17,7 km/h (3 Bft)
01.09.2019 15:25 18,4 °C 80 % 1011,2 hPa 0,0 mm 14,5 km/h (3 Bft) W 279 ° 0 min 0,000 mm 0,0 UV-I 33 W/m² 14,9 °C 18,4 °C 24,1 km/h (4 Bft)
01.09.2019 15:26 18,2 °C 81 % 1011,1 hPa 0,4 mm 11,3 km/h (2 Bft) SW 236 ° 0 min 0,000 mm 0,0 UV-I 32 W/m² 14,9 °C 18,2 °C 24,1 km/h (4 Bft)
01.09.2019 15:27 17,8 °C 82 % 1011,1 hPa 0,4 mm 5,6 km/h (1 Bft) SW 230 ° 0 min 0,000 mm 0,0 UV-I 33 W/m² 14,7 °C 17,8 °C 11,3 km/h (2 Bft)
01.09.2019 15:28 17,6 °C 83 % 1011,1 hPa 0,2 mm 7,2 km/h (2 Bft) W-SW 244 ° 0 min 0,000 mm 0,0 UV-I 33 W/m² 14,7 °C 17,6 °C 11,3 km/h (2 Bft)
01.09.2019 15:29 17,3 °C 84 % 1011,1 hPa 0,4 mm 6,2 km/h (2 Bft) S 178 ° 0 min 0,000 mm 0,0 UV-I 35 W/m² 14,6 °C 17,3 °C 11,3 km/h (2 Bft)
01.09.2019 15:30 17,1 °C 84 % 1011,0 hPa 0,0 mm 8,6 km/h (2 Bft) S 190 ° 0 min 0,000 mm 0,0 UV-I 37 W/m² 14,4 °C 17,1 °C 17,7 km/h (3 Bft)
01.09.2019 15:31 17,0 °C 84 % 1011,1 hPa 0,2 mm 5,8 km/h (2 Bft) S 184 ° 0 min 0,000 mm 0,0 UV-I 40 W/m² 14,3 °C 17,0 °C 11,3 km/h (2 Bft)
01.09.2019 15:32 16,9 °C 85 % 1011,0 hPa 0,2 mm 1,3 km/h (1 Bft) S 184 ° 0 min 0,000 mm 0,0 UV-I 44 W/m² 14,4 °C 16,9 °C 4,8 km/h (1 Bft)
01.09.2019 15:33 16,8 °C 86 % 1011,0 hPa 0,0 mm 0,0 km/h (0 Bft) S 184 ° 0 min 0,000 mm 0,0 UV-I 47 W/m² 14,4 °C 16,8 °C 0,0 km/h (0 Bft)
01.09.2019 15:34 16,6 °C 87 % 1011,0 hPa 0,2 mm 1,0 km/h (0 Bft) S 183 ° 0 min 0,000 mm 0,0 UV-I 51 W/m² 14,4 °C 16,6 °C 3,2 km/h (1 Bft)
01.09.2019 15:35 16,5 °C 88 % 1011,0 hPa 0,2 mm 2,2 km/h (1 Bft) S 182 ° 0 min 0,000 mm 0,0 UV-I 60 W/m² 14,5 °C 16,5 °C 4,8 km/h (1 Bft)
01.09.2019 15:36 16,4 °C 89 % 1011,0 hPa 0,2 mm 3,6 km/h (1 Bft) S 182 ° 0 min 0,000 mm 0,5 UV-I 63 W/m² 14,6 °C 16,4 °C 6,4 km/h (2 Bft)
01.09.2019 15:37 16,3 °C 89 % 1010,9 hPa 0,2 mm 5,2 km/h (1 Bft) S 182 ° 0 min 0,000 mm 0,6 UV-I 69 W/m² 14,5 °C 16,3 °C 8,0 km/h (2 Bft)
01.09.2019 15:38 16,2 °C 90 % 1010,9 hPa 0,0 mm 6,6 km/h (2 Bft) S 182 ° 0 min 0,000 mm 0,6 UV-I 74 W/m² 14,6 °C 16,2 °C 8,0 km/h (2 Bft)
01.09.2019 15:39 16,2 °C 90 % 1010,9 hPa 0,2 mm 5,4 km/h (1 Bft) S 181 ° 0 min 0,000 mm 0,6 UV-I 79 W/m² 14,6 °C 16,2 °C 6,4 km/h (2 Bft)
01.09.2019 15:40 16,2 °C 91 % 1010,9 hPa 0,2 mm 4,3 km/h (1 Bft) S 181 ° 0 min 0,000 mm 0,7 UV-I 88 W/m² 14,7 °C 16,2 °C 4,8 km/h (1 Bft)
01.09.2019 15:41 16,2 °C 91 % 1010,9 hPa 0,2 mm 5,2 km/h (1 Bft) S 180 ° 0 min 0,000 mm 0,8 UV-I 104 W/m² 14,7 °C 16,2 °C 8,0 km/h (2 Bft)
01.09.2019 15:42 16,1 °C 91 % 1010,9 hPa 0,0 mm 3,0 km/h (1 Bft) S 180 ° 0 min 0,000 mm 0,9 UV-I 114 W/m² 14,6 °C 16,1 °C 4,8 km/h (1 Bft)
01.09.2019 15:43 16,1 °C 91 % 1010,9 hPa 0,2 mm 5,4 km/h (1 Bft) S 180 ° 0 min 0,000 mm 1,0 UV-I 127 W/m² 14,6 °C 16,1 °C 6,4 km/h (2 Bft)
01.09.2019 15:44 16,1 °C 91 % 1010,9 hPa 0,0 mm 3,8 km/h (1 Bft) S 180 ° 0 min 0,000 mm 1,1 UV-I 142 W/m² 14,6 °C 16,1 °C 4,8 km/h (1 Bft)
01.09.2019 15:45 16,1 °C 92 % 1010,9 hPa 0,0 mm 1,7 km/h (1 Bft) S 180 ° 0 min 0,000 mm 1,2 UV-I 158 W/m² 14,8 °C 16,1 °C 3,2 km/h (1 Bft)
01.09.2019 15:46 16,1 °C 92 % 1010,9 hPa 0,2 mm 2,8 km/h (1 Bft) S 180 ° 0 min 0,000 mm 1,3 UV-I 192 W/m² 14,8 °C 16,1 °C 4,8 km/h (1 Bft)
01.09.2019 15:47 16,2 °C 92 % 1010,9 hPa 0,0 mm 0,1 km/h (0 Bft) S 180 ° 0 min 0,000 mm 1,5 UV-I 209 W/m² 14,9 °C 16,2 °C 1,6 km/h (1 Bft)
01.09.2019 15:48 16,2 °C 92 % 1010,9 hPa 0,0 mm 2,1 km/h (1 Bft) S-SW 213 ° 0 min 0,000 mm 1,7 UV-I 232 W/m² 14,9 °C 16,2 °C 6,4 km/h (2 Bft)
01.09.2019 15:49 16,3 °C 92 % 1010,9 hPa 0,0 mm 1,1 km/h (1 Bft) S-SW 213 ° 0 min 0,000 mm 1,8 UV-I 267 W/m² 15,0 °C 16,3 °C 3,2 km/h (1 Bft)
01.09.2019 15:50 16,3 °C 92 % 1010,9 hPa 0,0 mm 0,0 km/h (0 Bft) SW 223 ° 0 min 0,000 mm 2,6 UV-I 267 W/m² 15,0 °C 16,3 °C 0,0 km/h (0 Bft)
01.09.2019 15:51 16,6 °C 93 % 1010,9 hPa 0,0 mm 0,2 km/h (0 Bft) SW 223 ° 0 min 0,000 mm 2,6 UV-I 436 W/m² 15,5 °C 16,6 °C 1,6 km/h (1 Bft)
01.09.2019 15:52 16,7 °C 93 % 1011,0 hPa 0,0 mm 0,7 km/h (0 Bft) SW 222 ° 1 min 0,000 mm 3,2 UV-I 666 W/m² 15,6 °C 16,7 °C 3,2 km/h (1 Bft)
01.09.2019 15:53 16,9 °C 93 % 1011,0 hPa 0,0 mm 0,7 km/h (0 Bft) SW 218 ° 1 min 0,000 mm 3,3 UV-I 668 W/m² 15,8 °C 16,9 °C 3,2 km/h (1 Bft)
01.09.2019 15:54 17,2 °C 93 % 1010,9 hPa 0,0 mm 0,0 km/h (0 Bft) O 92 ° 1 min 0,000 mm 3,5 UV-I 714 W/m² 16,1 °C 17,2 °C 0,0 km/h (0 Bft)
01.09.2019 15:55 17,3 °C 93 % 1010,9 hPa 0,0 mm 0,0 km/h (0 Bft) S-SW 196 ° 1 min 0,000 mm 3,1 UV-I 714 W/m² 16,2 °C 17,3 °C 0,0 km/h (0 Bft)
01.09.2019 15:56 17,4 °C 93 % 1010,9 hPa 0,0 mm 0,7 km/h (0 Bft) S-SW 196 ° 0 min 0,000 mm 3,3 UV-I 545 W/m² 16,3 °C 17,4 °C 1,6 km/h (1 Bft)
01.09.2019 15:57 17,6 °C 93 % 1011,0 hPa 0,0 mm 0,5 km/h (0 Bft) SO 144 ° 0 min 0,000 mm 3,3 UV-I 577 W/m² 16,5 °C 17,6 °C 3,2 km/h (1 Bft)
01.09.2019 15:58 17,7 °C 93 % 1011,0 hPa 0,0 mm 0,0 km/h (0 Bft) SO 133 ° 0 min 0,000 mm 3,1 UV-I 464 W/m² 16,6 °C 17,7 °C 0,0 km/h (0 Bft)
01.09.2019 15:59 17,8 °C 93 % 1011,0 hPa 0,0 mm 0,0 km/h (0 Bft) SO 133 ° 0 min 0,000 mm 2,9 UV-I 424 W/m² 16,7 °C 17,8 °C 0,0 km/h (0 Bft)
01.09.2019 16:00 17,9 °C 93 % 1010,9 hPa 0,0 mm 0,0 km/h (0 Bft) SO 133 ° 0 min 0,000 mm 2,7 UV-I 385 W/m² 16,8 °C 17,9 °C 0,0 km/h (0 Bft)
01.09.2019 16:01 18,1 °C 93 % 1011,0 hPa 0,0 mm 0,0 km/h (0 Bft) SO 133 ° 0 min 0,102 mm 2,6 UV-I 345 W/m² 16,9 °C 18,1 °C 0,0 km/h (0 Bft)
01.09.2019 16:02 18,2 °C 93 % 1011,0 hPa 0,0 mm 2,6 km/h (1 Bft) SO 135 ° 0 min 0,000 mm 2,5 UV-I 327 W/m² 17,0 °C 18,2 °C 4,8 km/h (1 Bft)
01.09.2019 16:03 18,3 °C 93 % 1011,0 hPa 0,0 mm 0,6 km/h (0 Bft) SO 135 ° 0 min 0,000 mm 2,7 UV-I 376 W/m² 17,1 °C 18,3 °C 1,6 km/h (1 Bft)
01.09.2019 16:04 18,4 °C 93 % 1011,0 hPa 0,0 mm 0,4 km/h (0 Bft) SO 135 ° 0 min 0,000 mm 3,1 UV-I 457 W/m² 17,2 °C 18,4 °C 1,6 km/h (1 Bft)
01.09.2019 16:05 18,6 °C 93 % 1011,0 hPa 0,0 mm 0,0 km/h (0 Bft) SO 134 ° 0 min 0,000 mm 2,4 UV-I 325 W/m² 17,4 °C 18,6 °C 0,0 km/h (0 Bft)
01.09.2019 16:06 18,6 °C 93 % 1011,0 hPa 0,0 mm 0,0 km/h (0 Bft) SO 135 ° 0 min 0,000 mm 2,3 UV-I 304 W/m² 17,4 °C 18,6 °C 0,0 km/h (0 Bft)
01.09.2019 16:07 18,7 °C 93 % 1011,0 hPa 0,0 mm 0,0 km/h (0 Bft) SO 135 ° 0 min 0,000 mm 2,2 UV-I 283 W/m² 17,5 °C 18,7 °C 0,0 km/h (0 Bft)
01.09.2019 16:08 18,7 °C 93 % 1011,0 hPa 0,0 mm 0,0 km/h (0 Bft) SO 134 ° 0 min 0,000 mm 2,1 UV-I 274 W/m² 17,5 °C 18,7 °C 0,0 km/h (0 Bft)
01.09.2019 16:09 18,8 °C 93 % 1011,0 hPa 0,0 mm 0,0 km/h (0 Bft) SO 135 ° 0 min 0,000 mm 2,1 UV-I 269 W/m² 17,6 °C 18,8 °C 0,0 km/h (0 Bft)
01.09.2019 16:10 18,9 °C 93 % 1011,0 hPa 0,0 mm 0,0 km/h (0 Bft) SO 135 ° 0 min 0,000 mm 2,2 UV-I 260 W/m² 17,7 °C 18,9 °C 0,0 km/h (0 Bft)
01.09.2019 16:11 19,0 °C 93 % 1011,0 hPa 0,0 mm 0,0 km/h (0 Bft) SO 135 ° 0 min 0,000 mm 2,3 UV-I 262 W/m² 17,8 °C 19,0 °C 0,0 km/h (0 Bft)
01.09.2019 16:12 19,0 °C 93 % 1011,0 hPa 0,0 mm 0,0 km/h (0 Bft) SO 135 ° 0 min 0,000 mm 2,4 UV-I 264 W/m² 17,8 °C 19,0 °C 0,0 km/h (0 Bft)
01.09.2019 16:13 19,0 °C 93 % 1010,9 hPa 0,0 mm 0,0 km/h (0 Bft) SO 135 ° 0 min 0,000 mm 2,3 UV-I 250 W/m² 17,8 °C 19,0 °C 0,0 km/h (0 Bft)
01.09.2019 16:14 19,1 °C 93 % 1010,9 hPa 0,0 mm 0,0 km/h (0 Bft) SO 135 ° 0 min 0,000 mm 2,3 UV-I 221 W/m² 17,9 °C 19,1 °C 0,0 km/h (0 Bft)
01.09.2019 16:15 19,3 °C 93 % 1010,9 hPa 0,0 mm 0,0 km/h (0 Bft) SO 135 ° 0 min 0,000 mm 2,2 UV-I 207 W/m² 18,1 °C 19,3 °C 0,0 km/h (0 Bft)
01.09.2019 16:16 19,3 °C 93 % 1010,9 hPa 0,0 mm 0,0 km/h (0 Bft) SO 135 ° 0 min 0,000 mm 2,2 UV-I 193 W/m² 18,1 °C 19,3 °C 0,0 km/h (0 Bft)
01.09.2019 16:17 19,3 °C 93 % 1010,9 hPa 0,0 mm 0,0 km/h (0 Bft) SO 135 ° 0 min 0,000 mm 2,1 UV-I 178 W/m² 18,1 °C 19,3 °C 0,0 km/h (0 Bft)
01.09.2019 16:18 19,3 °C 93 % 1010,9 hPa 0,0 mm 0,0 km/h (0 Bft) SO 135 ° 0 min 0,000 mm 2,1 UV-I 171 W/m² 18,1 °C 19,3 °C 0,0 km/h (0 Bft)
01.09.2019 16:19 19,2 °C 92 % 1010,9 hPa 0,0 mm 0,0 km/h (0 Bft) SO 135 ° 0 min 0,000 mm 2,1 UV-I 174 W/m² 17,9 °C 19,2 °C 0,0 km/h (0 Bft)
01.09.2019 16:20 19,2 °C 92 % 1010,9 hPa 0,0 mm 0,0 km/h (0 Bft) SO 135 ° 0 min 0,000 mm 2,1 UV-I 186 W/m² 17,9 °C 19,2 °C 0,0 km/h (0 Bft)
01.09.2019 16:21 19,3 °C 92 % 1010,9 hPa 0,0 mm 0,0 km/h (0 Bft) SO 135 ° 0 min 0,000 mm 2,1 UV-I 199 W/m² 18,0 °C 19,3 °C 0,0 km/h (0 Bft)
01.09.2019 16:22 19,3 °C 92 % 1011,0 hPa 0,0 mm 0,0 km/h (0 Bft) SO 135 ° 0 min 0,000 mm 2,2 UV-I 220 W/m² 18,0 °C 19,3 °C 0,0 km/h (0 Bft)
01.09.2019 16:23 19,2 °C 92 % 1010,9 hPa 0,0 mm 0,0 km/h (0 Bft) SO 135 ° 0 min 0,000 mm 2,2 UV-I 214 W/m² 17,9 °C 19,2 °C 0,0 km/h (0 Bft)
01.09.2019 16:24 19,3 °C 93 % 1010,9 hPa 0,0 mm 0,0 km/h (0 Bft) SO 135 ° 0 min 0,000 mm 2,1 UV-I 202 W/m² 18,1 °C 19,3 °C 0,0 km/h (0 Bft)
01.09.2019 16:25 19,2 °C 92 % 1010,9 hPa 0,0 mm 0,0 km/h (0 Bft) SO 135 ° 0 min 0,000 mm 2,1 UV-I 197 W/m² 17,9 °C 19,2 °C 0,0 km/h (0 Bft)
01.09.2019 16:26 19,2 °C 93 % 1010,9 hPa 0,0 mm 0,0 km/h (0 Bft) SO 134 ° 0 min 0,000 mm 2,1 UV-I 183 W/m² 18,0 °C 19,2 °C 0,0 km/h (0 Bft)
01.09.2019 16:27 19,2 °C 93 % 1010,9 hPa 0,0 mm 0,0 km/h (0 Bft) SO 135 ° 0 min 0,000 mm 2,0 UV-I 179 W/m² 18,0 °C 19,2 °C 0,0 km/h (0 Bft)
01.09.2019 16:28 19,2 °C 92 % 1010,9 hPa 0,0 mm 0,0 km/h (0 Bft) SO 135 ° 0 min 0,000 mm 2,0 UV-I 185 W/m² 17,9 °C 19,2 °C 0,0 km/h (0 Bft)
01.09.2019 16:29 19,2 °C 92 % 1010,9 hPa 0,0 mm 0,0 km/h (0 Bft) SO 135 ° 0 min 0,000 mm 2,0 UV-I 200 W/m² 17,9 °C 19,2 °C 0,0 km/h (0 Bft)
01.09.2019 16:30 19,2 °C 93 % 1010,9 hPa 0,0 mm 0,0 km/h (0 Bft) SO 135 ° 0 min 0,000 mm 2,0 UV-I 211 W/m² 18,0 °C 19,2 °C 0,0 km/h (0 Bft)
01.09.2019 16:31 19,1 °C 92 % 1010,9 hPa 0,0 mm 0,0 km/h (0 Bft) SO 135 ° 0 min 0,000 mm 1,9 UV-I 213 W/m² 17,8 °C 19,1 °C 0,0 km/h (0 Bft)
01.09.2019 16:32 19,1 °C 92 % 1010,9 hPa 0,0 mm 0,0 km/h (0 Bft) SO 135 ° 0 min 0,000 mm 1,9 UV-I 213 W/m² 17,8 °C 19,1 °C 0,0 km/h (0 Bft)
01.09.2019 16:33 19,1 °C 93 % 1010,9 hPa 0,0 mm 0,0 km/h (0 Bft) SO 135 ° 0 min 0,000 mm 1,9 UV-I 211 W/m² 17,9 °C 19,1 °C 0,0 km/h (0 Bft)
01.09.2019 16:34 19,2 °C 92 % 1010,9 hPa 0,0 mm 0,0 km/h (0 Bft) SO 135 ° 0 min 0,000 mm 1,8 UV-I 211 W/m² 17,9 °C 19,2 °C 0,0 km/h (0 Bft)
01.09.2019 16:35 19,2 °C 93 % 1011,0 hPa 0,0 mm 0,0 km/h (0 Bft) SO 135 ° 0 min 0,000 mm 1,8 UV-I 213 W/m² 18,0 °C 19,2 °C 0,0 km/h (0 Bft)
01.09.2019 16:36 19,2 °C 92 % 1010,9 hPa 0,0 mm 0,0 km/h (0 Bft) SO 135 ° 0 min 0,000 mm 1,8 UV-I 220 W/m² 17,9 °C 19,2 °C 0,0 km/h (0 Bft)
01.09.2019 16:37 19,2 °C 92 % 1010,9 hPa 0,0 mm 0,0 km/h (0 Bft) SO 135 ° 0 min 0,000 mm 1,8 UV-I 229 W/m² 17,9 °C 19,2 °C 0,0 km/h (0 Bft)
01.09.2019 16:38 19,2 °C 93 % 1010,9 hPa 0,0 mm 0,0 km/h (0 Bft) SO 135 ° 0 min 0,000 mm 1,8 UV-I 237 W/m² 18,0 °C 19,2 °C 0,0 km/h (0 Bft)
01.09.2019 16:39 19,3 °C 93 % 1010,9 hPa 0,0 mm 0,0 km/h (0 Bft) SO 135 ° 0 min 0,000 mm 1,9 UV-I 246 W/m² 18,1 °C 19,3 °C 0,0 km/h (0 Bft)
01.09.2019 16:40 19,2 °C 93 % 1010,9 hPa 0,0 mm 0,0 km/h (0 Bft) SO 135 ° 0 min 0,000 mm 1,9 UV-I 241 W/m² 18,0 °C 19,2 °C 0,0 km/h (0 Bft)
01.09.2019 16:41 19,2 °C 93 % 1010,9 hPa 0,0 mm 0,0 km/h (0 Bft) SO 134 ° 0 min 0,000 mm 1,8 UV-I 232 W/m² 18,0 °C 19,2 °C 0,0 km/h (0 Bft)
01.09.2019 16:42 19,2 °C 92 % 1010,9 hPa 0,0 mm 0,0 km/h (0 Bft) SO 135 ° 0 min 0,000 mm 1,8 UV-I 220 W/m² 17,9 °C 19,2 °C 0,0 km/h (0 Bft)
01.09.2019 16:43 19,2 °C 92 % 1010,9 hPa 0,0 mm 0,0 km/h (0 Bft) SO 135 ° 0 min 0,000 mm 1,7 UV-I 206 W/m² 17,9 °C 19,2 °C 0,0 km/h (0 Bft)
01.09.2019 16:44 19,2 °C 92 % 1010,8 hPa 0,0 mm 0,0 km/h (0 Bft) SO 135 ° 0 min 0,000 mm 1,7 UV-I 192 W/m² 17,9 °C 19,2 °C 0,0 km/h (0 Bft)
01.09.2019 16:45 19,2 °C 93 % 1010,8 hPa 0,0 mm 0,0 km/h (0 Bft) SO 135 ° 0 min 0,000 mm 1,6 UV-I 174 W/m² 18,0 °C 19,2 °C 0,0 km/h (0 Bft)
01.09.2019 16:46 19,3 °C 93 % 1010,8 hPa 0,0 mm 0,0 km/h (0 Bft) SO 135 ° 0 min 0,000 mm 1,5 UV-I 172 W/m² 18,1 °C 19,3 °C 0,0 km/h (0 Bft)
01.09.2019 16:47 19,3 °C 92 % 1010,8 hPa 0,0 mm 0,0 km/h (0 Bft) SO 135 ° 0 min 0,000 mm 1,5 UV-I 174 W/m² 18,0 °C 19,3 °C 0,0 km/h (0 Bft)
01.09.2019 16:48 19,2 °C 92 % 1010,7 hPa 0,0 mm 0,1 km/h (0 Bft) SO 135 ° 0 min 0,000 mm 1,5 UV-I 176 W/m² 17,9 °C 19,2 °C 1,6 km/h (1 Bft)
01.09.2019 16:49 19,1 °C 92 % 1010,8 hPa 0,0 mm 0,3 km/h (0 Bft) SO 135 ° 0 min 0,000 mm 1,5 UV-I 183 W/m² 17,8 °C 19,1 °C 1,6 km/h (1 Bft)
01.09.2019 16:50 19,1 °C 92 % 1010,8 hPa 0,0 mm 0,0 km/h (0 Bft) SO 135 ° 0 min 0,000 mm 1,5 UV-I 188 W/m² 17,8 °C 19,1 °C 0,0 km/h (0 Bft)
01.09.2019 16:51 19,1 °C 92 % 1010,8 hPa 0,0 mm 0,0 km/h (0 Bft) SO 135 ° 0 min 0,000 mm 1,5 UV-I 192 W/m² 17,8 °C 19,1 °C 0,0 km/h (0 Bft)
01.09.2019 16:52 19,1 °C 92 % 1010,8 hPa 0,0 mm 0,0 km/h (0 Bft) SO 135 ° 0 min 0,000 mm 1,4 UV-I 188 W/m² 17,8 °C 19,1 °C 0,0 km/h (0 Bft)
01.09.2019 16:53 19,1 °C 92 % 1010,8 hPa 0,0 mm 0,0 km/h (0 Bft) SO 135 ° 0 min 0,000 mm 1,4 UV-I 179 W/m² 17,8 °C 19,1 °C 0,0 km/h (0 Bft)
01.09.2019 16:54 19,1 °C 92 % 1010,8 hPa 0,0 mm 0,0 km/h (0 Bft) SO 135 ° 0 min 0,000 mm 1,4 UV-I 178 W/m² 17,8 °C 19,1 °C 0,0 km/h (0 Bft)
01.09.2019 16:55 19,1 °C 92 % 1010,8 hPa 0,0 mm 0,0 km/h (0 Bft) SO 135 ° 0 min 0,000 mm 1,4 UV-I 179 W/m² 17,8 °C 19,1 °C 0,0 km/h (0 Bft)
01.09.2019 16:56 19,1 °C 93 % 1010,8 hPa 0,0 mm 0,0 km/h (0 Bft) SO 135 ° 0 min 0,000 mm 1,4 UV-I 169 W/m² 17,9 °C 19,1 °C 0,0 km/h (0 Bft)
01.09.2019 16:57 19,0 °C 93 % 1010,8 hPa 0,0 mm 0,0 km/h (0 Bft) SO 135 ° 0 min 0,000 mm 1,4 UV-I 153 W/m² 17,8 °C 19,0 °C 0,0 km/h (0 Bft)
01.09.2019 16:58 19,0 °C 92 % 1010,8 hPa 0,0 mm 0,0 km/h (0 Bft) SO 135 ° 0 min 0,000 mm 1,4 UV-I 163 W/m² 17,7 °C 19,0 °C 0,0 km/h (0 Bft)
01.09.2019 16:59 18,9 °C 92 % 1010,8 hPa 0,0 mm 0,0 km/h (0 Bft) SO 135 ° 0 min 0,000 mm 1,3 UV-I 132 W/m² 17,6 °C 18,9 °C 0,0 km/h (0 Bft)
01.09.2019 17:00 18,9 °C 92 % 1010,7 hPa 0,0 mm 0,0 km/h (0 Bft) SO 135 ° 0 min 0,000 mm 1,3 UV-I 130 W/m² 17,6 °C 18,9 °C 0,0 km/h (0 Bft)
01.09.2019 17:01 18,8 °C 92 % 1010,7 hPa 0,0 mm 0,0 km/h (0 Bft) SO 135 ° 0 min 0,127 mm 1,3 UV-I 127 W/m² 17,5 °C 18,8 °C 0,0 km/h (0 Bft)
01.09.2019 17:02 18,8 °C 92 % 1010,7 hPa 0,0 mm 0,0 km/h (0 Bft) SO 135 ° 0 min 0,000 mm 1,3 UV-I 125 W/m² 17,5 °C 18,8 °C 0,0 km/h (0 Bft)
01.09.2019 17:03 18,8 °C 92 % 1010,7 hPa 0,0 mm 0,0 km/h (0 Bft) SO 135 ° 0 min 0,000 mm 1,3 UV-I 132 W/m² 17,5 °C 18,8 °C 0,0 km/h (0 Bft)
01.09.2019 17:04 18,8 °C 92 % 1010,7 hPa 0,0 mm 0,0 km/h (0 Bft) SO 135 ° 0 min 0,000 mm 1,2 UV-I 137 W/m² 17,5 °C 18,8 °C 0,0 km/h (0 Bft)
01.09.2019 17:05 18,7 °C 92 % 1010,7 hPa 0,0 mm 0,0 km/h (0 Bft) SO 135 ° 0 min 0,000 mm 1,2 UV-I 137 W/m² 17,4 °C 18,7 °C 0,0 km/h (0 Bft)
01.09.2019 17:06 18,7 °C 92 % 1010,8 hPa 0,0 mm 0,7 km/h (0 Bft) SO 126 ° 0 min 0,000 mm 1,2 UV-I 135 W/m² 17,4 °C 18,7 °C 3,2 km/h (1 Bft)
01.09.2019 17:07 18,7 °C 92 % 1010,7 hPa 0,0 mm 0,1 km/h (0 Bft) SO 126 ° 0 min 0,000 mm 1,2 UV-I 135 W/m² 17,4 °C 18,7 °C 1,6 km/h (1 Bft)
01.09.2019 17:08 18,6 °C 92 % 1010,8 hPa 0,0 mm 0,0 km/h (0 Bft) SO 126 ° 0 min 0,000 mm 1,2 UV-I 135 W/m² 17,3 °C 18,6 °C 0,0 km/h (0 Bft)
01.09.2019 17:09 18,6 °C 92 % 1010,8 hPa 0,0 mm 0,0 km/h (0 Bft) SO 126 ° 0 min 0,000 mm 1,2 UV-I 137 W/m² 17,3 °C 18,6 °C 0,0 km/h (0 Bft)
01.09.2019 17:10 18,6 °C 92 % 1010,8 hPa 0,0 mm 0,0 km/h (0 Bft) SO 126 ° 0 min 0,000 mm 1,1 UV-I 135 W/m² 17,3 °C 18,6 °C 0,0 km/h (0 Bft)
01.09.2019 17:11 18,5 °C 92 % 1010,8 hPa 0,0 mm 1,7 km/h (1 Bft) S-SO 152 ° 0 min 0,000 mm 1,1 UV-I 132 W/m² 17,2 °C 18,5 °C 6,4 km/h (2 Bft)
01.09.2019 17:12 18,5 °C 93 % 1010,7 hPa 0,0 mm 0,4 km/h (0 Bft) NO 51 ° 0 min 0,000 mm 1,0 UV-I 128 W/m² 17,3 °C 18,5 °C 3,2 km/h (1 Bft)
01.09.2019 17:13 18,5 °C 93 % 1010,8 hPa 0,0 mm 0,0 km/h (0 Bft) NO 51 ° 0 min 0,000 mm 1,0 UV-I 125 W/m² 17,3 °C 18,5 °C 0,0 km/h (0 Bft)
01.09.2019 17:14 18,5 °C 93 % 1010,8 hPa 0,0 mm 0,0 km/h (0 Bft) NO 51 ° 0 min 0,000 mm 0,9 UV-I 114 W/m² 17,3 °C 18,5 °C 0,0 km/h (0 Bft)
01.09.2019 17:15 18,4 °C 93 % 1010,8 hPa 0,0 mm 0,1 km/h (0 Bft) NO 51 ° 0 min 0,000 mm 0,9 UV-I 114 W/m² 17,2 °C 18,4 °C 1,6 km/h (1 Bft)
01.09.2019 17:16 18,4 °C 92 % 1010,9 hPa 0,0 mm 0,0 km/h (0 Bft) NO 51 ° 0 min 0,000 mm 0,8 UV-I 113 W/m² 17,1 °C 18,4 °C 0,0 km/h (0 Bft)
01.09.2019 17:17 18,3 °C 93 % 1010,8 hPa 0,0 mm 0,3 km/h (0 Bft) NO 51 ° 0 min 0,000 mm 0,8 UV-I 114 W/m² 17,1 °C 18,3 °C 1,6 km/h (1 Bft)
01.09.2019 17:18 18,3 °C 93 % 1010,8 hPa 0,0 mm 0,3 km/h (0 Bft) SO 137 ° 0 min 0,000 mm 0,8 UV-I 114 W/m² 17,1 °C 18,3 °C 1,6 km/h (1 Bft)
01.09.2019 17:19 18,3 °C 92 % 1010,9 hPa 0,0 mm 0,2 km/h (0 Bft) SO 137 ° 0 min 0,000 mm 0,8 UV-I 120 W/m² 17,0 °C 18,3 °C 1,6 km/h (1 Bft)
01.09.2019 17:20 18,3 °C 92 % 1010,8 hPa 0,0 mm 0,0 km/h (0 Bft) SO 137 ° 0 min 0,000 mm 0,8 UV-I 125 W/m² 17,0 °C 18,3 °C 0,0 km/h (0 Bft)
01.09.2019 17:21 18,3 °C 93 % 1010,8 hPa 0,0 mm 0,0 km/h (0 Bft) SO 137 ° 0 min 0,000 mm 0,9 UV-I 128 W/m² 17,1 °C 18,3 °C 0,0 km/h (0 Bft)
01.09.2019 17:22 18,3 °C 92 % 1010,8 hPa 0,0 mm 0,0 km/h (0 Bft) SO 137 ° 0 min 0,000 mm 0,9 UV-I 128 W/m² 17,0 °C 18,3 °C 0,0 km/h (0 Bft)
01.09.2019 17:23 18,3 °C 93 % 1010,8 hPa 0,0 mm 0,0 km/h (0 Bft) SO 137 ° 0 min 0,000 mm 0,9 UV-I 130 W/m² 17,1 °C 18,3 °C 0,0 km/h (0 Bft)
01.09.2019 17:24 18,3 °C 93 % 1010,8 hPa 0,0 mm 0,0 km/h (0 Bft) SO 137 ° 0 min 0,000 mm 0,9 UV-I 130 W/m² 17,1 °C 18,3 °C 0,0 km/h (0 Bft)
01.09.2019 17:25 18,4 °C 93 % 1010,8 hPa 0,0 mm 0,0 km/h (0 Bft) SO 137 ° 0 min 0,000 mm 0,9 UV-I 130 W/m² 17,2 °C 18,4 °C 0,0 km/h (0 Bft)
01.09.2019 17:26 18,3 °C 93 % 1010,9 hPa 0,0 mm 0,0 km/h (0 Bft) SO 137 ° 0 min 0,000 mm 0,8 UV-I 121 W/m² 17,1 °C 18,3 °C 0,0 km/h (0 Bft)
01.09.2019 17:27 18,3 °C 93 % 1010,9 hPa 0,0 mm 0,0 km/h (0 Bft) SO 137 ° 0 min 0,000 mm 0,8 UV-I 118 W/m² 17,1 °C 18,3 °C 0,0 km/h (0 Bft)
01.09.2019 17:28 18,3 °C 93 % 1010,9 hPa 0,0 mm 0,0 km/h (0 Bft) SO 137 ° 0 min 0,000 mm 0,7 UV-I 111 W/m² 17,1 °C 18,3 °C 0,0 km/h (0 Bft)
01.09.2019 17:29 18,3 °C 93 % 1010,8 hPa 0,0 mm 0,0 km/h (0 Bft) SO 137 ° 0 min 0,000 mm 0,7 UV-I 105 W/m² 17,1 °C 18,3 °C 0,0 km/h (0 Bft)
01.09.2019 17:30 18,3 °C 93 % 1010,8 hPa 0,0 mm 0,0 km/h (0 Bft) SO 137 ° 0 min 0,000 mm 0,6 UV-I 98 W/m² 17,1 °C 18,3 °C 0,0 km/h (0 Bft)
01.09.2019 17:31 18,3 °C 93 % 1010,8 hPa 0,0 mm 0,0 km/h (0 Bft) SO 137 ° 0 min 0,000 mm 0,6 UV-I 91 W/m² 17,1 °C 18,3 °C 0,0 km/h (0 Bft)
01.09.2019 17:32 18,2 °C 93 % 1010,8 hPa 0,0 mm 0,0 km/h (0 Bft) SO 137 ° 0 min 0,000 mm 0,5 UV-I 84 W/m² 17,0 °C 18,2 °C 0,0 km/h (0 Bft)
01.09.2019 17:33 18,2 °C 93 % 1010,9 hPa 0,0 mm 0,0 km/h (0 Bft) SO 137 ° 0 min 0,000 mm 0,5 UV-I 83 W/m² 17,0 °C 18,2 °C 0,0 km/h (0 Bft)
01.09.2019 17:34 18,2 °C 93 % 1010,8 hPa 0,0 mm 0,0 km/h (0 Bft) SO 137 ° 0 min 0,000 mm 0,5 UV-I 81 W/m² 17,0 °C 18,2 °C 0,0 km/h (0 Bft)
01.09.2019 17:35 18,1 °C 93 % 1010,8 hPa 0,0 mm 1,2 km/h (1 Bft) SO 125 ° 0 min 0,000 mm 0,5 UV-I 83 W/m² 16,9 °C 18,1 °C 4,8 km/h (1 Bft)
01.09.2019 17:36 18,1 °C 93 % 1010,9 hPa 0,0 mm 0,3 km/h (0 Bft) O-SO 115 ° 0 min 0,000 mm 0,5 UV-I 86 W/m² 16,9 °C 18,1 °C 1,6 km/h (1 Bft)
01.09.2019 17:37 18,0 °C 93 % 1010,9 hPa 0,0 mm 0,0 km/h (0 Bft) O-SO 115 ° 0 min 0,000 mm 0,5 UV-I 88 W/m² 16,8 °C 18,0 °C 0,0 km/h (0 Bft)
01.09.2019 17:38 17,9 °C 93 % 1010,9 hPa 0,0 mm 0,0 km/h (0 Bft) O-SO 115 ° 0 min 0,000 mm 0,5 UV-I 84 W/m² 16,8 °C 17,9 °C 0,0 km/h (0 Bft)
01.09.2019 17:39 18,0 °C 93 % 1010,8 hPa 0,0 mm 0,1 km/h (0 Bft) O-NO 62 ° 0 min 0,000 mm 0,0 UV-I 79 W/m² 16,8 °C 18,0 °C 1,6 km/h (1 Bft)
01.09.2019 17:40 17,9 °C 93 % 1010,9 hPa 0,0 mm 0,0 km/h (0 Bft) O-NO 62 ° 0 min 0,000 mm 0,0 UV-I 77 W/m² 16,8 °C 17,9 °C 0,0 km/h (0 Bft)
01.09.2019 17:41 17,8 °C 93 % 1010,9 hPa 0,0 mm 0,0 km/h (0 Bft) O-NO 62 ° 0 min 0,000 mm 0,0 UV-I 76 W/m² 16,7 °C 17,8 °C 0,0 km/h (0 Bft)
01.09.2019 17:42 17,8 °C 93 % 1010,9 hPa 0,0 mm 0,0 km/h (0 Bft) O-NO 62 ° 0 min 0,000 mm 0,0 UV-I 74 W/m² 16,7 °C 17,8 °C 0,0 km/h (0 Bft)
01.09.2019 17:43 17,8 °C 93 % 1010,9 hPa 0,0 mm 0,0 km/h (0 Bft) O-NO 62 ° 0 min 0,000 mm 0,0 UV-I 74 W/m² 16,7 °C 17,8 °C 0,0 km/h (0 Bft)
01.09.2019 17:44 17,8 °C 93 % 1010,8 hPa 0,0 mm 0,0 km/h (0 Bft) O-NO 62 ° 0 min 0,000 mm 0,0 UV-I 74 W/m² 16,7 °C 17,8 °C 0,0 km/h (0 Bft)
01.09.2019 17:45 17,8 °C 93 % 1010,9 hPa 0,0 mm 0,0 km/h (0 Bft) O-NO 62 ° 0 min 0,000 mm 0,0 UV-I 74 W/m² 16,7 °C 17,8 °C 0,0 km/h (0 Bft)
01.09.2019 17:46 17,8 °C 93 % 1010,9 hPa 0,0 mm 0,0 km/h (0 Bft) O-NO 62 ° 0 min 0,000 mm 0,0 UV-I 72 W/m² 16,7 °C 17,8 °C 0,0 km/h (0 Bft)
01.09.2019 17:47 17,8 °C 93 % 1010,9 hPa 0,0 mm 0,0 km/h (0 Bft) O-NO 62 ° 0 min 0,000 mm 0,0 UV-I 72 W/m² 16,7 °C 17,8 °C 0,0 km/h (0 Bft)
01.09.2019 17:48 17,8 °C 93 % 1010,9 hPa 0,0 mm 0,0 km/h (0 Bft) O-NO 62 ° 0 min 0,000 mm 0,0 UV-I 72 W/m² 16,7 °C 17,8 °C 0,0 km/h (0 Bft)
01.09.2019 17:49 17,8 °C 93 % 1010,9 hPa 0,0 mm 0,0 km/h (0 Bft) O-NO 59 ° 0 min 0,000 mm 0,0 UV-I 77 W/m² 16,7 °C 17,8 °C 0,0 km/h (0 Bft)
01.09.2019 17:50 17,9 °C 93 % 1010,8 hPa 0,0 mm 0,2 km/h (0 Bft) SW 219 ° 0 min 0,000 mm 0,0 UV-I 83 W/m² 16,8 °C 17,9 °C 3,2 km/h (1 Bft)
01.09.2019 17:51 17,9 °C 93 % 1010,8 hPa 0,0 mm 0,2 km/h (0 Bft) W 261 ° 0 min 0,000 mm 0,0 UV-I 84 W/m² 16,8 °C 17,9 °C 1,6 km/h (1 Bft)
01.09.2019 17:52 17,8 °C 93 % 1010,8 hPa 0,0 mm 0,0 km/h (0 Bft) W-SW 253 ° 0 min 0,000 mm 0,0 UV-I 84 W/m² 16,7 °C 17,8 °C 0,0 km/h (0 Bft)
01.09.2019 17:53 17,8 °C 93 % 1010,9 hPa 0,0 mm 0,0 km/h (0 Bft) W-SW 253 ° 0 min 0,000 mm 0,0 UV-I 84 W/m² 16,7 °C 17,8 °C 0,0 km/h (0 Bft)
01.09.2019 17:54 17,8 °C 93 % 1010,9 hPa 0,0 mm 0,0 km/h (0 Bft) W-NW 290 ° 0 min 0,000 mm 0,0 UV-I 83 W/m² 16,7 °C 17,8 °C 0,0 km/h (0 Bft)
01.09.2019 17:55 17,8 °C 93 % 1010,8 hPa 0,0 mm 0,0 km/h (0 Bft) W-NW 290 ° 0 min 0,000 mm 0,0 UV-I 79 W/m² 16,7 °C 17,8 °C 0,0 km/h (0 Bft)
01.09.2019 17:56 17,7 °C 93 % 1010,8 hPa 0,0 mm 0,0 km/h (0 Bft) W-NW 290 ° 0 min 0,000 mm 0,0 UV-I 79 W/m² 16,6 °C 17,7 °C 0,0 km/h (0 Bft)
01.09.2019 17:57 17,7 °C 93 % 1010,8 hPa 0,0 mm 0,0 km/h (0 Bft) W-NW 290 ° 0 min 0,000 mm 0,0 UV-I 81 W/m² 16,6 °C 17,7 °C 0,0 km/h (0 Bft)
01.09.2019 17:58 17,7 °C 93 % 1010,8 hPa 0,0 mm 0,2 km/h (0 Bft) S-SO 161 ° 0 min 0,000 mm 0,0 UV-I 84 W/m² 16,6 °C 17,7 °C 3,2 km/h (1 Bft)
01.09.2019 17:59 17,7 °C 93 % 1010,8 hPa 0,0 mm 1,8 km/h (1 Bft) O-SO 117 ° 0 min 0,000 mm 0,0 UV-I 88 W/m² 16,6 °C 17,7 °C 4,8 km/h (1 Bft)
01.09.2019 18:00 17,7 °C 93 % 1010,8 hPa 0,0 mm 0,0 km/h (0 Bft) O-SO 117 ° 0 min 0,000 mm 0,0 UV-I 86 W/m² 16,6 °C 17,7 °C 0,0 km/h (0 Bft)
01.09.2019 18:01 17,7 °C 93 % 1010,9 hPa 0,0 mm 0,0 km/h (0 Bft) O-SO 117 ° 0 min 0,051 mm 0,0 UV-I 79 W/m² 16,6 °C 17,7 °C 0,0 km/h (0 Bft)
01.09.2019 18:02 17,7 °C 93 % 1010,9 hPa 0,0 mm 0,2 km/h (0 Bft) O-SO 117 ° 0 min 0,000 mm 0,0 UV-I 76 W/m² 16,6 °C 17,7 °C 3,2 km/h (1 Bft)
01.09.2019 18:03 17,7 °C 93 % 1010,9 hPa 0,0 mm 0,4 km/h (0 Bft) O-SO 117 ° 0 min 0,000 mm 0,0 UV-I 72 W/m² 16,6 °C 17,7 °C 3,2 km/h (1 Bft)
01.09.2019 18:04 17,6 °C 93 % 1010,9 hPa 0,0 mm 0,0 km/h (0 Bft) S-SO 150 ° 0 min 0,000 mm 0,0 UV-I 72 W/m² 16,5 °C 17,6 °C 0,0 km/h (0 Bft)
01.09.2019 18:05 17,6 °C 93 % 1010,9 hPa 0,0 mm 1,3 km/h (1 Bft) S-SW 198 ° 0 min 0,000 mm 0,0 UV-I 76 W/m² 16,5 °C 17,6 °C 6,4 km/h (2 Bft)
01.09.2019 18:06 17,6 °C 93 % 1010,9 hPa 0,0 mm 0,0 km/h (0 Bft) S-SW 198 ° 0 min 0,000 mm 0,0 UV-I 79 W/m² 16,5 °C 17,6 °C 0,0 km/h (0 Bft)
01.09.2019 18:07 17,6 °C 93 % 1010,9 hPa 0,0 mm 0,8 km/h (0 Bft) NO 47 ° 0 min 0,000 mm 0,0 UV-I 88 W/m² 16,5 °C 17,6 °C 1,6 km/h (1 Bft)
01.09.2019 18:08 17,6 °C 93 % 1010,9 hPa 0,0 mm 0,1 km/h (0 Bft) NO 47 ° 0 min 0,000 mm 0,0 UV-I 88 W/m² 16,5 °C 17,6 °C 1,6 km/h (1 Bft)
01.09.2019 18:09 17,6 °C 93 % 1010,9 hPa 0,0 mm 0,0 km/h (0 Bft) NO 47 ° 0 min 0,000 mm 0,0 UV-I 84 W/m² 16,5 °C 17,6 °C 0,0 km/h (0 Bft)
01.09.2019 18:10 17,6 °C 93 % 1010,9 hPa 0,0 mm 0,0 km/h (0 Bft) NO 46 ° 0 min 0,000 mm 0,0 UV-I 79 W/m² 16,5 °C 17,6 °C 0,0 km/h (0 Bft)
01.09.2019 18:11 17,5 °C 93 % 1010,9 hPa 0,0 mm 0,0 km/h (0 Bft) NO 47 ° 0 min 0,000 mm 0,0 UV-I 74 W/m² 16,4 °C 17,5 °C 0,0 km/h (0 Bft)
01.09.2019 18:12 17,5 °C 93 % 1011,0 hPa 0,0 mm 0,0 km/h (0 Bft) NO 47 ° 0 min 0,000 mm 0,0 UV-I 67 W/m² 16,4 °C 17,5 °C 0,0 km/h (0 Bft)
01.09.2019 18:13 17,5 °C 93 % 1011,0 hPa 0,0 mm 0,0 km/h (0 Bft) O-NO 74 ° 0 min 0,000 mm 0,0 UV-I 54 W/m² 16,4 °C 17,5 °C 0,0 km/h (0 Bft)
01.09.2019 18:14 17,4 °C 93 % 1011,0 hPa 0,0 mm 0,0 km/h (0 Bft) O-NO 74 ° 0 min 0,000 mm 0,0 UV-I 47 W/m² 16,3 °C 17,4 °C 0,0 km/h (0 Bft)
01.09.2019 18:15 17,4 °C 93 % 1011,0 hPa 0,0 mm 0,0 km/h (0 Bft) O-NO 74 ° 0 min 0,000 mm 0,0 UV-I 40 W/m² 16,3 °C 17,4 °C 0,0 km/h (0 Bft)
01.09.2019 18:16 17,4 °C 93 % 1011,0 hPa 0,0 mm 0,0 km/h (0 Bft) O-NO 74 ° 0 min 0,000 mm 0,0 UV-I 35 W/m² 16,3 °C 17,4 °C 0,0 km/h (0 Bft)
01.09.2019 18:17 17,4 °C 93 % 1011,0 hPa 0,0 mm 0,0 km/h (0 Bft) O-NO 74 ° 0 min 0,000 mm 0,0 UV-I 35 W/m² 16,3 °C 17,4 °C 0,0 km/h (0 Bft)
01.09.2019 18:18 17,4 °C 93 % 1011,1 hPa 0,0 mm 0,0 km/h (0 Bft) O-NO 74 ° 0 min 0,000 mm 0,0 UV-I 28 W/m² 16,3 °C 17,4 °C 0,0 km/h (0 Bft)
01.09.2019 18:19 17,4 °C 93 % 1011,0 hPa 0,0 mm 0,0 km/h (0 Bft) O-NO 74 ° 0 min 0,000 mm 0,0 UV-I 21 W/m² 16,3 °C 17,4 °C 0,0 km/h (0 Bft)
01.09.2019 18:20 17,4 °C 93 % 1011,1 hPa 0,0 mm 0,0 km/h (0 Bft) O-NO 74 ° 0 min 0,000 mm 0,0 UV-I 19 W/m² 16,3 °C 17,4 °C 0,0 km/h (0 Bft)
01.09.2019 18:21 17,3 °C 93 % 1011,1 hPa 0,0 mm 0,0 km/h (0 Bft) O-NO 74 ° 0 min 0,000 mm 0,0 UV-I 18 W/m² 16,2 °C 17,3 °C 0,0 km/h (0 Bft)
01.09.2019 18:22 17,3 °C 93 % 1011,2 hPa 0,0 mm 0,0 km/h (0 Bft) O-NO 74 ° 0 min 0,000 mm 0,0 UV-I 16 W/m² 16,2 °C 17,3 °C 0,0 km/h (0 Bft)
01.09.2019 18:23 17,3 °C 93 % 1011,2 hPa 0,0 mm 0,0 km/h (0 Bft) O-NO 74 ° 0 min 0,000 mm 0,0 UV-I 14 W/m² 16,2 °C 17,3 °C 0,0 km/h (0 Bft)
01.09.2019 18:24 17,3 °C 93 % 1011,2 hPa 0,0 mm 0,2 km/h (0 Bft) O-NO 74 ° 0 min 0,000 mm 0,0 UV-I 11 W/m² 16,2 °C 17,3 °C 1,6 km/h (1 Bft)
01.09.2019 18:25 17,3 °C 93 % 1011,2 hPa 0,0 mm 2,0 km/h (1 Bft) NW 325 ° 0 min 0,000 mm 0,0 UV-I 11 W/m² 16,2 °C 17,3 °C 6,4 km/h (2 Bft)
01.09.2019 18:26 17,3 °C 93 % 1011,3 hPa 0,0 mm 3,4 km/h (1 Bft) N-NW 346 ° 0 min 0,000 mm 0,0 UV-I 11 W/m² 16,2 °C 17,3 °C 6,4 km/h (2 Bft)
01.09.2019 18:27 17,3 °C 93 % 1011,4 hPa 0,0 mm 6,7 km/h (2 Bft) N-NW 328 ° 0 min 0,000 mm 0,0 UV-I 9 W/m² 16,2 °C 17,3 °C 12,9 km/h (3 Bft)
01.09.2019 18:28 17,4 °C 93 % 1011,4 hPa 0,0 mm 3,0 km/h (1 Bft) N 355 ° 0 min 0,000 mm 0,0 UV-I 9 W/m² 16,3 °C 17,4 °C 6,4 km/h (2 Bft)
01.09.2019 18:29 17,5 °C 93 % 1011,5 hPa 0,0 mm 1,6 km/h (1 Bft) NW 324 ° 0 min 0,000 mm 0,0 UV-I 7 W/m² 16,4 °C 17,5 °C 4,8 km/h (1 Bft)
01.09.2019 18:30 17,5 °C 93 % 1011,4 hPa 0,0 mm 0,0 km/h (0 Bft) NW 324 ° 0 min 0,000 mm 0,0 UV-I 5 W/m² 16,4 °C 17,5 °C 0,0 km/h (0 Bft)
01.09.2019 18:31 17,6 °C 93 % 1011,5 hPa 0,0 mm 4,6 km/h (1 Bft) N-NO 15 ° 0 min 0,000 mm 0,0 UV-I 7 W/m² 16,5 °C 17,6 °C 9,7 km/h (2 Bft)
01.09.2019 18:32 17,7 °C 93 % 1011,5 hPa 0,0 mm 7,5 km/h (2 Bft) N 360 ° 0 min 0,000 mm 0,0 UV-I 7 W/m² 16,6 °C 17,7 °C 16,1 km/h (3 Bft)
01.09.2019 18:33 17,7 °C 93 % 1011,5 hPa 0,0 mm 4,9 km/h (1 Bft) N 360 ° 0 min 0,000 mm 0,0 UV-I 9 W/m² 16,6 °C 17,7 °C 8,0 km/h (2 Bft)
01.09.2019 18:34 17,7 °C 93 % 1011,5 hPa 0,0 mm 4,7 km/h (1 Bft) NO 35 ° 0 min 0,000 mm 0,0 UV-I 9 W/m² 16,6 °C 17,7 °C 8,0 km/h (2 Bft)
01.09.2019 18:35 17,7 °C 93 % 1011,5 hPa 0,0 mm 4,7 km/h (1 Bft) N-NW 333 ° 0 min 0,000 mm 0,0 UV-I 12 W/m² 16,6 °C 17,7 °C 11,3 km/h (2 Bft)
01.09.2019 18:36 17,7 °C 93 % 1011,4 hPa 0,0 mm 0,4 km/h (0 Bft) N 11 ° 0 min 0,000 mm 0,0 UV-I 14 W/m² 16,6 °C 17,7 °C 3,2 km/h (1 Bft)
01.09.2019 18:37 17,6 °C 92 % 1011,4 hPa 0,0 mm 2,7 km/h (1 Bft) N-NO 22 ° 0 min 0,000 mm 0,0 UV-I 14 W/m² 16,3 °C 17,6 °C 9,7 km/h (2 Bft)
01.09.2019 18:38 17,6 °C 92 % 1011,4 hPa 0,0 mm 4,8 km/h (1 Bft) N-NO 30 ° 0 min 0,000 mm 0,0 UV-I 14 W/m² 16,3 °C 17,6 °C 9,7 km/h (2 Bft)
01.09.2019 18:39 17,6 °C 92 % 1011,4 hPa 0,0 mm 3,1 km/h (1 Bft) O 97 ° 0 min 0,000 mm 0,0 UV-I 12 W/m² 16,3 °C 17,6 °C 8,0 km/h (2 Bft)
01.09.2019 18:40 17,6 °C 92 % 1011,4 hPa 0,0 mm 0,7 km/h (0 Bft) O 97 ° 0 min 0,000 mm 0,0 UV-I 12 W/m² 16,3 °C 17,6 °C 3,2 km/h (1 Bft)
01.09.2019 18:41 17,5 °C 92 % 1011,4 hPa 0,2 mm 1,9 km/h (1 Bft) O 96 ° 0 min 0,000 mm 0,0 UV-I 11 W/m² 16,2 °C 17,5 °C 4,8 km/h (1 Bft)
01.09.2019 18:42 17,4 °C 91 % 1011,4 hPa 0,0 mm 1,7 km/h (1 Bft) O-NO 77 ° 0 min 0,000 mm 0,0 UV-I 11 W/m² 15,9 °C 17,4 °C 4,8 km/h (1 Bft)
01.09.2019 18:43 17,4 °C 91 % 1011,5 hPa 0,0 mm 1,7 km/h (1 Bft) O-NO 64 ° 0 min 0,000 mm 0,0 UV-I 11 W/m² 15,9 °C 17,4 °C 6,4 km/h (2 Bft)
01.09.2019 18:44 17,3 °C 92 % 1011,4 hPa 0,2 mm 3,0 km/h (1 Bft) O-NO 64 ° 0 min 0,000 mm 0,0 UV-I 11 W/m² 16,0 °C 17,3 °C 4,8 km/h (1 Bft)
01.09.2019 18:45 17,3 °C 92 % 1011,5 hPa 0,0 mm 1,5 km/h (1 Bft) O-NO 64 ° 0 min 0,000 mm 0,0 UV-I 11 W/m² 16,0 °C 17,3 °C 3,2 km/h (1 Bft)
01.09.2019 18:46 17,1 °C 92 % 1011,4 hPa 0,2 mm 0,5 km/h (0 Bft) O-NO 64 ° 0 min 0,000 mm 0,0 UV-I 11 W/m² 15,8 °C 17,1 °C 1,6 km/h (1 Bft)
01.09.2019 18:47 16,9 °C 91 % 1011,5 hPa 0,0 mm 1,3 km/h (1 Bft) O 100 ° 0 min 0,000 mm 0,0 UV-I 11 W/m² 15,4 °C 16,9 °C 3,2 km/h (1 Bft)
01.09.2019 18:48 16,8 °C 91 % 1011,5 hPa 0,0 mm 3,0 km/h (1 Bft) O 100 ° 0 min 0,000 mm 0,0 UV-I 11 W/m² 15,3 °C 16,8 °C 4,8 km/h (1 Bft)
01.09.2019 18:49 16,7 °C 92 % 1011,5 hPa 0,0 mm 3,2 km/h (1 Bft) O 100 ° 0 min 0,000 mm 0,0 UV-I 11 W/m² 15,4 °C 16,7 °C 4,8 km/h (1 Bft)
01.09.2019 18:50 16,6 °C 92 % 1011,5 hPa 0,0 mm 3,6 km/h (1 Bft) SO 146 ° 0 min 0,000 mm 0,0 UV-I 12 W/m² 15,3 °C 16,6 °C 4,8 km/h (1 Bft)
01.09.2019 18:51 16,6 °C 92 % 1011,5 hPa 0,0 mm 5,0 km/h (1 Bft) S 189 ° 0 min 0,000 mm 0,0 UV-I 12 W/m² 15,3 °C 16,6 °C 6,4 km/h (2 Bft)
01.09.2019 18:52 16,6 °C 92 % 1011,5 hPa 0,0 mm 3,9 km/h (1 Bft) S 189 ° 0 min 0,000 mm 0,0 UV-I 14 W/m² 15,3 °C 16,6 °C 4,8 km/h (1 Bft)
01.09.2019 18:53 16,7 °C 92 % 1011,6 hPa 0,0 mm 3,4 km/h (1 Bft) S 188 ° 0 min 0,000 mm 0,0 UV-I 16 W/m² 15,4 °C 16,7 °C 4,8 km/h (1 Bft)
01.09.2019 18:54 16,7 °C 92 % 1011,6 hPa 0,0 mm 1,9 km/h (1 Bft) S 188 ° 0 min 0,000 mm 0,0 UV-I 18 W/m² 15,4 °C 16,7 °C 3,2 km/h (1 Bft)
01.09.2019 18:55 16,7 °C 92 % 1011,6 hPa 0,0 mm 3,4 km/h (1 Bft) S-SO 168 ° 0 min 0,000 mm 0,0 UV-I 18 W/m² 15,4 °C 16,7 °C 6,4 km/h (2 Bft)
01.09.2019 18:56 16,7 °C 92 % 1011,6 hPa 0,0 mm 1,5 km/h (1 Bft) S-SO 168 ° 0 min 0,000 mm 0,0 UV-I 18 W/m² 15,4 °C 16,7 °C 3,2 km/h (1 Bft)
01.09.2019 18:57 16,6 °C 93 % 1011,6 hPa 0,0 mm 1,6 km/h (1 Bft) S-SO 168 ° 0 min 0,000 mm 0,0 UV-I 18 W/m² 15,5 °C 16,6 °C 1,6 km/h (1 Bft)
01.09.2019 18:58 16,6 °C 93 % 1011,7 hPa 0,0 mm 1,7 km/h (1 Bft) S-SO 168 ° 0 min 0,000 mm 0,0 UV-I 18 W/m² 15,5 °C 16,6 °C 3,2 km/h (1 Bft)
01.09.2019 18:59 16,6 °C 93 % 1011,7 hPa 0,0 mm 1,8 km/h (1 Bft) S-SO 168 ° 0 min 0,000 mm 0,0 UV-I 18 W/m² 15,5 °C 16,6 °C 3,2 km/h (1 Bft)
01.09.2019 19:00 16,6 °C 93 % 1011,7 hPa 0,0 mm 0,1 km/h (0 Bft) S-SO 168 ° 0 min 0,000 mm 0,0 UV-I 16 W/m² 15,5 °C 16,6 °C 1,6 km/h (1 Bft)
01.09.2019 19:01 16,5 °C 93 % 1011,7 hPa 0,0 mm 0,0 km/h (0 Bft) S-SO 168 ° 0 min 0,025 mm 0,0 UV-I 16 W/m² 15,4 °C 16,5 °C 0,0 km/h (0 Bft)
01.09.2019 19:02 16,5 °C 93 % 1011,7 hPa 0,0 mm 0,0 km/h (0 Bft) S-SO 168 ° 0 min 0,000 mm 0,0 UV-I 16 W/m² 15,4 °C 16,5 °C 0,0 km/h (0 Bft)
01.09.2019 19:03 16,6 °C 93 % 1011,7 hPa 0,0 mm 1,1 km/h (1 Bft) S-SO 168 ° 0 min 0,000 mm 0,0 UV-I 14 W/m² 15,5 °C 16,6 °C 3,2 km/h (1 Bft)
01.09.2019 19:04 16,6 °C 94 % 1011,8 hPa 0,0 mm 0,0 km/h (0 Bft) S-SO 168 ° 0 min 0,000 mm 0,0 UV-I 14 W/m² 15,6 °C 16,6 °C 0,0 km/h (0 Bft)
01.09.2019 19:05 16,7 °C 94 % 1011,8 hPa 0,0 mm 0,0 km/h (0 Bft) S-SO 168 ° 0 min 0,000 mm 0,0 UV-I 14 W/m² 15,7 °C 16,7 °C 0,0 km/h (0 Bft)
01.09.2019 19:06 16,7 °C 94 % 1011,8 hPa 0,0 mm 0,0 km/h (0 Bft) S-SO 168 ° 0 min 0,000 mm 0,0 UV-I 14 W/m² 15,7 °C 16,7 °C 0,0 km/h (0 Bft)
01.09.2019 19:07 16,7 °C 94 % 1011,8 hPa 0,0 mm 0,0 km/h (0 Bft) S-SO 168 ° 0 min 0,000 mm 0,0 UV-I 12 W/m² 15,7 °C 16,7 °C 0,0 km/h (0 Bft)
01.09.2019 19:08 16,6 °C 94 % 1011,8 hPa 0,0 mm 0,0 km/h (0 Bft) S-SO 168 ° 0 min 0,000 mm 0,0 UV-I 12 W/m² 15,6 °C 16,6 °C 0,0 km/h (0 Bft)
01.09.2019 19:09 16,6 °C 93 % 1011,8 hPa 0,0 mm 0,0 km/h (0 Bft) S-SO 168 ° 0 min 0,000 mm 0,0 UV-I 12 W/m² 15,5 °C 16,6 °C 0,0 km/h (0 Bft)
01.09.2019 19:10 16,6 °C 94 % 1011,8 hPa 0,0 mm 0,0 km/h (0 Bft) S-SO 168 ° 0 min 0,000 mm 0,0 UV-I 11 W/m² 15,6 °C 16,6 °C 0,0 km/h (0 Bft)
01.09.2019 19:11 16,6 °C 94 % 1011,8 hPa 0,0 mm 0,0 km/h (0 Bft) S-SO 168 ° 0 min 0,000 mm 0,0 UV-I 9 W/m² 15,6 °C 16,6 °C 0,0 km/h (0 Bft)
01.09.2019 19:12 16,6 °C 94 % 1011,8 hPa 0,0 mm 0,0 km/h (0 Bft) S-SO 168 ° 0 min 0,000 mm 0,0 UV-I 7 W/m² 15,6 °C 16,6 °C 0,0 km/h (0 Bft)
01.09.2019 19:13 16,6 °C 94 % 1011,9 hPa 0,0 mm 0,0 km/h (0 Bft) S-SO 168 ° 0 min 0,000 mm 0,0 UV-I 5 W/m² 15,6 °C 16,6 °C 0,0 km/h (0 Bft)
01.09.2019 19:14 16,6 °C 94 % 1011,9 hPa 0,0 mm 0,0 km/h (0 Bft) S-SO 168 ° 0 min 0,000 mm 0,0 UV-I 5 W/m² 15,6 °C 16,6 °C 0,0 km/h (0 Bft)
01.09.2019 19:15 16,6 °C 94 % 1012,0 hPa 0,0 mm 0,0 km/h (0 Bft) S-SO 168 ° 0 min 0,000 mm 0,0 UV-I 5 W/m² 15,6 °C 16,6 °C 0,0 km/h (0 Bft)
01.09.2019 19:16 16,6 °C 94 % 1012,0 hPa 0,2 mm 0,0 km/h (0 Bft) S-SO 168 ° 0 min 0,000 mm 0,0 UV-I 5 W/m² 15,6 °C 16,6 °C 0,0 km/h (0 Bft)
01.09.2019 19:17 16,6 °C 94 % 1012,0 hPa 0,0 mm 0,0 km/h (0 Bft) S-SO 168 ° 0 min 0,000 mm 0,0 UV-I 0 W/m² 15,6 °C 16,6 °C 0,0 km/h (0 Bft)
01.09.2019 19:18 16,6 °C 94 % 1012,0 hPa 0,0 mm 0,0 km/h (0 Bft) S-SO 168 ° 0 min 0,000 mm 0,0 UV-I 0 W/m² 15,6 °C 16,6 °C 0,0 km/h (0 Bft)
01.09.2019 19:19 16,6 °C 94 % 1012,0 hPa 0,0 mm 0,0 km/h (0 Bft) S-SO 168 ° 0 min 0,000 mm 0,0 UV-I 0 W/m² 15,6 °C 16,6 °C 0,0 km/h (0 Bft)
01.09.2019 19:20 16,6 °C 94 % 1012,1 hPa 0,0 mm 0,0 km/h (0 Bft) S-SO 168 ° 0 min 0,000 mm 0,0 UV-I 0 W/m² 15,6 °C 16,6 °C 0,0 km/h (0 Bft)
01.09.2019 19:21 16,6 °C 94 % 1012,1 hPa 0,0 mm 0,0 km/h (0 Bft) S-SO 168 ° 0 min 0,000 mm 0,0 UV-I 0 W/m² 15,6 °C 16,6 °C 0,0 km/h (0 Bft)
01.09.2019 19:22 16,6 °C 94 % 1012,1 hPa 0,0 mm 0,0 km/h (0 Bft) S-SO 168 ° 0 min 0,000 mm 0,0 UV-I 0 W/m² 15,6 °C 16,6 °C 0,0 km/h (0 Bft)
01.09.2019 19:23 16,6 °C 94 % 1012,2 hPa 0,0 mm 0,0 km/h (0 Bft) S-SO 168 ° 0 min 0,000 mm 0,0 UV-I 0 W/m² 15,6 °C 16,6 °C 0,0 km/h (0 Bft)
01.09.2019 19:24 16,6 °C 94 % 1012,2 hPa 0,0 mm 0,0 km/h (0 Bft) S-SO 168 ° 0 min 0,000 mm 0,0 UV-I 0 W/m² 15,6 °C 16,6 °C 0,0 km/h (0 Bft)
01.09.2019 19:25 16,6 °C 94 % 1012,2 hPa 0,0 mm 0,0 km/h (0 Bft) S-SO 168 ° 0 min 0,000 mm 0,0 UV-I 0 W/m² 15,6 °C 16,6 °C 0,0 km/h (0 Bft)
01.09.2019 19:26 16,6 °C 94 % 1012,2 hPa 0,0 mm 0,0 km/h (0 Bft) S-SO 168 ° 0 min 0,000 mm 0,0 UV-I 0 W/m² 15,6 °C 16,6 °C 0,0 km/h (0 Bft)
01.09.2019 19:27 16,6 °C 94 % 1012,2 hPa 0,0 mm 0,0 km/h (0 Bft) S-SO 168 ° 0 min 0,000 mm 0,0 UV-I 0 W/m² 15,6 °C 16,6 °C 0,0 km/h (0 Bft)
01.09.2019 19:28 16,6 °C 94 % 1012,2 hPa 0,0 mm 0,0 km/h (0 Bft) S-SO 168 ° 0 min 0,000 mm 0,0 UV-I 0 W/m² 15,6 °C 16,6 °C 0,0 km/h (0 Bft)
01.09.2019 19:29 16,6 °C 94 % 1012,2 hPa 0,0 mm 0,0 km/h (0 Bft) S-SO 168 ° 0 min 0,000 mm 0,0 UV-I 0 W/m² 15,6 °C 16,6 °C 0,0 km/h (0 Bft)
01.09.2019 19:30 16,6 °C 94 % 1012,3 hPa 0,0 mm 0,0 km/h (0 Bft) S-SO 168 ° 0 min 0,000 mm 0,0 UV-I 0 W/m² 15,6 °C 16,6 °C 0,0 km/h (0 Bft)
01.09.2019 19:31 16,6 °C 94 % 1012,2 hPa 0,0 mm 0,0 km/h (0 Bft) S-SO 168 ° 0 min 0,000 mm 0,0 UV-I 0 W/m² 15,6 °C 16,6 °C 0,0 km/h (0 Bft)
01.09.2019 19:32 16,6 °C 94 % 1012,3 hPa 0,0 mm 0,0 km/h (0 Bft) S-SO 168 ° 0 min 0,000 mm 0,0 UV-I 0 W/m² 15,6 °C 16,6 °C 0,0 km/h (0 Bft)
01.09.2019 19:33 16,6 °C 94 % 1012,3 hPa 0,0 mm 0,0 km/h (0 Bft) S-SO 168 ° 0 min 0,000 mm 0,0 UV-I 0 W/m² 15,6 °C 16,6 °C 0,0 km/h (0 Bft)
01.09.2019 19:34 16,6 °C 94 % 1012,3 hPa 0,0 mm 0,0 km/h (0 Bft) S-SO 168 ° 0 min 0,000 mm 0,0 UV-I 0 W/m² 15,6 °C 16,6 °C 0,0 km/h (0 Bft)
01.09.2019 19:35 16,6 °C 94 % 1012,3 hPa 0,0 mm 0,0 km/h (0 Bft) S-SO 168 ° 0 min 0,000 mm 0,0 UV-I 0 W/m² 15,6 °C 16,6 °C 0,0 km/h (0 Bft)
01.09.2019 19:36 16,6 °C 94 % 1012,4 hPa 0,0 mm 0,0 km/h (0 Bft) S-SO 168 ° 0 min 0,000 mm 0,0 UV-I 0 W/m² 15,6 °C 16,6 °C 0,0 km/h (0 Bft)
01.09.2019 19:37 16,5 °C 94 % 1012,4 hPa 0,0 mm 0,0 km/h (0 Bft) S-SO 168 ° 0 min 0,000 mm 0,0 UV-I 0 W/m² 15,5 °C 16,5 °C 0,0 km/h (0 Bft)
01.09.2019 19:38 16,5 °C 94 % 1012,4 hPa 0,0 mm 0,0 km/h (0 Bft) S-SO 168 ° 0 min 0,000 mm 0,0 UV-I 0 W/m² 15,5 °C 16,5 °C 0,0 km/h (0 Bft)
01.09.2019 19:39 16,5 °C 94 % 1012,4 hPa 0,2 mm 0,0 km/h (0 Bft) S-SO 168 ° 0 min 0,000 mm 0,0 UV-I 0 W/m² 15,5 °C 16,5 °C 0,0 km/h (0 Bft)
01.09.2019 19:40 16,5 °C 94 % 1012,4 hPa 0,2 mm 1,4 km/h (1 Bft) O-SO 122 ° 0 min 0,000 mm 0,0 UV-I 0 W/m² 15,5 °C 16,5 °C 4,8 km/h (1 Bft)
01.09.2019 19:41 16,4 °C 94 % 1012,4 hPa 0,0 mm 1,4 km/h (1 Bft) O 93 ° 0 min 0,000 mm 0,0 UV-I 0 W/m² 15,4 °C 16,4 °C 4,8 km/h (1 Bft)
01.09.2019 19:42 16,5 °C 94 % 1012,4 hPa 0,0 mm 2,6 km/h (1 Bft) NO 53 ° 0 min 0,000 mm 0,0 UV-I 0 W/m² 15,5 °C 16,5 °C 6,4 km/h (2 Bft)
01.09.2019 19:43 16,5 °C 94 % 1012,4 hPa 0,2 mm 2,9 km/h (1 Bft) NO 53 ° 0 min 0,000 mm 0,0 UV-I 0 W/m² 15,5 °C 16,5 °C 4,8 km/h (1 Bft)
01.09.2019 19:44 16,5 °C 94 % 1012,4 hPa 0,0 mm 1,3 km/h (1 Bft) NO 53 ° 0 min 0,000 mm 0,0 UV-I 0 W/m² 15,5 °C 16,5 °C 3,2 km/h (1 Bft)
01.09.2019 19:45 16,6 °C 94 % 1012,4 hPa 0,0 mm 0,1 km/h (0 Bft) NO 53 ° 0 min 0,000 mm 0,0 UV-I 0 W/m² 15,6 °C 16,6 °C 1,6 km/h (1 Bft)
01.09.2019 19:46 16,5 °C 94 % 1012,4 hPa 0,0 mm 0,9 km/h (0 Bft) NO 53 ° 0 min 0,000 mm 0,0 UV-I 0 W/m² 15,5 °C 16,5 °C 1,6 km/h (1 Bft)
01.09.2019 19:47 16,5 °C 94 % 1012,5 hPa 0,0 mm 0,3 km/h (0 Bft) NO 53 ° 0 min 0,000 mm 0,0 UV-I 0 W/m² 15,5 °C 16,5 °C 1,6 km/h (1 Bft)
01.09.2019 19:48 16,5 °C 94 % 1012,5 hPa 0,0 mm 0,0 km/h (0 Bft) NO 53 ° 0 min 0,000 mm 0,0 UV-I 0 W/m² 15,5 °C 16,5 °C 0,0 km/h (0 Bft)
01.09.2019 19:49 16,5 °C 94 % 1012,5 hPa 0,0 mm 0,0 km/h (0 Bft) NO 53 ° 0 min 0,000 mm 0,0 UV-I 0 W/m² 15,5 °C 16,5 °C 0,0 km/h (0 Bft)
01.09.2019 19:50 16,6 °C 94 % 1012,4 hPa 0,0 mm 0,0 km/h (0 Bft) NO 53 ° 0 min 0,000 mm 0,0 UV-I 0 W/m² 15,6 °C 16,6 °C 0,0 km/h (0 Bft)
01.09.2019 19:51 16,5 °C 94 % 1012,5 hPa 0,2 mm 0,0 km/h (0 Bft) NO 53 ° 0 min 0,000 mm 0,0 UV-I 0 W/m² 15,5 °C 16,5 °C 0,0 km/h (0 Bft)
01.09.2019 19:52 16,6 °C 94 % 1012,5 hPa 0,0 mm 0,0 km/h (0 Bft) NO 53 ° 0 min 0,000 mm 0,0 UV-I 0 W/m² 15,6 °C 16,6 °C 0,0 km/h (0 Bft)
01.09.2019 19:53 16,6 °C 94 % 1012,6 hPa 0,0 mm 0,0 km/h (0 Bft) NO 53 ° 0 min 0,000 mm 0,0 UV-I 0 W/m² 15,6 °C 16,6 °C 0,0 km/h (0 Bft)
01.09.2019 19:54 16,6 °C 95 % 1012,6 hPa 0,0 mm 0,0 km/h (0 Bft) NO 53 ° 0 min 0,000 mm 0,0 UV-I 0 W/m² 15,8 °C 16,6 °C 0,0 km/h (0 Bft)
01.09.2019 19:55 16,6 °C 95 % 1012,6 hPa 0,0 mm 0,1 km/h (0 Bft) NO 53 ° 0 min 0,000 mm 0,0 UV-I 0 W/m² 15,8 °C 16,6 °C 1,6 km/h (1 Bft)
01.09.2019 19:56 16,6 °C 95 % 1012,6 hPa 0,2 mm 1,3 km/h (1 Bft) NO 53 ° 0 min 0,000 mm 0,0 UV-I 0 W/m² 15,8 °C 16,6 °C 1,6 km/h (1 Bft)
01.09.2019 19:57 16,7 °C 95 % 1012,6 hPa 0,0 mm 1,2 km/h (1 Bft) NO 53 ° 0 min 0,000 mm 0,0 UV-I 0 W/m² 15,9 °C 16,7 °C 1,6 km/h (1 Bft)
01.09.2019 19:58 16,7 °C 95 % 1012,6 hPa 0,0 mm 2,0 km/h (1 Bft) NO 53 ° 0 min 0,000 mm 0,0 UV-I 0 W/m² 15,9 °C 16,7 °C 3,2 km/h (1 Bft)
01.09.2019 19:59 16,6 °C 94 % 1012,7 hPa 0,2 mm 1,7 km/h (1 Bft) NO 53 ° 0 min 0,000 mm 0,0 UV-I 0 W/m² 15,6 °C 16,6 °C 3,2 km/h (1 Bft)
01.09.2019 20:00 16,7 °C 94 % 1012,7 hPa 0,0 mm 0,1 km/h (0 Bft) NO 53 ° 0 min 0,000 mm 0,0 UV-I 0 W/m² 15,7 °C 16,7 °C 1,6 km/h (1 Bft)
01.09.2019 20:01 16,7 °C 94 % 1012,7 hPa 0,0 mm 1,0 km/h (0 Bft) NO 53 ° 0 min 0,000 mm 0,0 UV-I 0 W/m² 15,7 °C 16,7 °C 3,2 km/h (1 Bft)
01.09.2019 20:02 16,7 °C 94 % 1012,7 hPa 0,2 mm 0,9 km/h (0 Bft) NO 53 ° 0 min 0,000 mm 0,0 UV-I 0 W/m² 15,7 °C 16,7 °C 3,2 km/h (1 Bft)
01.09.2019 20:03 16,6 °C 94 % 1012,7 hPa 0,0 mm 0,0 km/h (0 Bft) NO 53 ° 0 min 0,000 mm 0,0 UV-I 0 W/m² 15,6 °C 16,6 °C 0,0 km/h (0 Bft)
01.09.2019 20:05 16,6 °C 94 % 1012,8 hPa 0,2 mm 0,0 km/h (0 Bft) NO 53 ° 0 min 0,000 mm 0,0 UV-I 0 W/m² 15,6 °C 16,6 °C 0,0 km/h (0 Bft)
01.09.2019 20:06 16,6 °C 94 % 1012,8 hPa 0,0 mm 0,1 km/h (0 Bft) NO 53 ° 0 min 0,000 mm 0,0 UV-I 0 W/m² 15,6 °C 16,6 °C 1,6 km/h (1 Bft)
01.09.2019 20:07 16,6 °C 94 % 1012,9 hPa 0,2 mm 1,8 km/h (1 Bft) NO 49 ° 0 min 0,000 mm 0,0 UV-I 0 W/m² 15,6 °C 16,6 °C 3,2 km/h (1 Bft)
01.09.2019 20:08 16,6 °C 95 % 1012,9 hPa 0,0 mm 0,1 km/h (0 Bft) NO 49 ° 0 min 0,000 mm 0,0 UV-I 0 W/m² 15,8 °C 16,6 °C 1,6 km/h (1 Bft)
01.09.2019 20:09 16,6 °C 95 % 1012,9 hPa 0,2 mm 0,0 km/h (0 Bft) NO 49 ° 0 min 0,000 mm 0,0 UV-I 0 W/m² 15,8 °C 16,6 °C 0,0 km/h (0 Bft)
01.09.2019 20:10 16,6 °C 95 % 1012,9 hPa 0,2 mm 0,0 km/h (0 Bft) NO 49 ° 0 min 0,000 mm 0,0 UV-I 0 W/m² 15,8 °C 16,6 °C 0,0 km/h (0 Bft)
01.09.2019 20:11 16,6 °C 94 % 1012,9 hPa 0,2 mm 2,3 km/h (1 Bft) W-NW 289 ° 0 min 0,000 mm 0,0 UV-I 0 W/m² 15,6 °C 16,6 °C 4,8 km/h (1 Bft)
01.09.2019 20:12 16,5 °C 94 % 1012,9 hPa 0,2 mm 0,1 km/h (0 Bft) W-NW 289 ° 0 min 0,000 mm 0,0 UV-I 0 W/m² 15,5 °C 16,5 °C 1,6 km/h (1 Bft)
01.09.2019 20:13 16,5 °C 95 % 1012,9 hPa 0,2 mm 1,0 km/h (0 Bft) W-NW 289 ° 0 min 0,000 mm 0,0 UV-I 0 W/m² 15,7 °C 16,5 °C 1,6 km/h (1 Bft)
01.09.2019 20:14 16,4 °C 95 % 1013,0 hPa 0,0 mm 0,2 km/h (0 Bft) W-NW 290 ° 0 min 0,000 mm 0,0 UV-I 0 W/m² 15,6 °C 16,4 °C 1,6 km/h (1 Bft)
01.09.2019 20:15 16,4 °C 95 % 1012,9 hPa 0,2 mm 0,1 km/h (0 Bft) W-NW 290 ° 0 min 0,000 mm 0,0 UV-I 0 W/m² 15,6 °C 16,4 °C 1,6 km/h (1 Bft)
01.09.2019 20:16 16,4 °C 95 % 1012,9 hPa 0,2 mm 0,0 km/h (0 Bft) W-NW 290 ° 0 min 0,000 mm 0,0 UV-I 0 W/m² 15,6 °C 16,4 °C 0,0 km/h (0 Bft)
01.09.2019 20:17 16,4 °C 95 % 1012,9 hPa 0,2 mm 0,0 km/h (0 Bft) W-NW 290 ° 0 min 0,000 mm 0,0 UV-I 0 W/m² 15,6 °C 16,4 °C 0,0 km/h (0 Bft)
01.09.2019 20:18 16,4 °C 95 % 1012,9 hPa 0,2 mm 0,0 km/h (0 Bft) W-NW 290 ° 0 min 0,000 mm 0,0 UV-I 0 W/m² 15,6 °C 16,4 °C 0,0 km/h (0 Bft)
01.09.2019 20:19 16,4 °C 95 % 1012,9 hPa 0,0 mm 0,1 km/h (0 Bft) W-NW 290 ° 0 min 0,000 mm 0,0 UV-I 0 W/m² 15,6 °C 16,4 °C 1,6 km/h (1 Bft)
01.09.2019 20:20 16,4 °C 95 % 1012,9 hPa 0,2 mm 0,0 km/h (0 Bft) W-NW 290 ° 0 min 0,000 mm 0,0 UV-I 0 W/m² 15,6 °C 16,4 °C 0,0 km/h (0 Bft)
01.09.2019 20:21 16,4 °C 95 % 1012,9 hPa 0,2 mm 0,0 km/h (0 Bft) W-NW 290 ° 0 min 0,000 mm 0,0 UV-I 0 W/m² 15,6 °C 16,4 °C 0,0 km/h (0 Bft)
01.09.2019 20:22 16,4 °C 95 % 1012,9 hPa 0,2 mm 0,1 km/h (0 Bft) W-NW 290 ° 0 min 0,000 mm 0,0 UV-I 0 W/m² 15,6 °C 16,4 °C 1,6 km/h (1 Bft)
01.09.2019 20:23 16,4 °C 95 % 1013,0 hPa 0,2 mm 0,0 km/h (0 Bft) W-NW 290 ° 0 min 0,000 mm 0,0 UV-I 0 W/m² 15,6 °C 16,4 °C 0,0 km/h (0 Bft)
01.09.2019 20:24 16,4 °C 95 % 1012,9 hPa 0,0 mm 0,0 km/h (0 Bft) W-NW 290 ° 0 min 0,000 mm 0,0 UV-I 0 W/m² 15,6 °C 16,4 °C 0,0 km/h (0 Bft)
01.09.2019 20:25 16,4 °C 95 % 1013,0 hPa 0,2 mm 0,0 km/h (0 Bft) W-NW 290 ° 0 min 0,000 mm 0,0 UV-I 0 W/m² 15,6 °C 16,4 °C 0,0 km/h (0 Bft)
01.09.2019 20:26 16,4 °C 95 % 1012,9 hPa 0,2 mm 0,0 km/h (0 Bft) W-NW 290 ° 0 min 0,000 mm 0,0 UV-I 0 W/m² 15,6 °C 16,4 °C 0,0 km/h (0 Bft)
01.09.2019 20:27 16,4 °C 95 % 1012,9 hPa 0,2 mm 0,0 km/h (0 Bft) W-NW 290 ° 0 min 0,000 mm 0,0 UV-I 0 W/m² 15,6 °C 16,4 °C 0,0 km/h (0 Bft)
01.09.2019 20:28 16,4 °C 95 % 1013,0 hPa 0,0 mm 0,0 km/h (0 Bft) W-NW 290 ° 0 min 0,000 mm 0,0 UV-I 0 W/m² 15,6 °C 16,4 °C 0,0 km/h (0 Bft)
01.09.2019 20:29 16,3 °C 95 % 1013,0 hPa 0,2 mm 0,0 km/h (0 Bft) W-NW 290 ° 0 min 0,000 mm 0,0 UV-I 0 W/m² 15,5 °C 16,3 °C 0,0 km/h (0 Bft)
01.09.2019 20:30 16,3 °C 95 % 1012,9 hPa 0,2 mm 0,0 km/h (0 Bft) W-NW 290 ° 0 min 0,000 mm 0,0 UV-I 0 W/m² 15,5 °C 16,3 °C 0,0 km/h (0 Bft)
01.09.2019 20:31 16,3 °C 95 % 1013,0 hPa 0,0 mm 0,0 km/h (0 Bft) W-NW 290 ° 0 min 0,000 mm 0,0 UV-I 0 W/m² 15,5 °C 16,3 °C 0,0 km/h (0 Bft)
01.09.2019 20:32 16,3 °C 95 % 1012,9 hPa 0,2 mm 0,0 km/h (0 Bft) W-NW 290 ° 0 min 0,000 mm 0,0 UV-I 0 W/m² 15,5 °C 16,3 °C 0,0 km/h (0 Bft)
01.09.2019 20:33 16,3 °C 95 % 1013,0 hPa 0,0 mm 0,0 km/h (0 Bft) W-NW 290 ° 0 min 0,000 mm 0,0 UV-I 0 W/m² 15,5 °C 16,3 °C 0,0 km/h (0 Bft)
01.09.2019 20:34 16,3 °C 95 % 1013,0 hPa 0,2 mm 0,0 km/h (0 Bft) W-NW 290 ° 0 min 0,000 mm 0,0 UV-I 0 W/m² 15,5 °C 16,3 °C 0,0 km/h (0 Bft)
01.09.2019 20:35 16,3 °C 95 % 1012,9 hPa 0,0 mm 0,0 km/h (0 Bft) W-NW 290 ° 0 min 0,000 mm 0,0 UV-I 0 W/m² 15,5 °C 16,3 °C 0,0 km/h (0 Bft)
01.09.2019 20:36 16,3 °C 95 % 1013,0 hPa 0,2 mm 0,0 km/h (0 Bft) W-NW 290 ° 0 min 0,000 mm 0,0 UV-I 0 W/m² 15,5 °C 16,3 °C 0,0 km/h (0 Bft)
01.09.2019 20:37 16,2 °C 95 % 1013,0 hPa 0,0 mm 0,0 km/h (0 Bft) W-NW 290 ° 0 min 0,000 mm 0,0 UV-I 0 W/m² 15,4 °C 16,2 °C 0,0 km/h (0 Bft)
01.09.2019 20:38 16,2 °C 95 % 1013,1 hPa 0,0 mm 0,0 km/h (0 Bft) W-NW 290 ° 0 min 0,000 mm 0,0 UV-I 0 W/m² 15,4 °C 16,2 °C 0,0 km/h (0 Bft)
01.09.2019 20:39 16,2 °C 95 % 1013,1 hPa 0,2 mm 0,0 km/h (0 Bft) W-NW 290 ° 0 min 0,000 mm 0,0 UV-I 0 W/m² 15,4 °C 16,2 °C 0,0 km/h (0 Bft)
01.09.2019 20:40 16,1 °C 95 % 1013,1 hPa 0,0 mm 0,0 km/h (0 Bft) W-NW 290 ° 0 min 0,000 mm 0,0 UV-I 0 W/m² 15,3 °C 16,1 °C 0,0 km/h (0 Bft)
01.09.2019 20:41 16,1 °C 95 % 1013,1 hPa 0,0 mm 0,0 km/h (0 Bft) W-NW 290 ° 0 min 0,000 mm 0,0 UV-I 0 W/m² 15,3 °C 16,1 °C 0,0 km/h (0 Bft)
01.09.2019 20:42 16,1 °C 95 % 1013,1 hPa 0,2 mm 0,0 km/h (0 Bft) W-NW 290 ° 0 min 0,000 mm 0,0 UV-I 0 W/m² 15,3 °C 16,1 °C 0,0 km/h (0 Bft)
01.09.2019 20:43 16,1 °C 95 % 1013,1 hPa 0,0 mm 0,0 km/h (0 Bft) W-NW 290 ° 0 min 0,000 mm 0,0 UV-I 0 W/m² 15,3 °C 16,1 °C 0,0 km/h (0 Bft)
01.09.2019 20:44 16,1 °C 95 % 1013,1 hPa 0,0 mm 0,0 km/h (0 Bft) W-NW 290 ° 0 min 0,000 mm 0,0 UV-I 0 W/m² 15,3 °C 16,1 °C 0,0 km/h (0 Bft)
01.09.2019 20:45 16,1 °C 95 % 1013,1 hPa 0,0 mm 0,0 km/h (0 Bft) W-NW 290 ° 0 min 0,000 mm 0,0 UV-I 0 W/m² 15,3 °C 16,1 °C 0,0 km/h (0 Bft)
01.09.2019 20:46 16,1 °C 95 % 1013,2 hPa 0,0 mm 0,0 km/h (0 Bft) W-NW 290 ° 0 min 0,000 mm 0,0 UV-I 0 W/m² 15,3 °C 16,1 °C 0,0 km/h (0 Bft)
01.09.2019 20:47 16,1 °C 95 % 1013,2 hPa 0,0 mm 0,0 km/h (0 Bft) W-NW 290 ° 0 min 0,000 mm 0,0 UV-I 0 W/m² 15,3 °C 16,1 °C 0,0 km/h (0 Bft)
01.09.2019 20:48 16,1 °C 95 % 1013,2 hPa 0,2 mm 0,0 km/h (0 Bft) W-NW 290 ° 0 min 0,000 mm 0,0 UV-I 0 W/m² 15,3 °C 16,1 °C 0,0 km/h (0 Bft)
01.09.2019 20:49 16,0 °C 95 % 1013,2 hPa 0,0 mm 0,0 km/h (0 Bft) W-NW 290 ° 0 min 0,000 mm 0,0 UV-I 0 W/m² 15,2 °C 16,0 °C 0,0 km/h (0 Bft)
01.09.2019 20:50 16,0 °C 95 % 1013,2 hPa 0,0 mm 0,0 km/h (0 Bft) W-NW 290 ° 0 min 0,000 mm 0,0 UV-I 0 W/m² 15,2 °C 16,0 °C 0,0 km/h (0 Bft)
01.09.2019 20:51 16,0 °C 95 % 1013,2 hPa 0,0 mm 0,0 km/h (0 Bft) W-NW 290 ° 0 min 0,000 mm 0,0 UV-I 0 W/m² 15,2 °C 16,0 °C 0,0 km/h (0 Bft)
01.09.2019 20:52 16,0 °C 95 % 1013,2 hPa 0,0 mm 0,0 km/h (0 Bft) W-NW 290 ° 0 min 0,000 mm 0,0 UV-I 0 W/m² 15,2 °C 16,0 °C 0,0 km/h (0 Bft)
01.09.2019 20:53 15,9 °C 95 % 1013,2 hPa 0,0 mm 0,0 km/h (0 Bft) W-NW 290 ° 0 min 0,000 mm 0,0 UV-I 0 W/m² 15,1 °C 15,9 °C 0,0 km/h (0 Bft)
01.09.2019 20:54 15,9 °C 95 % 1013,2 hPa 0,0 mm 0,0 km/h (0 Bft) W-NW 290 ° 0 min 0,000 mm 0,0 UV-I 0 W/m² 15,1 °C 15,9 °C 0,0 km/h (0 Bft)
01.09.2019 20:55 15,9 °C 95 % 1013,3 hPa 0,0 mm 0,0 km/h (0 Bft) W-NW 290 ° 0 min 0,000 mm 0,0 UV-I 0 W/m² 15,1 °C 15,9 °C 0,0 km/h (0 Bft)
01.09.2019 20:56 15,9 °C 95 % 1013,2 hPa 0,2 mm 0,0 km/h (0 Bft) W-NW 290 ° 0 min 0,000 mm 0,0 UV-I 0 W/m² 15,1 °C 15,9 °C 0,0 km/h (0 Bft)
01.09.2019 20:57 15,9 °C 95 % 1013,2 hPa 0,0 mm 0,0 km/h (0 Bft) W-NW 290 ° 0 min 0,000 mm 0,0 UV-I 0 W/m² 15,1 °C 15,9 °C 0,0 km/h (0 Bft)
01.09.2019 20:58 15,9 °C 95 % 1013,3 hPa 0,0 mm 0,0 km/h (0 Bft) W-NW 290 ° 0 min 0,000 mm 0,0 UV-I 0 W/m² 15,1 °C 15,9 °C 0,0 km/h (0 Bft)
01.09.2019 20:59 15,9 °C 95 % 1013,3 hPa 0,0 mm 0,0 km/h (0 Bft) W-NW 290 ° 0 min 0,000 mm 0,0 UV-I 0 W/m² 15,1 °C 15,9 °C 0,0 km/h (0 Bft)
01.09.2019 21:00 15,9 °C 95 % 1013,3 hPa 0,0 mm 0,0 km/h (0 Bft) W-NW 290 ° 0 min 0,000 mm 0,0 UV-I 0 W/m² 15,1 °C 15,9 °C 0,0 km/h (0 Bft)
01.09.2019 21:01 15,9 °C 95 % 1013,3 hPa 0,0 mm 0,0 km/h (0 Bft) W-NW 290 ° 0 min 0,000 mm 0,0 UV-I 0 W/m² 15,1 °C 15,9 °C 0,0 km/h (0 Bft)
01.09.2019 21:02 15,8 °C 95 % 1013,3 hPa 0,0 mm 0,0 km/h (0 Bft) W-NW 290 ° 0 min 0,000 mm 0,0 UV-I 0 W/m² 15,0 °C 15,8 °C 0,0 km/h (0 Bft)
01.09.2019 21:03 15,8 °C 95 % 1013,3 hPa 0,0 mm 0,0 km/h (0 Bft) W-NW 290 ° 0 min 0,000 mm 0,0 UV-I 0 W/m² 15,0 °C 15,8 °C 0,0 km/h (0 Bft)
01.09.2019 21:04 15,8 °C 95 % 1013,3 hPa 0,2 mm 0,0 km/h (0 Bft) W-NW 290 ° 0 min 0,000 mm 0,0 UV-I 0 W/m² 15,0 °C 15,8 °C 0,0 km/h (0 Bft)
01.09.2019 21:05 15,8 °C 95 % 1013,3 hPa 0,0 mm 0,0 km/h (0 Bft) W-NW 290 ° 0 min 0,000 mm 0,0 UV-I 0 W/m² 15,0 °C 15,8 °C 0,0 km/h (0 Bft)
01.09.2019 21:06 15,8 °C 95 % 1013,4 hPa 0,0 mm 0,0 km/h (0 Bft) W-NW 290 ° 0 min 0,000 mm 0,0 UV-I 0 W/m² 15,0 °C 15,8 °C 0,0 km/h (0 Bft)
01.09.2019 21:07 15,7 °C 95 % 1013,3 hPa 0,0 mm 0,0 km/h (0 Bft) W-NW 290 ° 0 min 0,000 mm 0,0 UV-I 0 W/m² 14,9 °C 15,7 °C 0,0 km/h (0 Bft)
01.09.2019 21:08 15,7 °C 95 % 1013,4 hPa 0,0 mm 0,0 km/h (0 Bft) W-NW 290 ° 0 min 0,000 mm 0,0 UV-I 0 W/m² 14,9 °C 15,7 °C 0,0 km/h (0 Bft)
01.09.2019 21:09 15,7 °C 95 % 1013,4 hPa 0,2 mm 0,0 km/h (0 Bft) W-NW 290 ° 0 min 0,000 mm 0,0 UV-I 0 W/m² 14,9 °C 15,7 °C 0,0 km/h (0 Bft)
01.09.2019 21:10 15,7 °C 95 % 1013,4 hPa 0,0 mm 0,0 km/h (0 Bft) W-NW 290 ° 0 min 0,000 mm 0,0 UV-I 0 W/m² 14,9 °C 15,7 °C 0,0 km/h (0 Bft)
01.09.2019 21:11 15,6 °C 95 % 1013,4 hPa 0,0 mm 0,0 km/h (0 Bft) W-NW 290 ° 0 min 0,000 mm 0,0 UV-I 0 W/m² 14,8 °C 15,6 °C 0,0 km/h (0 Bft)
01.09.2019 21:12 15,6 °C 95 % 1013,4 hPa 0,0 mm 0,0 km/h (0 Bft) W-NW 290 ° 0 min 0,000 mm 0,0 UV-I 0 W/m² 14,8 °C 15,6 °C 0,0 km/h (0 Bft)
01.09.2019 21:13 15,6 °C 95 % 1013,4 hPa 0,0 mm 0,0 km/h (0 Bft) W-NW 290 ° 0 min 0,000 mm 0,0 UV-I 0 W/m² 14,8 °C 15,6 °C 0,0 km/h (0 Bft)
01.09.2019 21:14 15,6 °C 95 % 1013,5 hPa 0,0 mm 0,0 km/h (0 Bft) W-NW 290 ° 0 min 0,000 mm 0,0 UV-I 0 W/m² 14,8 °C 15,6 °C 0,0 km/h (0 Bft)
01.09.2019 21:15 15,6 °C 95 % 1013,5 hPa 0,2 mm 0,0 km/h (0 Bft) W-NW 290 ° 0 min 0,000 mm 0,0 UV-I 0 W/m² 14,8 °C 15,6 °C 0,0 km/h (0 Bft)
01.09.2019 21:16 15,5 °C 95 % 1013,4 hPa 0,0 mm 0,0 km/h (0 Bft) W-NW 290 ° 0 min 0,000 mm 0,0 UV-I 0 W/m² 14,7 °C 15,5 °C 0,0 km/h (0 Bft)
01.09.2019 21:17 15,5 °C 95 % 1013,5 hPa 0,0 mm 0,0 km/h (0 Bft) W-NW 290 ° 0 min 0,000 mm 0,0 UV-I 0 W/m² 14,7 °C 15,5 °C 0,0 km/h (0 Bft)
01.09.2019 21:18 15,5 °C 95 % 1013,4 hPa 0,0 mm 0,0 km/h (0 Bft) W-NW 290 ° 0 min 0,000 mm 0,0 UV-I 0 W/m² 14,7 °C 15,5 °C 0,0 km/h (0 Bft)
01.09.2019 21:19 15,4 °C 95 % 1013,4 hPa 0,0 mm 0,0 km/h (0 Bft) W-NW 290 ° 0 min 0,000 mm 0,0 UV-I 0 W/m² 14,6 °C 15,4 °C 0,0 km/h (0 Bft)
01.09.2019 21:20 15,4 °C 95 % 1013,4 hPa 0,2 mm 0,0 km/h (0 Bft) W-NW 290 ° 0 min 0,000 mm 0,0 UV-I 0 W/m² 14,6 °C 15,4 °C 0,0 km/h (0 Bft)
01.09.2019 21:21 15,4 °C 95 % 1013,4 hPa 0,0 mm 0,0 km/h (0 Bft) W-NW 290 ° 0 min 0,000 mm 0,0 UV-I 0 W/m² 14,6 °C 15,4 °C 0,0 km/h (0 Bft)
01.09.2019 21:22 15,4 °C 95 % 1013,3 hPa 0,0 mm 0,0 km/h (0 Bft) W-NW 290 ° 0 min 0,000 mm 0,0 UV-I 0 W/m² 14,6 °C 15,4 °C 0,0 km/h (0 Bft)
01.09.2019 21:23 15,4 °C 95 % 1013,3 hPa 0,0 mm 0,0 km/h (0 Bft) W-NW 290 ° 0 min 0,000 mm 0,0 UV-I 0 W/m² 14,6 °C 15,4 °C 0,0 km/h (0 Bft)
01.09.2019 21:24 15,4 °C 95 % 1013,4 hPa 0,0 mm 0,0 km/h (0 Bft) W-NW 290 ° 0 min 0,000 mm 0,0 UV-I 0 W/m² 14,6 °C 15,4 °C 0,0 km/h (0 Bft)
01.09.2019 21:25 15,3 °C 95 % 1013,4 hPa 0,0 mm 0,0 km/h (0 Bft) W-NW 290 ° 0 min 0,000 mm 0,0 UV-I 0 W/m² 14,5 °C 15,3 °C 0,0 km/h (0 Bft)
01.09.2019 21:26 15,3 °C 95 % 1013,5 hPa 0,2 mm 0,0 km/h (0 Bft) W-NW 290 ° 0 min 0,000 mm 0,0 UV-I 0 W/m² 14,5 °C 15,3 °C 0,0 km/h (0 Bft)
01.09.2019 21:27 15,3 °C 95 % 1013,5 hPa 0,0 mm 0,0 km/h (0 Bft) W-NW 290 ° 0 min 0,000 mm 0,0 UV-I 0 W/m² 14,5 °C 15,3 °C 0,0 km/h (0 Bft)
01.09.2019 21:28 15,3 °C 95 % 1013,5 hPa 0,0 mm 0,0 km/h (0 Bft) W-NW 290 ° 0 min 0,000 mm 0,0 UV-I 0 W/m² 14,5 °C 15,3 °C 0,0 km/h (0 Bft)
01.09.2019 21:29 15,3 °C 95 % 1013,6 hPa 0,0 mm 0,0 km/h (0 Bft) W-NW 290 ° 0 min 0,000 mm 0,0 UV-I 0 W/m² 14,5 °C 15,3 °C 0,0 km/h (0 Bft)
01.09.2019 21:30 15,3 °C 95 % 1013,6 hPa 0,2 mm 0,0 km/h (0 Bft) W-NW 290 ° 0 min 0,000 mm 0,0 UV-I 0 W/m² 14,5 °C 15,3 °C 0,0 km/h (0 Bft)
01.09.2019 21:31 15,3 °C 95 % 1013,5 hPa 0,0 mm 0,0 km/h (0 Bft) W-NW 290 ° 0 min 0,000 mm 0,0 UV-I 0 W/m² 14,5 °C 15,3 °C 0,0 km/h (0 Bft)
01.09.2019 21:32 15,3 °C 95 % 1013,6 hPa 0,0 mm 0,0 km/h (0 Bft) W-NW 290 ° 0 min 0,000 mm 0,0 UV-I 0 W/m² 14,5 °C 15,3 °C 0,0 km/h (0 Bft)
01.09.2019 21:33 15,3 °C 95 % 1013,6 hPa 0,0 mm 0,0 km/h (0 Bft) W-NW 290 ° 0 min 0,000 mm 0,0 UV-I 0 W/m² 14,5 °C 15,3 °C 0,0 km/h (0 Bft)
01.09.2019 21:34 15,3 °C 95 % 1013,6 hPa 0,0 mm 0,0 km/h (0 Bft) W-NW 290 ° 0 min 0,000 mm 0,0 UV-I 0 W/m² 14,5 °C 15,3 °C 0,0 km/h (0 Bft)
01.09.2019 21:35 15,2 °C 95 % 1013,6 hPa 0,0 mm 0,0 km/h (0 Bft) W-NW 290 ° 0 min 0,000 mm 0,0 UV-I 0 W/m² 14,4 °C 15,2 °C 0,0 km/h (0 Bft)
01.09.2019 21:36 15,2 °C 95 % 1013,6 hPa 0,0 mm 0,0 km/h (0 Bft) W-NW 290 ° 0 min 0,000 mm 0,0 UV-I 0 W/m² 14,4 °C 15,2 °C 0,0 km/h (0 Bft)
01.09.2019 21:37 15,2 °C 95 % 1013,7 hPa 0,2 mm 0,0 km/h (0 Bft) W-NW 290 ° 0 min 0,000 mm 0,0 UV-I 0 W/m² 14,4 °C 15,2 °C 0,0 km/h (0 Bft)
01.09.2019 21:38 15,2 °C 95 % 1013,6 hPa 0,0 mm 0,0 km/h (0 Bft) W-NW 290 ° 0 min 0,000 mm 0,0 UV-I 0 W/m² 14,4 °C 15,2 °C 0,0 km/h (0 Bft)
01.09.2019 21:39 15,2 °C 95 % 1013,6 hPa 0,0 mm 0,0 km/h (0 Bft) W-NW 290 ° 0 min 0,000 mm 0,0 UV-I 0 W/m² 14,4 °C 15,2 °C 0,0 km/h (0 Bft)
01.09.2019 21:40 15,2 °C 95 % 1013,7 hPa 0,0 mm 0,0 km/h (0 Bft) W-NW 290 ° 0 min 0,000 mm 0,0 UV-I 0 W/m² 14,4 °C 15,2 °C 0,0 km/h (0 Bft)
01.09.2019 21:41 15,2 °C 95 % 1013,7 hPa 0,0 mm 0,0 km/h (0 Bft) W-NW 290 ° 0 min 0,000 mm 0,0 UV-I 0 W/m² 14,4 °C 15,2 °C 0,0 km/h (0 Bft)
01.09.2019 21:42 15,2 °C 95 % 1013,6 hPa 0,0 mm 0,0 km/h (0 Bft) W-NW 290 ° 0 min 0,000 mm 0,0 UV-I 0 W/m² 14,4 °C 15,2 °C 0,0 km/h (0 Bft)
01.09.2019 21:43 15,2 °C 95 % 1013,6 hPa 0,0 mm 0,0 km/h (0 Bft) W-NW 290 ° 0 min 0,000 mm 0,0 UV-I 0 W/m² 14,4 °C 15,2 °C 0,0 km/h (0 Bft)
01.09.2019 21:44 15,2 °C 95 % 1013,7 hPa 0,0 mm 0,0 km/h (0 Bft) W-NW 290 ° 0 min 0,000 mm 0,0 UV-I 0 W/m² 14,4 °C 15,2 °C 0,0 km/h (0 Bft)
01.09.2019 21:45 15,2 °C 95 % 1013,6 hPa 0,0 mm 0,0 km/h (0 Bft) W-NW 290 ° 0 min 0,000 mm 0,0 UV-I 0 W/m² 14,4 °C 15,2 °C 0,0 km/h (0 Bft)
01.09.2019 21:46 15,2 °C 95 % 1013,7 hPa 0,0 mm 0,0 km/h (0 Bft) W-NW 290 ° 0 min 0,000 mm 0,0 UV-I 0 W/m² 14,4 °C 15,2 °C 0,0 km/h (0 Bft)
01.09.2019 21:47 15,2 °C 95 % 1013,7 hPa 0,0 mm 0,0 km/h (0 Bft) W-NW 290 ° 0 min 0,000 mm 0,0 UV-I 0 W/m² 14,4 °C 15,2 °C 0,0 km/h (0 Bft)
01.09.2019 21:48 15,2 °C 95 % 1013,6 hPa 0,0 mm 0,0 km/h (0 Bft) W-NW 290 ° 0 min 0,000 mm 0,0 UV-I 0 W/m² 14,4 °C 15,2 °C 0,0 km/h (0 Bft)
01.09.2019 21:49 15,2 °C 95 % 1013,7 hPa 0,0 mm 0,0 km/h (0 Bft) W-NW 290 ° 0 min 0,000 mm 0,0 UV-I 0 W/m² 14,4 °C 15,2 °C 0,0 km/h (0 Bft)
01.09.2019 21:50 15,2 °C 95 % 1013,7 hPa 0,0 mm 0,0 km/h (0 Bft) W-NW 290 ° 0 min 0,000 mm 0,0 UV-I 0 W/m² 14,4 °C 15,2 °C 0,0 km/h (0 Bft)
01.09.2019 21:51 15,2 °C 95 % 1013,7 hPa 0,0 mm 0,0 km/h (0 Bft) W-NW 290 ° 0 min 0,000 mm 0,0 UV-I 0 W/m² 14,4 °C 15,2 °C 0,0 km/h (0 Bft)
01.09.2019 21:52 15,2 °C 95 % 1013,7 hPa 0,0 mm 0,0 km/h (0 Bft) W-NW 290 ° 0 min 0,000 mm 0,0 UV-I 0 W/m² 14,4 °C 15,2 °C 0,0 km/h (0 Bft)
01.09.2019 21:53 15,2 °C 95 % 1013,7 hPa 0,0 mm 0,0 km/h (0 Bft) W-NW 290 ° 0 min 0,000 mm 0,0 UV-I 0 W/m² 14,4 °C 15,2 °C 0,0 km/h (0 Bft)
01.09.2019 21:54 15,2 °C 95 % 1013,7 hPa 0,0 mm 0,0 km/h (0 Bft) W-NW 290 ° 0 min 0,000 mm 0,0 UV-I 0 W/m² 14,4 °C 15,2 °C 0,0 km/h (0 Bft)
01.09.2019 21:55 15,2 °C 95 % 1013,7 hPa 0,0 mm 0,0 km/h (0 Bft) W-NW 290 ° 0 min 0,000 mm 0,0 UV-I 0 W/m² 14,4 °C 15,2 °C 0,0 km/h (0 Bft)
01.09.2019 21:56 15,2 °C 95 % 1013,6 hPa 0,0 mm 0,0 km/h (0 Bft) W-NW 290 ° 0 min 0,000 mm 0,0 UV-I 0 W/m² 14,4 °C 15,2 °C 0,0 km/h (0 Bft)
01.09.2019 21:57 15,2 °C 95 % 1013,7 hPa 0,0 mm 0,0 km/h (0 Bft) W-NW 290 ° 0 min 0,000 mm 0,0 UV-I 0 W/m² 14,4 °C 15,2 °C 0,0 km/h (0 Bft)
01.09.2019 21:58 15,3 °C 95 % 1013,6 hPa 0,0 mm 0,0 km/h (0 Bft) W-NW 290 ° 0 min 0,000 mm 0,0 UV-I 0 W/m² 14,5 °C 15,3 °C 0,0 km/h (0 Bft)
01.09.2019 21:59 15,2 °C 95 % 1013,6 hPa 0,0 mm 0,0 km/h (0 Bft) W-NW 290 ° 0 min 0,000 mm 0,0 UV-I 0 W/m² 14,4 °C 15,2 °C 0,0 km/h (0 Bft)
01.09.2019 22:00 15,2 °C 95 % 1013,7 hPa 0,0 mm 0,0 km/h (0 Bft) W-NW 290 ° 0 min 0,000 mm 0,0 UV-I 0 W/m² 14,4 °C 15,2 °C 0,0 km/h (0 Bft)
01.09.2019 22:01 15,2 °C 95 % 1013,7 hPa 0,0 mm 0,0 km/h (0 Bft) W-NW 290 ° 0 min 0,000 mm 0,0 UV-I 0 W/m² 14,4 °C 15,2 °C 0,0 km/h (0 Bft)
01.09.2019 22:02 15,2 °C 95 % 1013,6 hPa 0,0 mm 0,0 km/h (0 Bft) W-NW 290 ° 0 min 0,000 mm 0,0 UV-I 0 W/m² 14,4 °C 15,2 °C 0,0 km/h (0 Bft)
01.09.2019 22:03 15,2 °C 95 % 1013,7 hPa 0,0 mm 0,0 km/h (0 Bft) W-NW 290 ° 0 min 0,000 mm 0,0 UV-I 0 W/m² 14,4 °C 15,2 °C 0,0 km/h (0 Bft)
01.09.2019 22:04 15,2 °C 95 % 1013,7 hPa 0,0 mm 0,0 km/h (0 Bft) W-NW 290 ° 0 min 0,000 mm 0,0 UV-I 0 W/m² 14,4 °C 15,2 °C 0,0 km/h (0 Bft)
01.09.2019 22:05 15,2 °C 95 % 1013,6 hPa 0,0 mm 0,0 km/h (0 Bft) W-NW 290 ° 0 min 0,000 mm 0,0 UV-I 0 W/m² 14,4 °C 15,2 °C 0,0 km/h (0 Bft)
01.09.2019 22:06 15,2 °C 95 % 1013,6 hPa 0,0 mm 0,0 km/h (0 Bft) W-NW 290 ° 0 min 0,000 mm 0,0 UV-I 0 W/m² 14,4 °C 15,2 °C 0,0 km/h (0 Bft)
01.09.2019 22:07 15,2 °C 95 % 1013,7 hPa 0,0 mm 0,0 km/h (0 Bft) W-NW 290 ° 0 min 0,000 mm 0,0 UV-I 0 W/m² 14,4 °C 15,2 °C 0,0 km/h (0 Bft)
01.09.2019 22:08 15,2 °C 95 % 1013,6 hPa 0,0 mm 0,0 km/h (0 Bft) W-NW 290 ° 0 min 0,000 mm 0,0 UV-I 0 W/m² 14,4 °C 15,2 °C 0,0 km/h (0 Bft)
01.09.2019 22:09 15,2 °C 95 % 1013,7 hPa 0,0 mm 0,0 km/h (0 Bft) W-NW 290 ° 0 min 0,000 mm 0,0 UV-I 0 W/m² 14,4 °C 15,2 °C 0,0 km/h (0 Bft)
01.09.2019 22:10 15,2 °C 95 % 1013,7 hPa 0,0 mm 0,0 km/h (0 Bft) W-NW 290 ° 0 min 0,000 mm 0,0 UV-I 0 W/m² 14,4 °C 15,2 °C 0,0 km/h (0 Bft)
01.09.2019 22:11 15,2 °C 95 % 1013,7 hPa 0,0 mm 0,0 km/h (0 Bft) W-NW 290 ° 0 min 0,000 mm 0,0 UV-I 0 W/m² 14,4 °C 15,2 °C 0,0 km/h (0 Bft)
01.09.2019 22:12 15,2 °C 95 % 1013,7 hPa 0,0 mm 0,0 km/h (0 Bft) W-NW 290 ° 0 min 0,000 mm 0,0 UV-I 0 W/m² 14,4 °C 15,2 °C 0,0 km/h (0 Bft)
01.09.2019 22:13 15,2 °C 95 % 1013,8 hPa 0,0 mm 0,0 km/h (0 Bft) W-NW 290 ° 0 min 0,000 mm 0,0 UV-I 0 W/m² 14,4 °C 15,2 °C 0,0 km/h (0 Bft)
01.09.2019 22:14 15,2 °C 95 % 1013,7 hPa 0,0 mm 0,0 km/h (0 Bft) W-NW 290 ° 0 min 0,000 mm 0,0 UV-I 0 W/m² 14,4 °C 15,2 °C 0,0 km/h (0 Bft)
01.09.2019 22:15 15,2 °C 95 % 1013,8 hPa 0,0 mm 0,0 km/h (0 Bft) W-NW 290 ° 0 min 0,000 mm 0,0 UV-I 0 W/m² 14,4 °C 15,2 °C 0,0 km/h (0 Bft)
01.09.2019 22:16 15,2 °C 95 % 1013,7 hPa 0,0 mm 0,0 km/h (0 Bft) W-NW 290 ° 0 min 0,000 mm 0,0 UV-I 0 W/m² 14,4 °C 15,2 °C 0,0 km/h (0 Bft)
01.09.2019 22:17 15,2 °C 95 % 1013,8 hPa 0,0 mm 0,0 km/h (0 Bft) W-NW 290 ° 0 min 0,000 mm 0,0 UV-I 0 W/m² 14,4 °C 15,2 °C 0,0 km/h (0 Bft)
01.09.2019 22:18 15,2 °C 95 % 1013,7 hPa 0,0 mm 0,0 km/h (0 Bft) W-NW 290 ° 0 min 0,000 mm 0,0 UV-I 0 W/m² 14,4 °C 15,2 °C 0,0 km/h (0 Bft)
01.09.2019 22:19 15,2 °C 95 % 1013,8 hPa 0,0 mm 0,0 km/h (0 Bft) W-NW 290 ° 0 min 0,000 mm 0,0 UV-I 0 W/m² 14,4 °C 15,2 °C 0,0 km/h (0 Bft)
01.09.2019 22:20 15,2 °C 95 % 1013,7 hPa 0,0 mm 0,0 km/h (0 Bft) W-NW 290 ° 0 min 0,000 mm 0,0 UV-I 0 W/m² 14,4 °C 15,2 °C 0,0 km/h (0 Bft)
01.09.2019 22:21 15,2 °C 95 % 1013,8 hPa 0,0 mm 0,0 km/h (0 Bft) W-NW 290 ° 0 min 0,000 mm 0,0 UV-I 0 W/m² 14,4 °C 15,2 °C 0,0 km/h (0 Bft)
01.09.2019 22:22 15,3 °C 95 % 1013,8 hPa 0,2 mm 0,0 km/h (0 Bft) W-NW 290 ° 0 min 0,000 mm 0,0 UV-I 0 W/m² 14,5 °C 15,3 °C 0,0 km/h (0 Bft)
01.09.2019 22:23 15,2 °C 95 % 1013,8 hPa 0,0 mm 0,0 km/h (0 Bft) W-NW 290 ° 0 min 0,000 mm 0,0 UV-I 0 W/m² 14,4 °C 15,2 °C 0,0 km/h (0 Bft)
01.09.2019 22:24 15,2 °C 95 % 1013,8 hPa 0,0 mm 0,0 km/h (0 Bft) W-NW 290 ° 0 min 0,000 mm 0,0 UV-I 0 W/m² 14,4 °C 15,2 °C 0,0 km/h (0 Bft)
01.09.2019 22:25 15,2 °C 95 % 1013,8 hPa 0,0 mm 0,0 km/h (0 Bft) W-NW 290 ° 0 min 0,000 mm 0,0 UV-I 0 W/m² 14,4 °C 15,2 °C 0,0 km/h (0 Bft)
01.09.2019 22:26 15,2 °C 95 % 1013,8 hPa 0,0 mm 0,0 km/h (0 Bft) W-NW 290 ° 0 min 0,000 mm 0,0 UV-I 0 W/m² 14,4 °C 15,2 °C 0,0 km/h (0 Bft)
01.09.2019 22:27 15,2 °C 95 % 1013,7 hPa 0,0 mm 0,0 km/h (0 Bft) W-NW 290 ° 0 min 0,000 mm 0,0 UV-I 0 W/m² 14,4 °C 15,2 °C 0,0 km/h (0 Bft)
01.09.2019 22:28 15,2 °C 95 % 1013,7 hPa 0,0 mm 0,0 km/h (0 Bft) W-NW 290 ° 0 min 0,000 mm 0,0 UV-I 0 W/m² 14,4 °C 15,2 °C 0,0 km/h (0 Bft)
01.09.2019 22:29 15,2 °C 95 % 1013,7 hPa 0,0 mm 0,0 km/h (0 Bft) W-NW 290 ° 0 min 0,000 mm 0,0 UV-I 0 W/m² 14,4 °C 15,2 °C 0,0 km/h (0 Bft)
01.09.2019 22:30 15,2 °C 95 % 1013,7 hPa 0,0 mm 0,0 km/h (0 Bft) W-NW 290 ° 0 min 0,000 mm 0,0 UV-I 0 W/m² 14,4 °C 15,2 °C 0,0 km/h (0 Bft)
01.09.2019 22:31 15,2 °C 95 % 1013,6 hPa 0,0 mm 0,0 km/h (0 Bft) W-NW 290 ° 0 min 0,000 mm 0,0 UV-I 0 W/m² 14,4 °C 15,2 °C 0,0 km/h (0 Bft)
01.09.2019 22:32 15,2 °C 95 % 1013,6 hPa 0,0 mm 0,0 km/h (0 Bft) W-NW 290 ° 0 min 0,000 mm 0,0 UV-I 0 W/m² 14,4 °C 15,2 °C 0,0 km/h (0 Bft)
01.09.2019 22:33 15,2 °C 95 % 1013,6 hPa 0,0 mm 0,0 km/h (0 Bft) W-NW 290 ° 0 min 0,000 mm 0,0 UV-I 0 W/m² 14,4 °C 15,2 °C 0,0 km/h (0 Bft)
01.09.2019 22:34 15,2 °C 95 % 1013,6 hPa 0,0 mm 0,0 km/h (0 Bft) W-NW 290 ° 0 min 0,000 mm 0,0 UV-I 0 W/m² 14,4 °C 15,2 °C 0,0 km/h (0 Bft)
01.09.2019 22:35 15,2 °C 95 % 1013,6 hPa 0,0 mm 0,0 km/h (0 Bft) W-NW 290 ° 0 min 0,000 mm 0,0 UV-I 0 W/m² 14,4 °C 15,2 °C 0,0 km/h (0 Bft)
01.09.2019 22:36 15,2 °C 95 % 1013,7 hPa 0,0 mm 0,0 km/h (0 Bft) W-NW 290 ° 0 min 0,000 mm 0,0 UV-I 0 W/m² 14,4 °C 15,2 °C 0,0 km/h (0 Bft)
01.09.2019 22:37 15,2 °C 95 % 1013,6 hPa 0,0 mm 0,0 km/h (0 Bft) W-NW 290 ° 0 min 0,000 mm 0,0 UV-I 0 W/m² 14,4 °C 15,2 °C 0,0 km/h (0 Bft)
01.09.2019 22:38 15,2 °C 95 % 1013,6 hPa 0,0 mm 0,0 km/h (0 Bft) W-NW 290 ° 0 min 0,000 mm 0,0 UV-I 0 W/m² 14,4 °C 15,2 °C 0,0 km/h (0 Bft)
01.09.2019 22:39 15,2 °C 95 % 1013,6 hPa 0,0 mm 0,0 km/h (0 Bft) W-NW 290 ° 0 min 0,000 mm 0,0 UV-I 0 W/m² 14,4 °C 15,2 °C 0,0 km/h (0 Bft)
01.09.2019 22:40 15,3 °C 95 % 1013,6 hPa 0,0 mm 0,0 km/h (0 Bft) W-NW 290 ° 0 min 0,000 mm 0,0 UV-I 0 W/m² 14,5 °C 15,3 °C 0,0 km/h (0 Bft)
01.09.2019 22:41 15,2 °C 95 % 1013,6 hPa 0,0 mm 0,0 km/h (0 Bft) W-NW 290 ° 0 min 0,000 mm 0,0 UV-I 0 W/m² 14,4 °C 15,2 °C 0,0 km/h (0 Bft)
01.09.2019 22:42 15,2 °C 95 % 1013,6 hPa 0,0 mm 0,0 km/h (0 Bft) W-NW 290 ° 0 min 0,000 mm 0,0 UV-I 0 W/m² 14,4 °C 15,2 °C 0,0 km/h (0 Bft)
01.09.2019 22:43 15,3 °C 95 % 1013,7 hPa 0,0 mm 0,0 km/h (0 Bft) W-NW 290 ° 0 min 0,000 mm 0,0 UV-I 0 W/m² 14,5 °C 15,3 °C 0,0 km/h (0 Bft)
01.09.2019 22:44 15,3 °C 95 % 1013,6 hPa 0,0 mm 0,0 km/h (0 Bft) W-NW 290 ° 0 min 0,000 mm 0,0 UV-I 0 W/m² 14,5 °C 15,3 °C 0,0 km/h (0 Bft)
01.09.2019 22:45 15,3 °C 95 % 1013,7 hPa 0,0 mm 0,0 km/h (0 Bft) W-NW 290 ° 0 min 0,000 mm 0,0 UV-I 0 W/m² 14,5 °C 15,3 °C 0,0 km/h (0 Bft)
01.09.2019 22:46 15,3 °C 95 % 1013,7 hPa 0,0 mm 0,0 km/h (0 Bft) W-NW 290 ° 0 min 0,000 mm 0,0 UV-I 0 W/m² 14,5 °C 15,3 °C 0,0 km/h (0 Bft)
01.09.2019 22:47 15,3 °C 95 % 1013,7 hPa 0,0 mm 0,0 km/h (0 Bft) W-NW 290 ° 0 min 0,000 mm 0,0 UV-I 0 W/m² 14,5 °C 15,3 °C 0,0 km/h (0 Bft)
01.09.2019 22:48 15,3 °C 95 % 1013,7 hPa 0,0 mm 0,0 km/h (0 Bft) W-NW 290 ° 0 min 0,000 mm 0,0 UV-I 0 W/m² 14,5 °C 15,3 °C 0,0 km/h (0 Bft)
01.09.2019 22:49 15,3 °C 95 % 1013,8 hPa 0,0 mm 0,0 km/h (0 Bft) W-NW 290 ° 0 min 0,000 mm 0,0 UV-I 0 W/m² 14,5 °C 15,3 °C 0,0 km/h (0 Bft)
01.09.2019 22:50 15,3 °C 95 % 1013,8 hPa 0,0 mm 0,0 km/h (0 Bft) W-NW 290 ° 0 min 0,000 mm 0,0 UV-I 0 W/m² 14,5 °C 15,3 °C 0,0 km/h (0 Bft)
01.09.2019 22:51 15,3 °C 95 % 1013,8 hPa 0,0 mm 0,0 km/h (0 Bft) W-NW 290 ° 0 min 0,000 mm 0,0 UV-I 0 W/m² 14,5 °C 15,3 °C 0,0 km/h (0 Bft)
01.09.2019 22:52 15,3 °C 95 % 1013,9 hPa 0,0 mm 0,0 km/h (0 Bft) W-NW 290 ° 0 min 0,000 mm 0,0 UV-I 0 W/m² 14,5 °C 15,3 °C 0,0 km/h (0 Bft)
01.09.2019 22:53 15,3 °C 95 % 1013,9 hPa 0,0 mm 0,0 km/h (0 Bft) W-NW 290 ° 0 min 0,000 mm 0,0 UV-I 0 W/m² 14,5 °C 15,3 °C 0,0 km/h (0 Bft)
01.09.2019 22:54 15,3 °C 95 % 1013,9 hPa 0,0 mm 0,0 km/h (0 Bft) W-NW 290 ° 0 min 0,000 mm 0,0 UV-I 0 W/m² 14,5 °C 15,3 °C 0,0 km/h (0 Bft)
01.09.2019 22:55 15,3 °C 95 % 1013,9 hPa 0,0 mm 0,0 km/h (0 Bft) W-NW 290 ° 0 min 0,000 mm 0,0 UV-I 0 W/m² 14,5 °C 15,3 °C 0,0 km/h (0 Bft)
01.09.2019 22:56 15,3 °C 95 % 1013,9 hPa 0,0 mm 0,0 km/h (0 Bft) W-NW 290 ° 0 min 0,000 mm 0,0 UV-I 0 W/m² 14,5 °C 15,3 °C 0,0 km/h (0 Bft)
01.09.2019 22:57 15,3 °C 95 % 1014,0 hPa 0,0 mm 0,0 km/h (0 Bft) W-NW 290 ° 0 min 0,000 mm 0,0 UV-I 0 W/m² 14,5 °C 15,3 °C 0,0 km/h (0 Bft)
01.09.2019 22:58 15,3 °C 95 % 1014,0 hPa 0,0 mm 0,0 km/h (0 Bft) W-NW 290 ° 0 min 0,000 mm 0,0 UV-I 0 W/m² 14,5 °C 15,3 °C 0,0 km/h (0 Bft)
01.09.2019 22:59 15,3 °C 95 % 1014,1 hPa 0,0 mm 0,0 km/h (0 Bft) W-NW 290 ° 0 min 0,000 mm 0,0 UV-I 0 W/m² 14,5 °C 15,3 °C 0,0 km/h (0 Bft)
01.09.2019 23:00 15,3 °C 95 % 1014,0 hPa 0,0 mm 0,0 km/h (0 Bft) W-NW 290 ° 0 min 0,000 mm 0,0 UV-I 0 W/m² 14,5 °C 15,3 °C 0,0 km/h (0 Bft)
01.09.2019 23:01 15,3 °C 95 % 1014,1 hPa 0,0 mm 0,0 km/h (0 Bft) W-NW 290 ° 0 min 0,000 mm 0,0 UV-I 0 W/m² 14,5 °C 15,3 °C 0,0 km/h (0 Bft)
01.09.2019 23:02 15,3 °C 95 % 1014,1 hPa 0,0 mm 0,0 km/h (0 Bft) W-NW 290 ° 0 min 0,000 mm 0,0 UV-I 0 W/m² 14,5 °C 15,3 °C 0,0 km/h (0 Bft)
01.09.2019 23:03 15,3 °C 95 % 1014,1 hPa 0,0 mm 0,0 km/h (0 Bft) W-NW 290 ° 0 min 0,000 mm 0,0 UV-I 0 W/m² 14,5 °C 15,3 °C 0,0 km/h (0 Bft)
01.09.2019 23:04 15,4 °C 95 % 1014,1 hPa 0,0 mm 0,0 km/h (0 Bft) W-NW 290 ° 0 min 0,000 mm 0,0 UV-I 0 W/m² 14,6 °C 15,4 °C 0,0 km/h (0 Bft)
01.09.2019 23:05 15,4 °C 95 % 1014,1 hPa 0,0 mm 0,0 km/h (0 Bft) W-NW 290 ° 0 min 0,000 mm 0,0 UV-I 0 W/m² 14,6 °C 15,4 °C 0,0 km/h (0 Bft)
01.09.2019 23:06 15,3 °C 95 % 1014,1 hPa 0,0 mm 0,0 km/h (0 Bft) W-NW 290 ° 0 min 0,000 mm 0,0 UV-I 0 W/m² 14,5 °C 15,3 °C 0,0 km/h (0 Bft)
01.09.2019 23:07 15,3 °C 95 % 1014,1 hPa 0,0 mm 0,0 km/h (0 Bft) W-NW 290 ° 0 min 0,000 mm 0,0 UV-I 0 W/m² 14,5 °C 15,3 °C 0,0 km/h (0 Bft)
01.09.2019 23:08 15,3 °C 95 % 1014,0 hPa 0,0 mm 0,0 km/h (0 Bft) W-NW 290 ° 0 min 0,000 mm 0,0 UV-I 0 W/m² 14,5 °C 15,3 °C 0,0 km/h (0 Bft)
01.09.2019 23:09 15,3 °C 95 % 1014,1 hPa 0,0 mm 0,0 km/h (0 Bft) W-NW 290 ° 0 min 0,000 mm 0,0 UV-I 0 W/m² 14,5 °C 15,3 °C 0,0 km/h (0 Bft)
01.09.2019 23:10 15,3 °C 95 % 1014,1 hPa 0,0 mm 0,0 km/h (0 Bft) W-NW 290 ° 0 min 0,000 mm 0,0 UV-I 0 W/m² 14,5 °C 15,3 °C 0,0 km/h (0 Bft)
01.09.2019 23:11 15,3 °C 95 % 1014,1 hPa 0,0 mm 0,0 km/h (0 Bft) W-NW 290 ° 0 min 0,000 mm 0,0 UV-I 0 W/m² 14,5 °C 15,3 °C 0,0 km/h (0 Bft)
01.09.2019 23:12 15,3 °C 95 % 1014,1 hPa 0,0 mm 0,0 km/h (0 Bft) W-NW 290 ° 0 min 0,000 mm 0,0 UV-I 0 W/m² 14,5 °C 15,3 °C 0,0 km/h (0 Bft)
01.09.2019 23:13 15,3 °C 95 % 1014,1 hPa 0,0 mm 0,0 km/h (0 Bft) W-NW 290 ° 0 min 0,000 mm 0,0 UV-I 0 W/m² 14,5 °C 15,3 °C 0,0 km/h (0 Bft)
01.09.2019 23:14 15,3 °C 95 % 1014,1 hPa 0,0 mm 0,0 km/h (0 Bft) W-NW 290 ° 0 min 0,000 mm 0,0 UV-I 0 W/m² 14,5 °C 15,3 °C 0,0 km/h (0 Bft)
01.09.2019 23:15 15,3 °C 95 % 1014,2 hPa 0,0 mm 0,0 km/h (0 Bft) W-NW 290 ° 0 min 0,000 mm 0,0 UV-I 0 W/m² 14,5 °C 15,3 °C 0,0 km/h (0 Bft)
01.09.2019 23:16 15,3 °C 95 % 1014,2 hPa 0,0 mm 0,0 km/h (0 Bft) W-NW 290 ° 0 min 0,000 mm 0,0 UV-I 0 W/m² 14,5 °C 15,3 °C 0,0 km/h (0 Bft)
01.09.2019 23:17 15,3 °C 95 % 1014,2 hPa 0,0 mm 0,0 km/h (0 Bft) W-NW 290 ° 0 min 0,000 mm 0,0 UV-I 0 W/m² 14,5 °C 15,3 °C 0,0 km/h (0 Bft)
01.09.2019 23:18 15,3 °C 95 % 1014,2 hPa 0,0 mm 0,0 km/h (0 Bft) W-NW 290 ° 0 min 0,000 mm 0,0 UV-I 0 W/m² 14,5 °C 15,3 °C 0,0 km/h (0 Bft)
01.09.2019 23:19 15,3 °C 95 % 1014,2 hPa 0,0 mm 0,0 km/h (0 Bft) W-NW 290 ° 0 min 0,000 mm 0,0 UV-I 0 W/m² 14,5 °C 15,3 °C 0,0 km/h (0 Bft)
01.09.2019 23:20 15,3 °C 95 % 1014,2 hPa 0,0 mm 0,0 km/h (0 Bft) W-NW 290 ° 0 min 0,000 mm 0,0 UV-I 0 W/m² 14,5 °C 15,3 °C 0,0 km/h (0 Bft)
01.09.2019 23:21 15,3 °C 95 % 1014,2 hPa 0,0 mm 0,0 km/h (0 Bft) W-NW 290 ° 0 min 0,000 mm 0,0 UV-I 0 W/m² 14,5 °C 15,3 °C 0,0 km/h (0 Bft)
01.09.2019 23:22 15,3 °C 95 % 1014,2 hPa 0,0 mm 0,0 km/h (0 Bft) W-NW 290 ° 0 min 0,000 mm 0,0 UV-I 0 W/m² 14,5 °C 15,3 °C 0,0 km/h (0 Bft)
01.09.2019 23:23 15,3 °C 95 % 1014,2 hPa 0,0 mm 0,0 km/h (0 Bft) W-NW 290 ° 0 min 0,000 mm 0,0 UV-I 0 W/m² 14,5 °C 15,3 °C 0,0 km/h (0 Bft)
01.09.2019 23:24 15,3 °C 95 % 1014,2 hPa 0,0 mm 0,0 km/h (0 Bft) W-NW 290 ° 0 min 0,000 mm 0,0 UV-I 0 W/m² 14,5 °C 15,3 °C 0,0 km/h (0 Bft)
01.09.2019 23:25 15,3 °C 95 % 1014,2 hPa 0,0 mm 0,0 km/h (0 Bft) W-NW 290 ° 0 min 0,000 mm 0,0 UV-I 0 W/m² 14,5 °C 15,3 °C 0,0 km/h (0 Bft)
01.09.2019 23:26 15,3 °C 95 % 1014,2 hPa 0,0 mm 0,0 km/h (0 Bft) W-NW 290 ° 0 min 0,000 mm 0,0 UV-I 0 W/m² 14,5 °C 15,3 °C 0,0 km/h (0 Bft)
01.09.2019 23:27 15,3 °C 95 % 1014,2 hPa 0,0 mm 0,0 km/h (0 Bft) W-NW 290 ° 0 min 0,000 mm 0,0 UV-I 0 W/m² 14,5 °C 15,3 °C 0,0 km/h (0 Bft)
01.09.2019 23:28 15,3 °C 95 % 1014,2 hPa 0,0 mm 0,0 km/h (0 Bft) W-NW 290 ° 0 min 0,000 mm 0,0 UV-I 0 W/m² 14,5 °C 15,3 °C 0,0 km/h (0 Bft)
01.09.2019 23:29 15,4 °C 95 % 1014,2 hPa 0,0 mm 0,0 km/h (0 Bft) W-NW 290 ° 0 min 0,000 mm 0,0 UV-I 0 W/m² 14,6 °C 15,4 °C 0,0 km/h (0 Bft)
01.09.2019 23:30 15,4 °C 96 % 1014,2 hPa 0,0 mm 0,0 km/h (0 Bft) W-NW 290 ° 0 min 0,000 mm 0,0 UV-I 0 W/m² 14,8 °C 15,4 °C 0,0 km/h (0 Bft)
01.09.2019 23:31 15,4 °C 95 % 1014,3 hPa 0,0 mm 0,0 km/h (0 Bft) W-NW 290 ° 0 min 0,000 mm 0,0 UV-I 0 W/m² 14,6 °C 15,4 °C 0,0 km/h (0 Bft)
01.09.2019 23:32 15,4 °C 96 % 1014,2 hPa 0,0 mm 0,0 km/h (0 Bft) W-NW 290 ° 0 min 0,000 mm 0,0 UV-I 0 W/m² 14,8 °C 15,4 °C 0,0 km/h (0 Bft)
01.09.2019 23:33 15,4 °C 96 % 1014,3 hPa 0,0 mm 0,0 km/h (0 Bft) W-NW 290 ° 0 min 0,000 mm 0,0 UV-I 0 W/m² 14,8 °C 15,4 °C 0,0 km/h (0 Bft)
01.09.2019 23:34 15,4 °C 96 % 1014,2 hPa 0,0 mm 0,1 km/h (0 Bft) W-NW 290 ° 0 min 0,000 mm 0,0 UV-I 0 W/m² 14,8 °C 15,4 °C 1,6 km/h (1 Bft)
01.09.2019 23:35 15,4 °C 96 % 1014,2 hPa 0,0 mm 0,0 km/h (0 Bft) W-NW 290 ° 0 min 0,000 mm 0,0 UV-I 0 W/m² 14,8 °C 15,4 °C 0,0 km/h (0 Bft)
01.09.2019 23:36 15,4 °C 96 % 1014,2 hPa 0,0 mm 0,0 km/h (0 Bft) W-NW 290 ° 0 min 0,000 mm 0,0 UV-I 0 W/m² 14,8 °C 15,4 °C 0,0 km/h (0 Bft)
01.09.2019 23:37 15,4 °C 96 % 1014,2 hPa 0,0 mm 0,0 km/h (0 Bft) W-NW 290 ° 0 min 0,000 mm 0,0 UV-I 0 W/m² 14,8 °C 15,4 °C 0,0 km/h (0 Bft)
01.09.2019 23:38 15,4 °C 95 % 1014,3 hPa 0,0 mm 0,0 km/h (0 Bft) W-NW 290 ° 0 min 0,000 mm 0,0 UV-I 0 W/m² 14,6 °C 15,4 °C 0,0 km/h (0 Bft)
01.09.2019 23:39 15,4 °C 95 % 1014,3 hPa 0,0 mm 0,0 km/h (0 Bft) W-NW 290 ° 0 min 0,000 mm 0,0 UV-I 0 W/m² 14,6 °C 15,4 °C 0,0 km/h (0 Bft)
01.09.2019 23:40 15,4 °C 95 % 1014,3 hPa 0,0 mm 0,0 km/h (0 Bft) W-NW 290 ° 0 min 0,000 mm 0,0 UV-I 0 W/m² 14,6 °C 15,4 °C 0,0 km/h (0 Bft)
01.09.2019 23:41 15,4 °C 96 % 1014,3 hPa 0,0 mm 0,0 km/h (0 Bft) W-NW 290 ° 0 min 0,000 mm 0,0 UV-I 0 W/m² 14,8 °C 15,4 °C 0,0 km/h (0 Bft)
01.09.2019 23:42 15,4 °C 96 % 1014,3 hPa 0,0 mm 0,0 km/h (0 Bft) W-NW 290 ° 0 min 0,000 mm 0,0 UV-I 0 W/m² 14,8 °C 15,4 °C 0,0 km/h (0 Bft)
01.09.2019 23:43 15,4 °C 96 % 1014,3 hPa 0,0 mm 0,0 km/h (0 Bft) W-NW 290 ° 0 min 0,000 mm 0,0 UV-I 0 W/m² 14,8 °C 15,4 °C 0,0 km/h (0 Bft)
01.09.2019 23:44 15,4 °C 96 % 1014,3 hPa 0,0 mm 0,0 km/h (0 Bft) W-NW 290 ° 0 min 0,000 mm 0,0 UV-I 0 W/m² 14,8 °C 15,4 °C 0,0 km/h (0 Bft)
01.09.2019 23:45 15,4 °C 96 % 1014,3 hPa 0,0 mm 0,0 km/h (0 Bft) W-NW 290 ° 0 min 0,000 mm 0,0 UV-I 0 W/m² 14,8 °C 15,4 °C 0,0 km/h (0 Bft)
01.09.2019 23:46 15,4 °C 96 % 1014,3 hPa 0,0 mm 0,0 km/h (0 Bft) W-NW 290 ° 0 min 0,000 mm 0,0 UV-I 0 W/m² 14,8 °C 15,4 °C 0,0 km/h (0 Bft)
01.09.2019 23:47 15,4 °C 96 % 1014,3 hPa 0,0 mm 0,0 km/h (0 Bft) W-NW 290 ° 0 min 0,000 mm 0,0 UV-I 0 W/m² 14,8 °C 15,4 °C 0,0 km/h (0 Bft)
01.09.2019 23:48 15,4 °C 96 % 1014,3 hPa 0,2 mm 0,0 km/h (0 Bft) W-NW 290 ° 0 min 0,000 mm 0,0 UV-I 0 W/m² 14,8 °C 15,4 °C 0,0 km/h (0 Bft)
01.09.2019 23:49 15,4 °C 96 % 1014,3 hPa 0,0 mm 0,0 km/h (0 Bft) W-NW 290 ° 0 min 0,000 mm 0,0 UV-I 0 W/m² 14,8 °C 15,4 °C 0,0 km/h (0 Bft)
01.09.2019 23:50 15,4 °C 96 % 1014,3 hPa 0,0 mm 0,0 km/h (0 Bft) W-NW 290 ° 0 min 0,000 mm 0,0 UV-I 0 W/m² 14,8 °C 15,4 °C 0,0 km/h (0 Bft)
01.09.2019 23:51 15,4 °C 96 % 1014,3 hPa 0,0 mm 0,0 km/h (0 Bft) W-NW 290 ° 0 min 0,000 mm 0,0 UV-I 0 W/m² 14,8 °C 15,4 °C 0,0 km/h (0 Bft)
01.09.2019 23:52 15,4 °C 96 % 1014,3 hPa 0,0 mm 0,0 km/h (0 Bft) W-NW 290 ° 0 min 0,000 mm 0,0 UV-I 0 W/m² 14,8 °C 15,4 °C 0,0 km/h (0 Bft)
01.09.2019 23:53 15,4 °C 96 % 1014,3 hPa 0,2 mm 0,0 km/h (0 Bft) W-NW 290 ° 0 min 0,000 mm 0,0 UV-I 0 W/m² 14,8 °C 15,4 °C 0,0 km/h (0 Bft)
01.09.2019 23:54 15,4 °C 96 % 1014,3 hPa 0,0 mm 0,0 km/h (0 Bft) W-NW 290 ° 0 min 0,000 mm 0,0 UV-I 0 W/m² 14,8 °C 15,4 °C 0,0 km/h (0 Bft)
01.09.2019 23:55 15,4 °C 96 % 1014,3 hPa 0,0 mm 0,0 km/h (0 Bft) W-NW 290 ° 0 min 0,000 mm 0,0 UV-I 0 W/m² 14,8 °C 15,4 °C 0,0 km/h (0 Bft)
01.09.2019 23:56 15,4 °C 96 % 1014,3 hPa 0,0 mm 0,0 km/h (0 Bft) W-NW 290 ° 0 min 0,000 mm 0,0 UV-I 0 W/m² 14,8 °C 15,4 °C 0,0 km/h (0 Bft)
01.09.2019 23:57 15,4 °C 96 % 1014,4 hPa 0,0 mm 0,0 km/h (0 Bft) W-NW 290 ° 0 min 0,000 mm 0,0 UV-I 0 W/m² 14,8 °C 15,4 °C 0,0 km/h (0 Bft)
01.09.2019 23:58 15,4 °C 96 % 1014,3 hPa 0,2 mm 0,0 km/h (0 Bft) W-NW 290 ° 0 min 0,000 mm 0,0 UV-I 0 W/m² 14,8 °C 15,4 °C 0,0 km/h (0 Bft)
01.09.2019 23:59 15,4 °C 96 % 1014,3 hPa 0,0 mm 0,0 km/h (0 Bft) W-NW 290 ° 0 min 0,000 mm 0,0 UV-I 0 W/m² 14,8 °C 15,4 °C 0,0 km/h (0 Bft)
_ Min-Zeit 06:53 13:56 05:21 - 23:59 - - - - - - 05:40 06:53 23:59
Minimum _ 13,7 °C 64 % 1009,9 hPa - 0,0 km/h (0 Bft) - - - - - - 10,7 °C 13,7 °C 0,0 km/h (0 Bft)
_ Max-Zeit 13:37 23:59 23:57 15:29 15:22 - - 15:55 14:01 13:50 13:54 16:46 13:37 15:22
Maximum _ 23,8 °C 96 % 1014,4 hPa 0,4 mm 17,4 km/h
NW (3 Bft)
- - 1 min 0,458 mm 6,1 UV-I 963 W/m² 18,1 °C 23,8 °C 30,6 km/h
W-SW (5 Bft)
Durchschnitt _ 17,5 °C 82 % 1011,3 hPa #13,8 mm 1,2 km/h (1 Bft) W - #1:55 h #2,108 mm 2,6 UV-I 129 W/m² 14,3 °C 17,5 °C 2,3 km/h (1 Bft)